[[{"header":{"parameterUnit":"m.s-1","parameterCategory":1,"la1":30.6,"la2":28.766,"lo1":-90.7593,"lo2":-88.6598,"dy":0.0162,"dx":0.0183,"nx":116,"ny":114,"refTime":"2023-07-01T06:00:00:Z","depth":0,"parameterNumber":2,"parameterNumberName":"U-component_of_WINDS"},"data":[0.0,0.0,0.0,0.0,0.0,0.0,0.0,0.0,0.0,0.0,0.0,0.0,0.0,0.0,0.0,0.0,0.0,0.0,0.0,0.0,0.0,0.0,0.0,0.0,0.0,0.0,0.0,0.0,0.0,0.0,0.0,0.0,0.0,0.0,0.0,0.0,0.0,0.0,0.0,0.0,0.0,0.0,0.0,0.0,0.0,0.0,0.0,0.0,0.0,0.0,0.0,0.0,0.0,0.0,0.0,0.0,0.0,0.0,0.0,0.0,0.0,0.0,0.0,0.0,0.0,0.0,0.0,0.0,0.0,0.0,0.0,0.0,0.0,0.0,0.0,0.0,0.0,0.0,0.0,0.0,0.0,0.0,0.0,0.0,0.0,0.0,0.0,0.0,0.0,0.0,0.0,0.0,0.0,0.0,0.0,0.0,0.0,0.0,0.0,0.0,0.0,0.0,0.0,0.0,0.0,0.0,0.0,0.0,0.0,0.0,0.0,0.0,0.0,0.0,0.0,0.0,0.0,0.0,0.0,0.0,0.0,0.0,0.0,0.0,0.0,0.0,0.0,0.0,0.0,0.0,0.0,0.0,0.0,0.0,0.0,0.0,0.0,0.0,0.0,0.0,0.0,0.0,0.0,0.0,0.0,0.0,0.0,0.0,0.0,0.0,0.0,0.0,0.0,0.0,0.0,0.0,0.0,0.0,0.0,0.0,0.0,0.0,0.0,0.0,0.0,0.0,0.0,0.0,0.0,0.0,0.0,0.0,0.0,0.0,0.0,0.0,0.0,0.0,0.0,0.0,0.0,0.0,0.0,0.0,0.0,0.0,0.0,0.0,0.0,0.0,0.0,0.0,0.0,0.0,0.0,0.0,0.0,0.0,0.0,0.0,0.0,0.0,0.0,0.0,0.0,0.0,0.0,0.0,0.0,0.0,0.0,0.0,0.0,0.0,0.0,0.0,0.0,0.0,0.0,0.0,0.0,0.0,0.0,0.0,0.0,0.0,0.0,0.0,0.0,0.0,0.0,0.0,0.0,0.0,0.0,0.0,0.0,0.0,0.0,0.0,0.0,0.0,0.0,0.0,0.0,0.0,0.0,0.0,0.0,0.0,0.0,0.0,0.0,0.0,0.0,0.0,0.0,0.0,0.0,0.0,0.0,0.0,0.0,0.0,0.0,0.0,0.0,0.0,0.0,0.0,0.0,0.0,0.0,0.0,0.0,0.0,0.0,0.0,0.0,0.0,0.0,0.0,0.0,0.0,0.0,0.0,0.0,0.0,0.0,0.0,0.0,0.0,0.0,0.0,0.0,0.0,0.0,0.0,0.0,0.0,0.0,0.0,0.0,0.0,0.0,0.0,0.0,0.0,0.0,0.0,0.0,0.0,0.0,0.0,0.0,0.0,0.0,0.0,0.0,0.0,0.0,0.0,0.0,0.0,0.0,0.0,0.0,0.0,0.0,0.0,0.0,0.0,0.0,0.0,0.0,0.0,0.0,0.0,0.0,0.0,0.0,0.0,0.0,0.0,0.0,0.0,0.0,0.0,0.0,0.0,0.0,0.0,0.0,0.0,0.0,0.0,0.0,0.0,0.0,0.0,0.0,0.0,0.0,0.0,0.0,0.0,0.0,0.0,0.0,0.0,0.0,0.0,0.0,0.0,0.0,0.0,0.0,0.0,0.0,0.0,0.0,0.0,0.0,0.0,0.0,0.0,0.0,0.0,0.0,0.0,0.0,0.0,0.0,0.0,0.0,0.0,0.0,0.0,0.0,0.0,0.0,0.0,0.0,0.0,0.0,0.0,0.0,0.0,0.0,0.0,0.0,0.0,0.0,0.0,0.0,0.0,0.0,0.0,0.0,0.0,0.0,0.0,0.0,0.0,0.0,0.0,0.0,0.0,0.0,0.0,0.0,0.0,0.0,0.0,0.0,0.0,0.0,0.0,0.0,0.0,0.0,0.0,0.0,0.0,0.0,0.0,0.0,0.0,0.0,0.0,0.0,0.0,0.0,0.0,0.0,0.0,0.0,0.0,0.0,0.0,0.0,0.0,0.0,0.0,0.0,0.0,0.0,0.0,0.0,0.0,0.0,0.0,0.0,0.0,0.0,0.0,0.0,0.0,0.0,0.0,0.0,0.0,0.0,0.0,0.0,0.0,0.0,0.0,0.0,0.0,0.0,0.0,0.0,0.0,0.0,0.0,0.0,0.0,0.0,0.0,0.0,0.0,0.0,0.0,0.0,0.0,0.0,0.0,0.0,0.0,0.0,0.0,0.0,0.0,0.0,0.0,0.0,0.0,0.0,0.0,0.0,0.0,0.0,0.0,0.0,0.0,0.0,0.0,0.0,0.0,0.0,0.0,0.0,0.0,0.0,0.0,0.0,0.0,0.0,0.0,0.0,0.0,0.0,0.0,0.0,0.0,0.0,0.0,0.0,0.0,0.0,0.0,0.0,0.0,0.0,0.0,0.0,0.0,0.0,0.0,0.0,0.0,0.0,0.0,0.0,0.0,0.0,0.0,0.0,0.0,0.0,0.0,0.0,0.0,0.0,0.0,0.0,0.0,0.0,0.0,0.0,0.0,0.0,0.0,0.0,0.0,0.0,0.0,0.0,0.0,0.0,0.0,0.0,0.0,0.0,0.0,0.0,0.0,0.0,0.0,0.0,0.0,0.0,0.0,0.0,0.0,0.0,0.0,0.0,0.0,0.0,0.0,0.0,0.0,0.0,0.0,0.0,0.0,0.0,0.0,0.0,0.0,0.0,0.0,0.0,0.0,0.0,0.0,0.0,0.0,0.0,0.0,0.0,0.0,0.0,0.0,0.0,0.0,0.0,0.0,0.0,0.0,0.0,0.0,0.0,0.0,0.0,0.0,0.0,0.0,0.0,0.0,0.0,0.0,0.0,0.0,0.0,0.0,0.0,0.0,0.0,0.0,0.0,0.0,0.0,0.0,0.0,0.0,0.0,0.0,0.0,0.0,0.0,0.0,0.0,0.0,0.0,0.0,0.0,0.0,0.0,0.0,0.0,0.0,0.0,0.0,0.0,0.0,0.0,0.0,0.0,0.0,0.0,0.0,0.0,0.0,0.0,0.0,0.0,0.0,0.0,0.0,0.0,0.0,0.0,0.0,0.0,0.0,0.0,0.0,0.0,0.0,0.0,0.0,0.0,0.0,0.0,0.0,0.0,0.0,0.0,0.0,0.0,0.0,0.0,0.0,0.0,0.0,0.0,0.0,0.0,0.0,0.0,0.0,0.0,0.0,0.0,0.0,0.0,0.0,0.0,0.0,0.0,0.0,0.0,0.0,0.0,0.0,0.0,0.0,0.0,0.0,0.0,0.0,0.0,0.0,0.0,0.0,0.0,0.0,0.0,0.0,0.0,0.0,0.0,0.0,0.0,0.0,0.0,0.0,0.0,0.0,0.0,0.0,0.0,0.0,0.0,0.0,0.0,0.0,0.0,0.0,0.0,0.0,0.0,0.0,0.0,0.0,0.0,0.0,0.0,0.0,0.0,0.0,0.0,0.0,0.0,0.0,0.0,0.0,0.0,0.0,0.0,0.0,0.0,0.0,0.0,0.0,0.0,0.0,0.0,0.0,0.0,0.0,0.0,0.0,0.0,0.0,0.0,0.0,0.0,0.0,0.0,0.0,0.0,0.0,0.0,0.0,0.0,0.0,0.0,0.0,0.0,0.0,0.0,0.0,0.0,0.0,0.0,0.0,0.0,0.0,0.0,0.0,0.0,0.0,0.0,0.0,0.0,0.0,0.0,0.0,0.0,0.0,0.0,0.0,0.0,0.0,0.0,0.0,0.0,0.0,0.0,0.0,0.0,0.0,0.0,0.0,0.0,0.0,0.0,0.0,0.0,0.0,0.0,0.0,0.0,0.0,0.0,0.0,0.0,0.0,0.0,0.0,0.0,0.0,0.0,0.0,0.0,0.0,0.0,0.0,0.0,0.0,0.0,0.0,0.0,0.0,0.0,0.0,0.0,0.0,0.0,0.0,0.0,0.0,0.0,0.0,0.0,0.0,0.0,0.0,0.0,0.0,0.0,0.0,0.0,0.0,0.0,0.0,0.0,0.0,0.0,0.0,0.0,0.0,0.0,0.0,0.0,0.0,0.0,0.0,0.0,0.0,0.0,0.0,0.0,0.0,0.0,0.0,0.0,0.0,0.0,0.0,0.0,0.0,0.0,0.0,0.0,0.0,0.0,0.0,0.0,0.0,0.0,0.0,0.0,0.0,0.0,0.0,0.0,0.0,0.0,0.0,0.0,0.0,0.0,0.0,0.0,0.0,0.0,0.0,0.0,0.0,0.0,0.0,0.0,0.0,0.0,0.0,0.0,0.0,0.0,0.0,0.0,0.0,0.0,0.0,0.0,0.0,0.0,0.0,0.0,0.0,0.0,0.0,0.0,0.0,0.0,0.0,0.0,0.0,0.0,0.0,0.0,0.0,0.0,0.0,0.0,0.0,0.0,0.0,0.0,0.0,0.0,0.0,0.0,0.0,0.0,0.0,0.0,0.0,0.0,0.0,0.0,0.0,0.0,0.0,0.0,0.0,0.0,0.0,0.0,0.0,0.0,0.0,0.0,0.0,0.0,0.0,0.0,0.0,0.0,0.0,0.0,0.0,0.0,0.0,0.0,0.0,0.0,0.0,0.0,0.0,0.0,0.0,0.0,0.0,0.0,0.0,0.0,0.0,0.0,0.0,0.0,0.0,0.0,0.0,0.0,0.0,0.0,0.0,0.0,0.0,0.0,0.0,0.0,0.0,0.0,0.0,0.0,0.0,0.0,0.0,0.0,0.0,0.0,0.0,0.0,0.0,0.0,0.0,0.0,0.0,0.0,0.0,0.0,0.0,0.0,0.0,0.0,0.0,0.0,0.0,0.0,0.0,0.0,0.0,0.0,0.0,0.0,0.0,0.0,0.0,0.0,0.0,0.0,0.0,0.0,0.0,0.0,0.0,0.0,0.0,0.0,0.0,0.0,0.0,0.0,0.0,0.0,0.0,0.0,0.0,0.0,0.0,0.0,0.0,0.0,0.0,0.0,0.0,0.0,0.0,0.0,0.0,0.0,0.0,0.0,0.0,0.0,0.0,0.0,0.0,0.0,0.0,0.0,0.0,0.0,0.0,0.0,0.0,0.0,0.0,0.0,0.0,0.0,0.0,0.0,0.0,0.0,0.0,0.0,0.0,0.0,0.0,0.0,0.0,0.0,0.0,0.0,0.0,0.0,0.0,0.0,0.0,0.0,0.0,0.0,0.0,0.0,0.0,0.0,0.0,0.0,0.0,0.0,0.0,0.0,0.0,0.0,0.0,0.0,0.0,0.0,0.0,0.0,0.0,0.0,0.0,0.0,0.0,0.0,0.0,0.0,0.0,0.0,0.0,0.0,0.0,0.0,0.0,0.0,0.0,0.0,0.0,0.0,0.0,0.0,0.0,0.0,0.0,0.0,0.0,0.0,0.0,0.0,0.0,0.0,0.0,0.0,0.0,0.0,0.0,0.0,0.0,0.0,0.0,0.0,0.0,0.0,0.0,0.0,0.0,0.0,0.0,0.0,0.0,0.0,0.0,0.0,0.0,0.0,0.0,0.0,0.0,0.0,0.0,0.0,0.0,0.0,0.0,0.0,0.0,0.0,0.0,0.0,0.0,0.0,0.0,0.0,0.0,0.0,0.0,0.0,0.0,0.0,0.0,0.0,0.0,0.0,0.0,0.0,0.0,0.0,0.0,0.0,0.0,0.0,0.0,0.0,0.0,0.0,0.0,0.0,0.0,0.0,0.0,0.0,0.0,0.0,0.0,0.0,0.0,0.0,0.0,0.0,0.0,0.0,0.0,0.0,0.0,0.0,0.0,0.0,0.0,0.0,0.0,0.0,0.0,0.0,0.0,0.0,0.0,0.0,0.0,0.0,0.0,0.0,0.0,0.0,0.0,0.0,0.0,0.0,0.0,0.0,0.0,0.0,0.0,0.0,0.0,0.0,0.0,0.0,0.0,0.0,0.0,0.0,0.0,0.0,0.0,0.0,0.0,0.0,0.0,0.0,0.0,0.0,0.0,0.0,0.0,0.0,0.0,0.0,0.0,0.0,0.0,0.0,0.0,-0.4425,0.0,0.0,0.0,0.0,0.0,0.0,0.0,0.0,0.0,0.0,0.0,0.0,0.0,0.0,0.0,0.0,0.0,0.0,0.0,0.0,0.0,0.0,0.0,0.0,0.0,0.0,0.0,0.0,0.0,0.0,0.0,0.0,0.0,0.0,0.0,0.0,0.0,0.0,0.0,-0.8652,-0.9192,-0.9957,-0.9556,-0.9179,-0.8839,0.0,0.0,0.0,0.0,0.0,0.0,0.0,0.0,0.0,0.0,0.0,0.0,0.0,0.0,0.0,0.0,0.0,0.0,0.0,0.0,0.0,0.0,0.0,0.0,0.0,0.0,0.0,0.0,0.0,0.0,0.0,0.0,0.0,0.0,0.0,0.0,0.0,0.0,0.0,0.0,0.0,0.0,0.0,0.0,0.0,0.0,0.0,0.0,0.0,0.0,0.0,0.0,0.0,0.0,0.0,0.0,0.0,0.0,0.0,0.0,0.0,0.0,0.0,0.0,0.0,0.0,0.0,0.0,0.0,0.0,0.0,-0.5162,0.0,0.0,0.0,0.0,0.0,0.0,0.0,0.0,0.0,0.0,0.0,0.0,0.0,0.0,0.0,0.0,0.0,0.0,0.0,0.0,0.0,0.0,0.0,0.0,-0.7044,-0.7527,-0.7671,0.0,0.0,0.0,0.0,0.0,0.0,0.0,0.0,0.0,0.0,0.0,-0.9861,-1.0431,-1.1394,-1.1813,-1.123,-0.9819,-0.955,0.0,0.0,0.0,0.0,0.0,0.0,0.0,0.0,0.0,0.0,0.0,0.0,0.0,0.0,0.0,0.0,0.0,0.0,0.0,0.0,0.0,0.0,0.0,0.0,0.0,0.0,0.0,0.0,0.0,0.0,0.0,0.0,0.0,0.0,0.0,0.0,0.0,0.0,0.0,0.0,0.0,0.0,0.0,0.0,0.0,0.0,0.0,0.0,0.0,0.0,0.0,0.0,0.0,0.0,0.0,0.0,0.0,0.0,0.0,0.0,0.0,0.0,0.0,-0.6756,-0.7114,-0.7709,-0.7871,-0.795,-0.7958,-0.7156,-0.6671,-0.6443,0.0,0.0,0.0,0.0,0.0,0.0,0.0,0.0,0.0,0.0,0.0,0.0,0.0,0.0,0.0,0.0,0.0,0.0,0.0,0.0,0.0,0.0,-0.8355,-0.9063,-0.9028,-0.9546,-0.9889,0.0,0.0,0.0,0.0,0.0,0.0,0.0,-0.9508,-0.9985,-1.1062,-1.1981,-1.2691,-1.3228,-1.3252,-1.3383,-1.354,-1.2426,-1.1603,-1.1042,0.0,0.0,0.0,0.0,0.0,0.0,0.0,0.0,0.0,0.0,0.0,0.0,0.0,0.0,0.0,0.0,0.0,0.0,0.0,0.0,0.0,0.0,0.0,0.0,0.0,0.0,0.0,0.0,0.0,0.0,0.0,0.0,0.0,0.0,0.0,0.0,0.0,0.0,0.0,0.0,0.0,-0.4232,-0.3797,0.0,0.0,0.0,0.0,0.0,0.0,0.0,0.0,0.0,0.0,0.0,0.0,0.0,-0.6395,-0.6786,-0.7001,-0.7304,-0.7594,-0.7972,-0.8399,-0.8817,-0.9154,-0.9444,-0.9625,-0.9555,0.0,-0.7777,-0.8049,0.0,0.0,0.0,0.0,0.0,0.0,0.0,0.0,0.0,0.0,0.0,0.0,0.0,0.0,0.0,0.0,0.0,0.0,0.0,0.0,0.0,-0.9135,-0.9604,-0.9892,-1.0158,-1.0264,-1.0211,0.0,0.0,0.0,0.0,0.0,-1.0755,-1.0743,-1.1429,-1.2872,-1.3657,-1.4226,-1.4603,-1.496,-1.5195,-1.5291,-1.4728,-1.3749,-1.2519,-1.2234,0.0,0.0,0.0,0.0,0.0,0.0,0.0,0.0,0.0,0.0,0.0,0.0,0.0,0.0,0.0,0.0,0.0,0.0,0.0,0.0,0.0,0.0,0.0,0.0,0.0,0.0,0.0,0.0,0.0,0.0,0.0,0.0,0.0,0.0,0.0,0.0,0.0,0.0,0.0,-0.5077,-0.4951,-0.4881,-0.4793,-0.4769,0.0,0.0,0.0,0.0,0.0,0.0,0.0,0.0,0.0,-0.6977,-0.7263,-0.7672,-0.8149,-0.841,-0.8727,-0.9234,-0.9412,-0.967,-1.0077,-1.0261,-1.0378,-1.0444,-1.0651,-1.0432,-0.9927,-0.9388,-0.9028,-0.8819,0.0,0.0,0.0,0.0,-0.8769,-0.8769,0.0,0.0,0.0,0.0,0.0,0.0,0.0,0.0,0.0,0.0,0.0,0.0,-0.9412,-0.9837,-1.0288,-1.0923,-1.1022,-1.1137,-1.1256,-1.1174,0.0,0.0,0.0,-1.129,-1.2085,-1.239,-1.3113,-1.4341,-1.5173,-1.5786,-1.6158,-1.6794,-1.7068,-1.7066,-1.7027,-1.5942,-1.4097,-1.3839,-1.3105,-1.2043,0.0,0.0,0.0,0.0,0.0,0.0,0.0,0.0,0.0,0.0,0.0,0.0,0.0,0.0,0.0,0.0,0.0,0.0,0.0,0.0,0.0,0.0,0.0,0.0,0.0,0.0,0.0,0.0,0.0,0.0,0.0,0.0,0.0,0.0,0.0,0.0,0.0,-0.5935,-0.5901,-0.6008,-0.5933,-0.5864,0.0,0.0,0.0,0.0,0.0,0.0,-0.7079,-0.76,-0.8086,-0.8398,-0.8583,-0.9024,-0.9548,-0.9813,-1.0171,-1.0703,-1.0779,-1.0994,-1.1417,-1.1488,-1.1527,-1.167,-1.1813,-1.1915,-1.1914,-1.0679,-1.0157,-1.0007,-0.9904,-0.9877,-0.9895,-0.9834,-0.9859,-0.9859,0.0,0.0,0.0,0.0,0.0,0.0,0.0,0.0,0.0,0.0,0.0,-0.9588,-0.9602,-1.0736,-1.1757,-1.2434,-1.2885,-1.3439,-1.414,-1.4014,-1.387,-1.3806,-1.3718,-1.364,-1.3487,-1.4485,-1.5018,-1.4937,-1.671,-1.7768,-1.8193,-1.8699,-1.9182,-1.9601,-1.9554,-1.8208,-1.5906,-1.5206,-1.4533,-1.3885,-1.3178,0.0,0.0,0.0,0.0,0.0,0.0,0.0,0.0,0.0,0.0,0.0,0.0,0.0,0.0,0.0,0.0,0.0,0.0,0.0,0.0,0.0,0.0,0.0,0.0,0.0,0.0,0.0,0.0,0.0,0.0,0.0,0.0,0.0,0.0,0.0,0.0,0.0,0.0,-0.7115,-0.729,0.0,0.0,0.0,0.0,-0.7466,-0.8063,-0.8498,-0.867,-0.9244,-0.9707,-0.997,-1.012,-1.0454,-1.1003,-1.1236,-1.1454,-1.1729,-1.1992,-1.2355,-1.2685,-1.2966,-1.3335,-1.374,-1.374,-1.3572,-1.3222,-1.2081,-1.1531,-1.1523,-1.1509,-1.1319,-1.1051,-1.1224,-1.1286,-1.1286,0.0,0.0,0.0,0.0,0.0,0.0,0.0,0.0,0.0,-0.816,-0.9117,-1.0043,-1.0913,-1.1785,-1.2581,-1.3259,-1.3816,-1.4216,-1.439,-1.4295,-1.4151,-1.4004,-1.3979,-1.4221,-1.4814,-1.6003,-1.6872,-1.7448,-1.8081,-1.8725,-1.9391,-1.957,-1.9718,-1.9717,-1.9628,-1.9098,-1.8205,-1.7182,-1.6302,-1.5565,-1.4562,-1.3651,0.0,0.0,0.0,0.0,0.0,0.0,0.0,0.0,0.0,0.0,0.0,0.0,0.0,0.0,0.0,0.0,0.0,0.0,0.0,0.0,0.0,0.0,0.0,0.0,0.0,0.0,0.0,0.0,0.0,0.0,0.0,0.0,0.0,0.0,0.0,0.0,0.0,-0.8517,-0.8515,0.0,0.0,-0.8765,-0.8824,-0.8967,-0.9418,-0.9808,-1.0079,-1.0566,-1.0912,-1.119,-1.1512,-1.1851,-1.2208,-1.2625,-1.2932,-1.311,-1.3219,-1.3447,-1.3798,-1.3822,-1.4142,-1.4501,-1.4501,-1.4325,-1.4173,-1.3754,-1.3128,-1.2487,-1.2628,-1.2557,-1.2457,-1.2666,-1.2735,-1.2713,0.0,0.0,0.0,0.0,0.0,0.0,0.0,0.0,-0.7194,-0.8878,-0.9669,-1.0614,-1.2022,-1.2729,-1.3477,-1.4335,-1.4724,-1.4971,-1.5077,-1.5003,-1.4903,-1.4714,-1.4849,-1.5291,-1.6155,-1.7401,-1.8274,-1.8803,-1.943,-2.0062,-2.0678,-2.0826,-2.0896,-2.0941,-2.0772,-2.0677,-2.0515,-1.9448,-1.8243,-1.6995,-1.5956,-1.516,-1.4501,0.0,0.0,0.0,0.0,0.0,0.0,0.0,0.0,0.0,0.0,0.0,0.0,0.0,0.0,0.0,0.0,0.0,0.0,0.0,0.0,0.0,0.0,0.0,0.0,0.0,0.0,0.0,0.0,0.0,0.0,0.0,0.0,0.0,0.0,0.0,-0.937,-0.9875,-0.9896,-0.9926,-1.023,-1.0249,-1.0361,-1.0454,-1.0863,-1.1279,-1.1572,-1.2012,-1.233,-1.2523,-1.2893,-1.325,-1.3509,-1.3978,-1.426,-1.4529,-1.4529,-1.4641,-1.4831,-1.4831,-1.5113,-1.5483,-1.5483,-1.5452,-1.5416,-1.5416,-1.5035,-1.4343,-1.3906,-1.3806,-1.3888,-1.3963,-1.4044,-1.4007,0.0,0.0,0.0,0.0,0.0,0.0,0.0,-0.6647,-0.7404,-0.9646,-1.0439,-1.1351,-1.2777,-1.3534,-1.4438,-1.5695,-1.5685,-1.5861,-1.6378,-1.6344,-1.6292,-1.6157,-1.6533,-1.7022,-1.7541,-1.8723,-1.9197,-1.8888,-2.0713,-2.1758,-2.2033,-2.2505,-2.2949,-2.3398,-2.3136,-2.2924,-2.2738,-2.1891,-2.0293,-1.8258,-1.7398,-1.6731,-1.6125,0.0,0.0,0.0,0.0,0.0,0.0,0.0,0.0,0.0,0.0,0.0,0.0,0.0,0.0,0.0,0.0,0.0,0.0,0.0,0.0,0.0,0.0,0.0,0.0,0.0,0.0,0.0,0.0,0.0,0.0,0.0,0.0,0.0,-1.0659,-1.0391,-1.047,-1.1093,-1.1261,-1.134,-1.1338,-1.1634,-1.1874,-1.204,-1.2476,-1.2926,-1.3244,-1.3698,-1.3944,-1.3966,-1.4174,-1.4468,-1.4853,-1.5162,-1.5465,-1.5754,-1.5754,-1.585,-1.6042,-1.6042,-1.6315,-1.6861,-1.6861,-1.6934,-1.7087,-1.7087,-1.7079,-1.6942,-1.5476,-1.497,-1.5133,-1.5126,-1.511,-1.5087,0.0,0.0,0.0,0.0,0.0,0.0,0.0,-0.6639,-0.7584,-1.0339,-1.0799,-1.1613,-1.3571,-1.4341,-1.5032,-1.587,-1.6312,-1.6553,-1.6528,-1.6877,-1.7219,-1.7456,-1.7997,-1.8527,-1.9025,-1.973,-2.0421,-2.1122,-2.1871,-2.2409,-2.2658,-2.3142,-2.3259,-2.3083,-2.2924,-2.2777,-2.2603,-2.215,-2.1548,-2.0914,-1.9381,-1.8144,-1.7183,0.0,0.0,0.0,0.0,0.0,0.0,0.0,0.0,0.0,0.0,0.0,0.0,0.0,0.0,0.0,0.0,0.0,0.0,0.0,0.0,0.0,0.0,0.0,0.0,0.0,0.0,0.0,0.0,0.0,0.0,0.0,0.0,-1.1884,-1.0877,-1.1447,-1.1972,-1.1943,-1.2247,-1.2557,-1.2904,-1.2821,-1.2945,-1.3335,-1.353,-1.381,-1.4342,-1.4447,-1.4782,-1.5233,-1.5418,-1.559,-1.5682,-1.6119,-1.6389,-1.6477,-1.6639,-1.6847,-1.7176,-1.7176,-1.7394,-1.772,-1.772,-1.7667,-1.7438,-1.7438,-1.7389,-1.7311,-1.6667,-1.6514,-1.6492,-1.6263,-1.5866,-1.5438,0.0,0.0,0.0,0.0,0.0,0.0,0.0,-0.6639,-0.7544,-1.0185,-1.0777,-1.1628,-1.3442,-1.4476,-1.531,-1.5933,-1.6579,-1.6853,-1.6623,-1.7077,-1.7698,-1.848,-1.9049,-1.9592,-2.005,-2.0803,-2.1559,-2.2381,-2.2732,-2.322,-2.3761,-2.3903,-2.3929,-2.3824,-2.366,-2.3453,-2.3231,-2.2881,-2.2501,-2.2094,-2.0964,-1.9763,-1.8481,-1.7422,-1.6697,-1.6058,-1.5041,-1.4274,-1.3651,-1.2913,0.0,0.0,0.0,0.0,0.0,0.0,0.0,0.0,0.0,0.0,0.0,0.0,0.0,0.0,0.0,0.0,0.0,0.0,0.0,0.0,0.0,0.0,0.0,0.0,-1.2529,-1.2757,-1.2203,-1.2617,-1.306,-1.3247,-1.3392,-1.3689,-1.4134,-1.4037,-1.4234,-1.4809,-1.478,-1.5138,-1.5689,-1.5726,-1.5893,-1.6271,-1.6506,-1.6669,-1.6669,-1.7079,-1.7402,-1.7538,-1.7713,-1.7888,-1.8216,-1.8216,-1.8417,0.0,-1.855,-1.8466,-1.8364,-1.8125,-1.8045,0.0,0.0,0.0,0.0,0.0,-1.6884,-1.6542,0.0,0.0,0.0,0.0,0.0,0.0,0.0,-0.6597,-0.7369,-0.9497,-1.0503,-1.1509,-1.2866,-1.4193,-1.5256,-1.5956,-1.6548,-1.6863,-1.6844,-1.7205,-1.8006,-1.9269,-1.9836,-2.0358,-2.0797,-2.1821,-2.257,-2.3051,-2.3425,-2.4113,-2.5033,-2.4732,-2.4723,-2.4948,-2.4734,-2.439,-2.4067,-2.3747,-2.3157,-2.2339,-2.2114,-2.1188,-1.9683,-1.8413,-1.7591,-1.6947,-1.6357,-1.5644,-1.494,-1.4193,0.0,0.0,0.0,0.0,0.0,0.0,0.0,0.0,0.0,0.0,0.0,0.0,0.0,0.0,0.0,0.0,0.0,0.0,0.0,0.0,0.0,0.0,0.0,0.0,-1.3279,-1.3825,-1.4111,-1.4028,-1.4081,-1.4609,-1.4568,-1.4727,-1.515,-1.5242,-1.5533,-1.6095,-1.6179,-1.6476,-1.7094,0.0,0.0,0.0,0.0,-1.769,-1.769,-1.8118,-1.8448,-1.8747,-1.8747,-1.89,-1.9192,-1.9192,-1.929,-1.956,-1.9247,-1.9225,-1.9407,-1.9074,-1.8923,-1.8827,-1.799,-1.7699,-1.7834,-1.7834,-1.7803,-1.7771,0.0,0.0,0.0,0.0,0.0,0.0,0.0,-0.6307,-0.7247,-0.8806,-1.0169,-1.1524,-1.292,-1.3807,-1.48,-1.6046,-1.6175,-1.6786,-1.8187,-1.8322,-1.8874,-2.0042,-2.0681,-2.1225,-2.1573,-2.2263,-2.3065,-2.395,-2.4216,-2.464,-2.5152,-2.5244,-2.5148,-2.4835,-2.4677,-2.4332,-2.3949,-2.3688,-2.3327,-2.2877,-2.2026,-2.1072,-1.9998,-1.9085,-1.8413,-1.787,-1.7061,-1.6127,-1.5182,-1.4933,-1.3962,-1.281,-1.2688,-1.1748,0.0,0.0,0.0,0.0,0.0,0.0,0.0,0.0,0.0,0.0,0.0,0.0,0.0,0.0,0.0,0.0,0.0,0.0,0.0,-1.333,-1.4453,-1.5386,-1.5463,-1.577,-1.5707,-1.4912,-1.5372,-1.5734,-1.5771,-1.5963,-1.6214,-1.6469,-1.6736,-1.7056,-1.7461,-1.7476,0.0,-1.788,-1.8224,-1.8399,-1.8399,-1.892,-1.9217,-1.9287,0.0,0.0,-1.9771,-1.9771,-1.9771,-1.986,-1.9789,-1.9765,-1.9765,-1.9693,-1.9503,-1.9225,-1.8703,-1.8454,-1.82,-1.82,-1.8017,-1.7771,0.0,0.0,0.0,0.0,0.0,0.0,0.0,-0.6229,-0.7096,-0.8158,-0.9589,-1.0901,-1.194,-1.2951,-1.3982,-1.5063,-1.5684,-1.6804,-1.8683,-1.8724,-1.9186,-2.0345,-2.1291,-2.185,-2.1901,-2.272,-2.3658,-2.4687,-2.4626,-2.4977,-2.5777,-2.5563,-2.5257,-2.4892,-2.4677,-2.4274,-2.376,-2.3569,-2.3271,-2.2823,-2.2201,-2.1269,-2.0241,-1.9424,-1.8946,-1.8507,-1.7524,-1.6781,-1.6138,-1.5387,-1.4482,-1.3608,-1.3053,-1.2278,-1.148,0.0,0.0,0.0,0.0,0.0,0.0,0.0,0.0,0.0,0.0,0.0,0.0,0.0,0.0,-1.1895,0.0,0.0,-1.3821,-1.453,-1.53,-1.5934,-1.631,-1.6757,-1.6818,-1.6163,-1.6283,-1.6553,-1.669,-1.6889,-1.7122,-1.7399,-1.7585,-1.7835,-1.8177,-1.8364,-1.8543,-1.8722,-1.905,-1.9221,-1.9221,-1.9587,-1.976,-1.9933,-2.013,-2.0325,-2.0592,-2.0592,-2.0684,-2.0775,-2.0597,-2.0516,-2.05,-2.033,-2.0168,-1.9973,-1.9601,-1.9052,-1.8565,-1.8565,-1.8454,-1.8295,0.0,0.0,0.0,0.0,0.0,0.0,0.0,0.0,-0.6749,-0.7491,-0.8869,-1.0025,-1.072,-1.1992,-1.3145,-1.4015,-1.5261,-1.6701,-1.8399,-1.8638,-1.9216,-2.0311,-2.1626,-2.224,-2.2071,-2.3103,-2.4179,-2.525,-2.4834,-2.5236,-2.6286,-2.5757,-2.5369,-2.5005,-2.4664,-2.4203,-2.3569,-2.339,-2.3103,-2.2604,-2.2127,-2.1331,-2.0322,-1.9412,-1.8997,-1.8788,-1.7764,-1.7194,-1.6766,-1.5609,-1.4805,-1.4122,-1.3313,-1.2696,-1.2195,-1.1743,-1.1267,0.0,0.0,0.0,0.0,0.0,0.0,0.0,0.0,0.0,-1.1259,-1.2012,-1.2166,-1.2436,-1.3545,-1.3793,-1.4273,-1.5591,-1.5925,-1.6259,-1.6935,-1.7346,-1.7533,-1.746,-1.7301,-1.7284,-1.7619,-1.7798,-1.8037,-1.8434,-1.8546,-1.8739,-1.8999,-1.9303,-1.9494,-1.9566,-1.9894,-2.0061,-2.0061,-2.0231,-2.0408,-2.0696,-2.0696,-2.0942,-2.142,-2.142,-2.1522,-2.1709,-2.1412,-2.1279,-2.1255,-2.0908,-2.0759,-2.0726,-2.0355,-1.9703,-1.9015,-1.8944,-1.892,-1.892,0.0,0.0,0.0,0.0,0.0,0.0,0.0,0.0,0.0,-0.6723,-0.8061,-0.9212,-0.9935,-1.1259,-1.2621,-1.391,-1.5239,-1.6322,-1.7059,-1.8171,-1.9086,-1.9767,-2.1577,-2.2468,-2.2248,-2.3381,-2.4431,-2.5408,-2.5091,-2.5402,-2.6286,-2.5893,-2.5453,-2.5005,-2.4523,-2.4073,-2.3569,-2.3258,-2.2836,-2.2372,-2.1414,-2.0789,-2.0217,-1.8857,-1.8272,-1.8153,-1.7655,-1.6891,-1.5983,-1.568,-1.4793,-1.381,-1.3606,-1.3088,-1.2494,-1.2194,0.0,-1.1135,-1.0978,-1.104,-1.1102,-1.1091,-1.1523,-1.2006,0.0,0.0,-1.259,-1.3412,-1.345,-1.3571,-1.4401,-1.4812,-1.5197,-1.572,-1.6362,-1.6935,-1.7346,-1.7732,-1.8091,-1.8425,-1.8311,-1.8096,-1.8004,-1.8514,-1.8847,-1.8929,-1.9241,-1.9578,-1.9923,-1.98,-1.9789,-2.0216,-2.0548,-2.0727,-2.0727,-2.1244,-2.1525,-2.1566,-2.1566,-2.1582,-2.1623,-2.1623,-2.1623,-2.1717,-2.1676,-2.1667,-2.1634,-2.1271,-2.1123,-2.1081,-2.0735,-2.0371,-1.9906,-1.9602,-1.9387,-1.9188,0.0,0.0,0.0,0.0,0.0,0.0,0.0,0.0,0.0,0.0,-0.7585,-0.8656,-0.9836,-1.1172,-1.2373,-1.3338,-1.4668,-1.5899,-1.6894,-1.823,-1.919,-1.9688,-2.1277,-2.2181,-2.2286,-2.3081,-2.3945,-2.4908,-2.4614,-2.4936,-2.5902,-2.5359,-2.5067,-2.5005,-2.4523,-2.4015,-2.3437,-2.2799,-2.2246,-2.1717,-2.0712,-1.9958,-1.9295,-1.8411,-1.761,-1.6961,-1.6874,-1.645,0.0,-1.5129,-1.4485,-1.3983,-1.3484,-1.3127,-1.2835,-1.2464,-1.2349,0.0,-1.2314,-1.2355,0.0,0.0,-1.2636,-1.3046,-1.3286,-1.3584,-1.3959,-1.4381,-1.436,-1.4469,-1.4889,-1.53,-1.5754,0.0,-1.6893,-1.7372,-1.7749,-1.7937,-1.8168,-1.8545,-1.8709,-1.8846,-1.8799,-1.91,-1.9287,-1.9331,-1.9497,-1.9736,-2.0083,-2.0219,-2.0498,-2.0851,-2.1113,-2.1293,-2.1293,-2.155,-2.1725,-2.1725,-2.1725,-2.1827,-2.192,-2.192,-2.203,-2.2241,-2.2241,-2.2241,-2.2224,-2.2063,-2.2004,-2.197,-2.1607,-2.1371,-2.1055,-2.0193,-1.966,-1.9387,0.0,0.0,0.0,0.0,0.0,0.0,0.0,0.0,0.0,0.0,-0.7037,-0.8126,-0.9811,-1.0853,-1.1776,-1.2652,-1.3831,-1.5076,-1.6362,-1.7732,-1.8812,-1.945,-2.0794,-2.171,-2.2084,-2.2793,-2.3557,-2.4343,-2.419,-2.4538,-2.5293,-2.4765,-2.4528,-2.4503,-2.3987,-2.3488,-2.2908,-2.2085,-2.1504,-2.0973,-1.9948,-1.9022,-1.825,-1.7617,-1.6738,-1.5892,-1.6052,-1.5871,-1.5405,-1.4521,-1.4111,-1.3908,-1.3272,-1.3164,-1.3155,-1.275,-1.2884,-1.3175,-1.3267,0.0,0.0,-1.3467,-1.3771,-1.4163,-1.4459,-1.4746,-1.4988,-1.5112,-1.5068,-1.5123,-1.5309,-1.5608,0.0,-1.6798,-1.7141,-1.7483,-1.7971,-1.8126,-1.8323,-1.8708,-1.9093,-1.9391,-1.9669,-1.9614,-1.9732,-1.9837,-1.9862,-2.007,-2.042,-2.0804,-2.1072,-2.1412,-2.1686,-2.1827,-2.1827,-2.1928,-2.1928,-2.1928,-2.1928,-2.203,-2.2232,-2.2232,-2.2333,-2.2644,-2.2644,-2.2644,-2.2644,-2.2644,-2.2644,-2.2518,-2.2252,-2.209,-2.1927,-2.0987,-2.0304,-1.9803,0.0,0.0,0.0,0.0,0.0,0.0,0.0,0.0,0.0,0.0,0.0,0.0,0.0,-0.9968,-1.0513,-1.1909,-1.2668,-1.3648,-1.4978,-1.6314,-1.7615,-1.8866,-2.0147,-2.107,-2.1635,-2.2717,-2.3437,-2.3726,-2.4149,-2.4493,-2.4603,-2.4204,-2.3747,-2.3241,-2.2724,-2.2195,-2.1686,-2.1099,-2.0586,-2.003,-1.8953,-1.8046,-1.7202,-1.6164,-1.5486,-1.508,-1.5525,-1.5068,-1.4205,-1.4003,-1.36,-1.3238,-1.3123,-1.3263,0.0,-1.317,-1.3159,-1.3277,0.0,0.0,-1.4478,-1.4478,-1.5056,-1.5634,-1.5652,-1.5533,-1.5521,-1.5641,-1.5604,-1.554,-1.5711,-1.5788,-1.6045,-1.6798,-1.6927,-1.7192,-1.7937,-1.8348,-1.8716,-1.911,-1.9495,-1.9872,0.0,-2.0275,-2.0275,-2.0292,-2.0643,-2.102,-2.1371,-2.1472,-2.1753,-2.2097,-2.2114,-2.2131,-2.2131,-2.2443,-2.2544,-2.2544,-2.2544,-2.2544,-2.2544,-2.2544,-2.2544,-2.2644,-2.2644,-2.2644,-2.2644,-2.2644,-2.2644,-2.2644,-2.2636,-2.2312,-2.1996,-2.197,-2.1289,-2.0407,0.0,0.0,0.0,0.0,0.0,0.0,0.0,0.0,0.0,0.0,0.0,0.0,0.0,0.0,0.0,0.0,0.0,-1.3174,-1.359,-1.5769,-1.721,-1.7476,-1.8869,-1.9988,-2.0871,-2.1146,-2.1734,-2.2566,-2.2521,-2.2613,-2.2828,-2.2734,-2.2671,-2.2617,-2.2445,-2.2089,-2.1486,-2.0323,-1.9461,-1.8885,-1.7554,-1.6649,-1.5956,-1.533,-1.4631,-1.3999,0.0,-1.3999,-1.3791,-1.3372,-1.3076,-1.2861,-1.2725,-1.2965,-1.3303,-1.365,-1.3942,-1.4157,0.0,0.0,-1.5294,-1.5294,-1.5698,-1.6111,-1.6111,-1.6236,-1.6397,-1.6111,-1.6078,-1.5983,-1.585,-1.5994,-1.6233,-1.649,-1.6953,-1.7372,-1.762,-1.8194,-1.8733,-1.9127,-1.9513,0.0,0.0,0.0,0.0,-2.0292,-2.066,-2.1037,-2.1388,-2.1693,-2.2068,-2.2426,-2.2443,-2.2443,-2.2443,-2.2544,-2.2644,-2.2552,-2.28,-2.2929,-2.2929,-2.2929,-2.2929,-2.2912,-2.2655,-2.2644,-2.2644,-2.2644,-2.2644,-2.2644,-2.2644,-2.2475,-2.2329,-2.209,-2.1833,-2.1428,0.0,0.0,0.0,0.0,0.0,0.0,0.0,0.0,0.0,0.0,0.0,0.0,0.0,0.0,0.0,0.0,0.0,0.0,-1.2858,-1.4581,-1.5852,-1.6431,-1.7583,-1.8577,-1.9372,-1.9789,-2.0424,-2.128,-2.1201,-2.1329,-2.157,-2.1492,-2.1398,-2.1307,-2.1202,-2.0811,-2.0145,-1.9034,-1.8215,-1.7571,-1.6405,-1.5495,-1.4681,-1.4287,-1.3571,0.0,-1.257,-1.2705,-1.2909,-1.2812,-1.2676,-1.2656,-1.27,-1.3077,-1.3594,-1.4257,-1.4565,-1.4808,0.0,-1.5606,-1.5909,-1.5909,-1.623,-1.6523,-1.6523,-1.6656,-1.6645,-1.6225,-1.6069,-1.5895,-1.5498,-1.5694,-1.5977,-1.6122,-1.6781,-1.7321,-1.7449,-1.8117,-1.8733,-1.9127,-1.9513,0.0,0.0,0.0,0.0,-2.0497,-2.0848,-2.1234,-2.1602,-2.1987,-2.2304,-2.2544,-2.2644,-2.2644,-2.2644,-2.2644,-2.2612,-2.2758,-2.3134,-2.3306,-2.3306,-2.3306,-2.3314,-2.3297,-2.292,-2.2749,-2.274,-2.2603,-2.2644,-2.2644,-2.2644,-2.2644,-2.2619,-2.2278,-2.2107,-2.191,0.0,0.0,0.0,0.0,0.0,0.0,0.0,0.0,0.0,0.0,0.0,0.0,0.0,0.0,0.0,0.0,0.0,0.0,-1.2613,-1.2824,-1.3722,-1.5567,-1.631,-1.6881,-1.7301,-1.8625,-1.9489,-1.9854,-2.0235,-2.0557,-2.0799,-2.0358,-1.9905,-1.9425,-1.8975,-1.8498,-1.7842,-1.7328,-1.6732,-1.6098,-1.5509,-1.4503,-1.3375,-1.2956,-1.2229,-1.1441,-1.1176,-1.1268,-1.1592,0.0,0.0,0.0,0.0,-1.3584,-1.4248,-1.4924,-1.5129,-1.5239,-1.5615,-1.6028,-1.6349,-1.6349,-1.6633,-1.6908,-1.6908,-1.6742,-1.6399,-1.5895,-1.5613,-1.5297,0.0,0.0,-1.5317,-1.5711,-1.6388,-1.6995,-1.7381,-1.8083,-1.8708,0.0,0.0,0.0,0.0,0.0,0.0,-2.0908,0.0,-2.1602,-2.1978,-2.2347,-2.2644,-2.2644,-2.2644,-2.2644,-2.2644,-2.267,-2.2766,-2.3151,-2.352,-2.3691,-2.3691,-2.3691,-2.3708,-2.3708,-2.3314,-2.3143,-2.3109,-2.2732,-2.2679,-2.2578,-2.2653,-2.2644,-2.2644,-2.2644,-2.2329,-2.197,0.0,0.0,0.0,0.0,0.0,0.0,0.0,0.0,0.0,0.0,0.0,0.0,0.0,0.0,0.0,0.0,0.0,0.0,-1.0483,-1.2023,-1.3057,-1.3403,-1.4585,-1.5439,-1.591,-1.6701,-1.733,-1.7774,-1.8164,-1.8313,-1.8187,-1.8191,-1.7979,-1.7531,-1.756,-1.7242,-1.6589,-1.5644,-1.4991,-1.4417,-1.3491,-1.2768,-1.2198,-1.175,-1.1356,-1.1034,-1.0767,0.0,0.0,0.0,0.0,0.0,0.0,-1.3811,-1.451,-1.4955,-1.5533,-1.6028,-1.6129,-1.645,-1.6762,-1.6762,-1.6835,-1.6908,-1.6908,-1.6542,-1.6161,-1.5842,-1.5393,-1.4967,0.0,0.0,0.0,-1.53,-1.5771,0.0,-1.697,-1.7706,0.0,0.0,0.0,-2.0236,-2.0782,-2.1186,0.0,0.0,-2.1724,-2.1893,-2.1996,-2.2347,-2.2644,-2.2644,-2.2644,-2.2644,-2.2644,-2.2826,-2.316,-2.3528,-2.3905,-2.4085,-2.4085,-2.4085,-2.4093,-2.4076,-2.3691,-2.3528,-2.3494,-2.3126,-2.2972,-2.2937,-2.2655,-2.2644,-2.2644,-2.2644,-2.2584,-2.2389,0.0,0.0,0.0,0.0,0.0,0.0,0.0,0.0,0.0,0.0,0.0,0.0,0.0,0.0,0.0,0.0,0.0,0.0,0.0,-1.0813,-1.1513,-1.1677,-1.2995,-1.3826,-1.4038,-1.4922,-1.5614,-1.6078,-1.6472,-1.6696,-1.6661,-1.6895,-1.6775,-1.6353,-1.6257,-1.5904,-1.5313,-1.4458,-1.3826,0.0,0.0,-1.1842,-1.1299,-1.0903,-1.049,-1.0121,0.0,0.0,0.0,0.0,0.0,-1.293,-1.3168,-1.3917,-1.4845,-1.5249,0.0,-1.6358,-1.6532,-1.6734,-1.6908,-1.6908,-1.6908,-1.6862,-1.662,-1.6265,-1.5757,-1.5092,-1.4554,0.0,0.0,0.0,0.0,0.0,0.0,0.0,-1.6584,-1.7312,-1.8207,0.0,-1.9695,0.0,-2.0944,-2.1511,-2.1852,0.0,-2.2065,-2.2163,-2.2227,-2.2432,-2.2644,-2.2644,-2.2644,-2.2629,-2.2792,-2.334,-2.3708,-2.3922,-2.4307,-2.4487,-2.4487,-2.4487,-2.4487,-2.447,0.0,-2.3913,-2.3888,-2.3511,-2.3263,-2.3091,-2.2877,-2.2689,-2.2644,-2.2644,-2.2644,-2.2644,0.0,0.0,0.0,0.0,0.0,0.0,0.0,0.0,0.0,0.0,0.0,0.0,0.0,0.0,0.0,0.0,0.0,0.0,0.0,0.0,0.0,-1.0336,-1.1555,-1.2203,-1.2127,-1.3297,-1.4139,-1.4607,0.0,-1.5373,-1.5627,-1.5823,-1.5694,-1.5282,-1.482,-1.435,-1.379,-1.3281,-1.2711,-1.2151,-1.1736,-1.1099,-1.0368,0.0,-0.9681,0.0,0.0,0.0,0.0,0.0,-1.1831,-1.3068,-1.3068,-1.4041,-1.5249,-1.5588,-1.6028,-1.6477,-1.6817,-1.6908,-1.6908,-1.6908,-1.6862,-1.6665,-1.6193,-1.5775,-1.5168,-1.404,0.0,-1.3271,-1.2954,0.0,-1.3502,-1.3947,0.0,-1.5737,-1.6199,-1.6918,-1.7897,-1.9286,-1.9469,-1.9878,-2.0917,-2.1706,-2.2176,-2.2176,-2.2302,-2.2507,-2.2627,-2.2644,-2.2569,-2.2621,-2.2621,-2.2826,-2.3263,-2.3905,-2.4256,-2.4316,-2.4658,-2.4821,-2.4821,-2.4821,-2.4821,-2.4804,0.0,0.0,-2.4282,-2.3896,-2.3554,-2.3254,-2.3151,-2.2912,-2.2621,-2.267,-2.2644,-2.2644,0.0,0.0,0.0,0.0,0.0,0.0,0.0,0.0,0.0,0.0,-0.7243,0.0,0.0,0.0,0.0,0.0,0.0,0.0,0.0,0.0,0.0,0.0,-1.0335,-1.0943,-1.1301,0.0,0.0,0.0,0.0,0.0,-1.3614,-1.3429,-1.3133,-1.2716,-1.2316,-1.1873,-1.1366,-1.09,-1.0424,-1.0008,-0.955,-0.9154,-0.8884,-0.8832,0.0,0.0,0.0,0.0,0.0,0.0,-1.1601,-1.2894,-1.3068,-1.4173,-1.5469,-1.567,-1.6221,-1.6817,-1.689,-1.6908,-1.6908,-1.6908,-1.6592,-1.6193,-1.6129,-1.5085,0.0,0.0,0.0,-1.2569,-1.25,-1.2543,0.0,-1.3502,0.0,0.0,0.0,0.0,-1.7519,0.0,0.0,0.0,0.0,0.0,0.0,0.0,0.0,-2.2885,-2.2946,-2.2745,-2.2689,-2.3006,-2.3014,-2.3348,-2.4033,-2.417,-2.4393,-2.4718,-2.4787,-2.4821,-2.4821,-2.4821,-2.4821,-2.4812,-2.4744,0.0,-2.4693,-2.429,-2.4093,-2.3973,-2.3357,-2.3074,-2.298,-2.2663,-2.2644,-2.2644,0.0,0.0,0.0,0.0,0.0,0.0,0.0,0.0,0.0,0.0,-0.7774,-0.8599,0.0,0.0,0.0,0.0,0.0,0.0,0.0,0.0,0.0,0.0,0.0,0.0,0.0,0.0,0.0,0.0,0.0,0.0,0.0,0.0,0.0,0.0,0.0,0.0,0.0,-1.0113,-0.9665,-0.9308,0.0,0.0,0.0,0.0,0.0,0.0,0.0,0.0,0.0,0.0,-1.0937,-1.2034,-1.2652,-1.3829,-1.5097,-1.5496,-1.5987,-1.6506,-1.6853,-1.6908,-1.6862,-1.6583,-1.6324,-1.5882,-1.5067,0.0,0.0,0.0,0.0,-1.2107,-1.2107,0.0,0.0,0.0,0.0,0.0,0.0,0.0,0.0,0.0,0.0,0.0,0.0,0.0,0.0,0.0,0.0,-2.2946,-2.2846,-2.2834,-2.2929,-2.3109,-2.3494,-2.3871,-2.423,-2.4436,-2.4633,-2.4821,-2.4821,-2.4821,-2.4821,-2.4821,-2.4821,-2.4821,-2.4821,0.0,-2.4804,-2.4616,-2.4419,-2.4196,-2.3836,-2.346,-2.3091,-2.2912,-2.2715,-2.2644,0.0,0.0,0.0,0.0,0.0,0.0,0.0,-0.5912,-0.6876,-0.6805,-0.808,-0.8992,-0.8981,-0.8914,-0.8851,0.0,0.0,0.0,0.0,0.0,0.0,0.0,0.0,0.0,0.0,0.0,0.0,0.0,0.0,0.0,0.0,0.0,0.0,0.0,0.0,0.0,0.0,0.0,0.0,0.0,0.0,0.0,0.0,0.0,0.0,0.0,0.0,0.0,0.0,0.0,-1.0258,-1.1175,-1.2014,-1.3269,-1.4533,-1.5115,-1.5656,-1.6107,-1.6629,-1.6711,-1.656,-1.6193,-1.5918,-1.5391,-1.4118,-1.3639,0.0,0.0,-1.1601,-1.1524,-1.1447,0.0,0.0,0.0,0.0,0.0,0.0,0.0,0.0,0.0,0.0,0.0,0.0,0.0,0.0,0.0,0.0,0.0,-2.2644,-2.2903,-2.3151,-2.3228,-2.3888,-2.4273,-2.4359,-2.4667,-2.4821,-2.4821,-2.4821,-2.4821,-2.4821,-2.4821,-2.4821,-2.4821,-2.4821,0.0,0.0,-2.4821,-2.4641,-2.435,-2.4264,-2.3819,-2.3228,-2.3143,-2.2877,-2.2644,0.0,0.0,0.0,0.0,0.0,0.0,0.0,-0.5912,-0.6876,-0.6805,-0.8087,-0.8976,-0.8919,-0.8846,-0.8781,0.0,0.0,0.0,0.0,0.0,0.0,0.0,0.0,0.0,0.0,0.0,0.0,0.0,0.0,0.0,0.0,0.0,0.0,0.0,0.0,0.0,0.0,0.0,0.0,0.0,0.0,0.0,0.0,0.0,0.0,0.0,0.0,0.0,0.0,0.0,0.0,-1.0785,-1.115,-1.2444,-1.3952,-1.4524,0.0,0.0,-1.6089,-1.6022,-1.5936,-1.6053,-1.5308,-1.4407,-1.3935,0.0,0.0,-1.1336,-1.0896,-1.055,-1.0229,-1.0432,0.0,0.0,0.0,0.0,0.0,0.0,0.0,0.0,0.0,0.0,0.0,0.0,0.0,0.0,0.0,0.0,-2.2644,-2.2903,-2.3271,-2.3605,-2.4016,-2.4401,-2.4761,-2.4804,-2.4821,-2.4821,-2.4821,-2.4821,-2.4821,-2.4821,-2.4821,-2.4821,-2.4821,0.0,0.0,-2.4821,-2.4804,-2.4735,-2.4376,-2.3982,-2.3571,-2.3237,-2.2877,-2.2644,0.0,0.0,0.0,0.0,0.0,0.0,0.0,-0.5493,-0.6153,-0.6086,-0.7361,-0.8254,-0.8185,-0.811,-0.8226,0.0,0.0,0.0,0.0,0.0,0.0,0.0,0.0,0.0,0.0,0.0,0.0,0.0,0.0,0.0,0.0,0.0,0.0,0.0,0.0,0.0,0.0,0.0,0.0,0.0,0.0,0.0,0.0,0.0,0.0,0.0,0.0,0.0,0.0,0.0,0.0,0.0,-1.0615,-1.1477,0.0,0.0,-1.4338,-1.4744,-1.5352,-1.5486,-1.5304,-1.4826,-1.4356,-1.3787,-1.2819,0.0,0.0,-1.088,-1.0387,-1.0048,-0.9906,-1.0211,-1.0668,-1.1107,0.0,0.0,0.0,0.0,0.0,0.0,0.0,0.0,0.0,0.0,0.0,0.0,0.0,0.0,-2.2644,-2.3134,-2.3528,-2.3657,-2.4264,-2.4667,-2.4821,-2.4821,-2.4821,-2.4821,-2.4821,-2.4821,-2.4821,-2.4821,-2.4821,-2.4821,-2.4821,0.0,0.0,-2.4821,-2.4821,-2.4804,-2.465,-2.4222,-2.3665,-2.352,-2.3083,-2.2644,0.0,0.0,0.0,0.0,0.0,0.0,-0.4577,-0.5215,-0.5667,-0.5613,-0.6673,-0.7421,-0.7361,-0.7284,-0.742,-0.7871,0.0,0.0,0.0,0.0,0.0,0.0,0.0,0.0,0.0,0.0,0.0,0.0,0.0,0.0,0.0,0.0,0.0,0.0,0.0,0.0,0.0,0.0,0.0,0.0,0.0,0.0,0.0,0.0,0.0,0.0,0.0,0.0,0.0,0.0,0.0,0.0,0.0,0.0,0.0,0.0,-1.3449,-1.3717,-1.4444,-1.4603,-1.4408,-1.3786,-1.3508,-1.3102,0.0,0.0,0.0,-1.0206,-0.9844,-0.9555,-0.944,-0.9794,-1.03,-1.0736,0.0,-1.2586,0.0,0.0,0.0,0.0,0.0,0.0,0.0,0.0,0.0,0.0,0.0,0.0,0.0,-2.3169,-2.3571,-2.3657,-2.4419,-2.4821,-2.4821,-2.4821,-2.4821,-2.4821,-2.4821,-2.4821,-2.4821,-2.4821,-2.4821,-2.4821,0.0,0.0,0.0,-2.4821,-2.4821,-2.4821,-2.4821,-2.4359,-2.3691,-2.3691,-2.3203,-2.2644,0.0,0.0,0.0,0.0,0.0,0.0,0.0,-0.5179,-0.5678,-0.561,-0.6192,-0.6579,-0.6517,-0.6452,-0.6384,-0.6338,0.0,0.0,0.0,0.0,0.0,0.0,0.0,0.0,0.0,0.0,-0.7789,-0.8799,-0.862,-0.8995,0.0,0.0,0.0,0.0,0.0,0.0,0.0,0.0,0.0,0.0,0.0,0.0,0.0,0.0,0.0,0.0,0.0,0.0,0.0,0.0,0.0,0.0,0.0,0.0,0.0,0.0,-1.2567,-1.3038,-1.3194,-1.3145,-1.3046,-1.3185,-1.2785,-1.2201,0.0,0.0,-1.0713,-0.9387,-0.9131,-0.8966,-0.8594,-0.8963,-0.9464,-0.9922,-1.1014,0.0,0.0,0.0,0.0,0.0,0.0,0.0,0.0,0.0,0.0,0.0,0.0,0.0,0.0,-2.2912,-2.3288,-2.3657,-2.4419,-2.4821,-2.4821,-2.4821,-2.4821,-2.4821,-2.4821,-2.4821,-2.4821,-2.4821,-2.4821,0.0,0.0,0.0,0.0,-2.4821,-2.4821,-2.4821,-2.4821,-2.435,-2.3665,-2.3665,-2.3186,-2.2644,0.0,0.0,0.0,0.0,0.0,0.0,0.0,-0.4709,-0.4862,-0.4798,-0.5367,-0.5756,-0.5692,-0.561,-0.5558,-0.5486,0.0,0.0,0.0,0.0,0.0,0.0,0.0,0.0,0.0,0.0,-0.8003,-0.8586,-0.8771,-0.9118,-0.9684,-0.9366,0.0,0.0,0.0,0.0,0.0,0.0,0.0,0.0,0.0,0.0,0.0,0.0,0.0,0.0,0.0,0.0,0.0,0.0,0.0,0.0,0.0,0.0,0.0,-1.0172,0.0,0.0,-1.2479,-1.2625,-1.2518,-1.2197,-1.1803,-1.1336,-1.0689,0.0,-0.962,-0.9188,-0.8834,-0.8591,-0.8471,-0.9031,-0.9567,-0.9819,-1.1116,0.0,0.0,0.0,0.0,0.0,0.0,0.0,0.0,0.0,0.0,0.0,0.0,0.0,0.0,-2.2903,-2.3288,-2.3674,-2.4162,-2.4547,-2.4812,-2.4821,-2.4821,-2.4821,-2.4821,-2.4821,-2.4821,-2.4821,0.0,0.0,0.0,0.0,0.0,-2.4821,-2.4821,-2.4821,-2.4821,-2.435,-2.3665,-2.3665,-2.3186,-2.2644,0.0,0.0,0.0,0.0,0.0,0.0,0.0,-0.4471,-0.4443,-0.4369,-0.4724,-0.4965,-0.4893,-0.4803,-0.4726,-0.4647,0.0,0.0,0.0,0.0,0.0,0.0,0.0,0.0,-0.7182,-0.761,-0.8011,-0.8419,-0.8732,-0.9095,-0.9473,-0.9151,-0.8839,-0.8578,0.0,0.0,0.0,0.0,0.0,0.0,0.0,0.0,-0.585,0.0,0.0,0.0,0.0,0.0,0.0,0.0,0.0,0.0,0.0,0.0,0.0,0.0,-0.9752,0.0,0.0,-1.1447,-1.1336,-1.1015,-1.078,0.0,0.0,0.0,-0.9039,-0.8859,-0.8607,-0.8414,-0.8414,-0.8972,-0.9497,-0.9773,-1.0997,0.0,0.0,0.0,0.0,0.0,0.0,0.0,0.0,0.0,0.0,0.0,0.0,0.0,0.0,-2.2775,-2.3083,-2.3468,-2.3828,-2.4136,-2.4384,-2.4393,-2.4393,-2.4401,-2.453,-2.4598,-2.4607,-2.4753,0.0,0.0,0.0,0.0,0.0,-2.4821,-2.4821,-2.4804,-2.4658,-2.4222,-2.3657,-2.3511,-2.3074,-2.2644,0.0,0.0,0.0,0.0,0.0,0.0,0.0,0.0,0.0,0.0,-0.4287,-0.4265,-0.4191,-0.4075,-0.3963,0.0,0.0,0.0,0.0,0.0,0.0,0.0,0.0,0.0,-0.6993,-0.7483,-0.7919,-0.827,-0.8583,-0.8919,-0.9286,-0.8937,-0.8651,-0.8382,-0.8042,-0.7734,0.0,0.0,0.0,0.0,0.0,0.0,0.0,0.0,0.0,0.0,0.0,0.0,0.0,0.0,0.0,0.0,0.0,0.0,0.0,0.0,0.0,0.0,0.0,0.0,0.0,0.0,0.0,0.0,0.0,0.0,0.0,-0.8486,-0.8414,-0.8414,-0.8414,-0.881,-0.9261,-0.9694,0.0,0.0,0.0,0.0,0.0,0.0,0.0,0.0,0.0,0.0,0.0,0.0,0.0,0.0,0.0,-2.2644,-2.2706,-2.3066,-2.3408,-2.3614,-2.3665,-2.3691,-2.3699,-2.3699,-2.4033,-2.4187,-2.4205,-2.4573,0.0,0.0,0.0,0.0,0.0,-2.4795,-2.4778,-2.4735,-2.435,-2.3973,-2.3614,-2.3254,-2.2877,-2.2644,0.0,0.0,0.0,0.0,0.0,0.0,0.0,0.0,0.0,0.0,-0.4259,-0.4178,-0.4062,-0.397,-0.3906,0.0,0.0,0.0,0.0,0.0,0.0,0.0,0.0,0.0,-0.6858,-0.7707,-0.8102,-0.7988,-0.8764,-0.9168,-0.9135,-0.8739,-0.8488,-0.8308,-0.7918,-0.746,0.0,0.0,0.0,0.0,0.0,0.0,0.0,0.0,0.0,0.0,-0.5811,-0.5957,0.0,0.0,0.0,0.0,0.0,0.0,0.0,0.0,-0.7839,-0.8143,-0.8222,0.0,-0.979,-0.966,-0.9448,0.0,0.0,0.0,-0.8518,-0.8438,0.0,0.0,-0.8414,0.0,0.0,0.0,0.0,0.0,0.0,0.0,0.0,0.0,0.0,0.0,0.0,0.0,0.0,0.0,0.0,0.0,0.0,-2.2644,-2.2687,-2.2681,-2.2766,-2.3091,-2.3682,-2.3699,-2.3691,-2.3674,-2.3759,-2.3794,-2.3802,-2.3896,0.0,0.0,0.0,0.0,-2.4795,-2.4496,-2.4367,-2.4333,-2.3948,-2.3571,-2.3246,-2.3151,-2.2877,-2.2644,0.0,0.0,0.0,0.0,0.0,0.0,0.0,0.0,0.0,0.0,0.0,0.0,0.0,0.0,0.0,0.0,0.0,0.0,0.0,0.0,0.0,0.0,0.0,-0.6924,-0.7071,-0.7748,-0.8154,-0.8273,-0.8898,-0.9251,-0.9272,-0.8916,-0.8624,-0.8407,-0.7714,-0.7193,0.0,0.0,0.0,0.0,0.0,0.0,0.0,0.0,0.0,0.0,-0.585,-0.5905,0.0,-0.6067,-0.6316,-0.657,0.0,0.0,0.0,0.0,-0.7316,-0.7589,-0.7747,-0.8455,-0.912,-0.9076,-0.8931,-0.8744,-0.8701,0.0,0.0,0.0,0.0,0.0,0.0,0.0,0.0,0.0,0.0,0.0,0.0,0.0,0.0,0.0,0.0,0.0,0.0,0.0,0.0,0.0,0.0,0.0,0.0,-2.2232,-2.2232,-2.2232,-2.2232,-2.2537,-2.3169,-2.3177,-2.3169,-2.3151,-2.3331,-2.3417,-2.3417,-2.3588,-2.3776,0.0,0.0,0.0,-2.4273,-2.4068,-2.399,-2.3956,-2.3562,-2.3288,-2.3091,-2.292,-2.2723,-2.2644,0.0,0.0,0.0,0.0,0.0,0.0,0.0,0.0,0.0,0.0,0.0,0.0,0.0,0.0,0.0,0.0,0.0,0.0,0.0,0.0,0.0,0.0,-0.6122,-0.6885,-0.7355,-0.7721,-0.8154,-0.8632,-0.9027,-0.9289,-0.9447,-0.921,-0.8901,-0.8518,-0.7605,-0.7037,0.0,0.0,0.0,0.0,-0.5998,0.0,0.0,0.0,0.0,0.0,0.0,0.0,0.0,-0.6137,-0.623,-0.6315,-0.6315,0.0,0.0,0.0,0.0,0.0,-0.7613,-0.8016,-0.8309,-0.8406,-0.8414,-0.8414,-0.8414,0.0,0.0,0.0,0.0,0.0,0.0,0.0,0.0,0.0,0.0,0.0,0.0,0.0,0.0,0.0,0.0,0.0,0.0,0.0,0.0,0.0,0.0,0.0,0.0,-2.1725,-2.1725,-2.1725,-2.1725,-2.1928,-2.2443,-2.2443,-2.2443,-2.2451,-2.2767,-2.2928,-2.2937,-2.3244,-2.3423,0.0,0.0,0.0,-2.3665,-2.3622,-2.3614,-2.358,-2.3186,-2.3032,-2.2989,-2.2663,-2.2644,-2.2644,0.0,0.0,0.0,0.0,0.0,0.0,0.0,0.0,0.0,0.0,0.0,0.0,0.0,0.0,0.0,0.0,0.0,0.0,0.0,0.0,0.0,-0.4869,-0.5926,-0.6747,-0.723,-0.766,-0.8063,-0.836,-0.9197,-0.9511,-0.933,-0.9521,-0.9125,-0.8235,-0.7798,-0.7315,-0.6781,-0.6513,-0.6268,-0.599,-0.5943,0.0,0.0,0.0,0.0,0.0,0.0,0.0,0.0,-0.6137,-0.623,-0.6315,-0.6315,0.0,0.0,0.0,0.0,0.0,-0.7293,-0.7642,-0.7992,-0.8302,-0.8414,-0.8414,-0.8414,0.0,0.0,0.0,0.0,0.0,0.0,0.0,0.0,0.0,0.0,0.0,0.0,0.0,0.0,0.0,0.0,0.0,0.0,0.0,0.0,0.0,0.0,0.0,0.0,-2.1725,-2.1725,-2.1725,-2.1725,-2.1725,-2.1827,-2.1827,-2.1827,-2.1827,-2.1885,-2.191,-2.1918,-2.1968,-2.227,-2.2891,0.0,-2.3173,-2.3639,-2.3331,-2.3203,-2.3169,-2.2783,-2.2629,-2.2629,-2.2569,-2.2644,-2.2644,0.0,0.0,0.0,0.0,0.0,0.0,0.0,0.0,0.0,0.0,0.0,0.0,0.0,0.0,0.0,0.0,0.0,0.0,0.0,0.0,-0.4777,-0.4751,-0.5764,-0.6698,-0.7518,-0.7639,-0.8143,-0.9099,-0.9365,-0.9673,-0.9993,-0.9777,-0.9293,-0.8484,-0.7908,-0.7346,-0.6781,-0.6551,-0.6307,-0.6098,0.0,0.0,0.0,0.0,0.0,0.0,0.0,0.0,0.0,0.0,-0.6292,-0.6315,-0.6315,0.0,0.0,0.0,0.0,0.0,-0.7158,-0.742,-0.7682,-0.8238,-0.8414,-0.8462,-0.8619,0.0,0.0,0.0,0.0,0.0,0.0,0.0,0.0,0.0,0.0,0.0,0.0,0.0,0.0,0.0,0.0,0.0,0.0,0.0,0.0,0.0,0.0,0.0,0.0,0.0,-2.1224,-2.1224,-2.1224,-2.1224,-2.1224,-2.1224,-2.142,-2.1725,-2.1725,-2.1725,-2.1725,-2.1725,-2.1816,-2.2187,0.0,-2.2381,-2.2834,-2.2664,-2.2698,-2.2783,-2.2612,-2.2644,-2.2644,-2.2644,-2.2644,-2.2644,0.0,0.0,0.0,0.0,0.0,0.0,0.0,0.0,0.0,0.0,0.0,0.0,0.0,0.0,0.0,0.0,0.0,0.0,0.0,0.0,-0.4685,-0.4671,-0.563,-0.6645,-0.7699,-0.7588,-0.8239,-0.9727,-0.955,-0.9874,-1.0623,-1.0053,-0.944,-0.878,-0.8057,-0.7402,-0.6781,-0.659,-0.6384,-0.6176,0.0,0.0,0.0,0.0,0.0,0.0,0.0,0.0,0.0,0.0,0.0,0.0,0.0,0.0,0.0,-0.6315,-0.6315,-0.6435,-0.7118,-0.7301,-0.7475,-0.8198,-0.8414,-0.8468,-0.8826,0.0,0.0,0.0,0.0,0.0,0.0,0.0,0.0,0.0,0.0,0.0,0.0,0.0,0.0,0.0,0.0,0.0,0.0,0.0,0.0,0.0,0.0,0.0,0.0,0.0,-2.0925,-2.0925,-2.0925,-2.0925,-2.0925,-2.0925,-2.1121,-2.1522,-2.1522,-2.1522,-2.1522,-2.1522,-2.1522,-2.1623,-2.1623,-2.1725,-2.2021,-2.2021,-2.2232,-2.2443,-2.2544,-2.2644,-2.2644,-2.2644,-2.2644,-2.2644,0.0,0.0,0.0,0.0,0.0,0.0,0.0,0.0,0.0,0.0,0.0,0.0,0.0,0.0,0.0,0.0,0.0,0.0,0.0,0.0,-0.4683,-0.4602,-0.5504,-0.6478,-0.7497,-0.752,-0.8175,-0.9522,-0.9807,-1.0201,-1.0674,-1.0263,-0.9609,-0.8789,-0.8339,-0.7648,-0.6781,-0.659,-0.6384,-0.6207,-0.6176,0.0,0.0,0.0,0.0,0.0,0.0,0.0,0.0,0.0,0.0,0.0,0.0,0.0,-0.6315,-0.6315,-0.6315,-0.6435,-0.7118,-0.7301,-0.7475,-0.8198,-0.8414,0.0,-0.8826,-0.8905,0.0,-0.9747,0.0,0.0,0.0,0.0,0.0,0.0,0.0,0.0,0.0,0.0,0.0,0.0,0.0,0.0,0.0,0.0,0.0,0.0,0.0,0.0,0.0,0.0,0.0,-2.0925,-2.0925,-2.0925,-2.0925,-2.0925,-2.0925,-2.0917,-2.0917,-2.0917,-2.0917,-2.0917,-2.1121,-2.1326,-2.1326,-2.1522,-2.1725,-2.203,-2.2123,-2.2131,-2.2443,-2.2644,-2.2644,-2.2644,-2.2644,-2.2644,0.0,0.0,0.0,0.0,0.0,0.0,0.0,0.0,0.0,0.0,0.0,0.0,0.0,0.0,0.0,0.0,0.0,0.0,0.0,-0.4114,-0.4629,-0.4602,-0.5494,-0.6422,-0.7349,-0.7371,-0.8024,-0.939,-0.9872,-1.0313,-1.0611,-1.0273,-0.9628,-0.8789,-0.8376,-0.7699,-0.6863,-0.6612,-0.6429,-0.6307,-0.6238,-0.6176,0.0,0.0,0.0,0.0,0.0,0.0,0.0,0.0,-0.6315,-0.6315,-0.6315,-0.6315,-0.6315,-0.6315,-0.6315,-0.6435,-0.7118,-0.7301,-0.7531,-0.8468,-0.8707,0.0,0.0,-0.9557,-1.001,-1.0494,0.0,0.0,0.0,0.0,0.0,0.0,0.0,0.0,0.0,0.0,0.0,0.0,0.0,0.0,0.0,0.0,0.0,0.0,0.0,0.0,0.0,0.0,0.0,-2.0909,-2.0925,-2.0925,-2.0925,-2.0925,-2.0925,-2.0925,-2.0925,-2.0925,-2.0925,-2.0925,-2.0917,-2.1019,-2.1019,-2.1224,-2.142,-2.1522,-2.1725,-2.1928,-2.2131,-2.2434,-2.2644,-2.2644,-2.2644,-2.2644,0.0,0.0,0.0,0.0,0.0,0.0,0.0,0.0,0.0,0.0,0.0,0.0,0.0,0.0,0.0,0.0,0.0,0.0,-0.3199,-0.4079,-0.4589,-0.4573,-0.5461,-0.6374,-0.7245,-0.7244,-0.7896,-0.9278,-0.9872,-1.0307,-1.0544,-1.0205,-0.9601,-0.8789,-0.8376,-0.7732,-0.6885,-0.6643,-0.6482,-0.6382,-0.6315,-0.6261,0.0,0.0,0.0,0.0,0.0,0.0,0.0,0.0,-0.6315,-0.6315,-0.6315,-0.6315,-0.6315,-0.6315,-0.6315,-0.6435,-0.7118,-0.7301,-0.7563,0.0,0.0,0.0,-0.9636,-1.0113,-1.0625,-1.0923,0.0,0.0,0.0,0.0,0.0,0.0,0.0,0.0,0.0,0.0,0.0,0.0,0.0,0.0,0.0,0.0,0.0,0.0,0.0,0.0,0.0,0.0,0.0,0.0,-2.0861,-2.0925,-2.0925,-2.0925,-2.0925,-2.0925,-2.0925,-2.0925,-2.0925,-2.0925,-2.0925,-2.0925,-2.0925,-2.1019,-2.1224,-2.1224,-2.142,-2.1725,-2.203,-2.2232,-2.2443,-2.2544,-2.2644,-2.2644,0.0,0.0,0.0,0.0,0.0,0.0,0.0,0.0,0.0,0.0,0.0,0.0,0.0,0.0,0.0,0.0,0.0,0.0,-0.3199,-0.4079,-0.4573,-0.4505,-0.5399,-0.6303,-0.7186,-0.714,-0.7783,-0.9195,-0.9784,-1.0203,-1.037,-1.0127,-0.9563,-0.8789,-0.8376,-0.7732,-0.6885,-0.6686,-0.6535,-0.6413,-0.6413,-0.636,-0.6315,0.0,0.0,0.0,0.0,0.0,0.0,0.0,-0.6307,-0.6307,-0.6307,-0.6307,-0.6307,-0.6315,-0.6315,-0.6435,-0.7118,-0.7301,0.0,0.0,0.0,0.0,-1.0362,-1.053,-1.0633,-1.0947,0.0,0.0,0.0,0.0,0.0,0.0,0.0,0.0,0.0,0.0,0.0,0.0,0.0,0.0,0.0,0.0,0.0,0.0,0.0,0.0,0.0,0.0,0.0,0.0,-2.0734,-2.0917,-2.0925,-2.0925,-2.0925,-2.0925,-2.0925,-2.0925,-2.0925,-2.0925,-2.0925,-2.0925,-2.0925,-2.0925,-2.0925,-2.1224,-2.142,-2.1725,-2.203,-2.2123,-2.2123,-2.2443,-2.2644,-2.2644,0.0,0.0,0.0,0.0,0.0,0.0,0.0,0.0,0.0,0.0,0.0,0.0,0.0,0.0,0.0,0.0,0.0,0.0,-0.313,-0.4043,-0.4573,-0.4505,-0.5399,-0.6156,-0.6684,-0.7135,-0.7913,-0.8993,-0.9023,-0.9375,-0.9972,-0.9648,-0.9251,-0.8799,-0.8419,-0.7798,-0.6966,-0.6794,-0.6673,-0.6535,-0.6482,-0.646,-0.6405,0.0,0.0,0.0,0.0,0.0,0.0,0.0,0.0,0.0,-0.5859,-0.5939,-0.5987,-0.6235,-0.6315,-0.6435,-0.7118,0.0,0.0,0.0,0.0,0.0,0.0,-1.1018,0.0,0.0,0.0,0.0,0.0,0.0,0.0,0.0,0.0,0.0,0.0,0.0,0.0,0.0,0.0,0.0,0.0,0.0,0.0,0.0,0.0,0.0,0.0,0.0,0.0,0.0,-2.0496,-2.067,-2.0917,-2.0925,-2.0925,-2.0925,-2.0925,-2.0925,-2.0925,-2.0925,-2.0925,-2.0925,-2.0925,-2.0925,-2.0925,-2.1027,-2.1224,-2.1428,-2.1522,-2.1725,-2.2131,-2.2232,-2.2434,-2.2644,0.0,0.0,0.0,0.0,0.0,0.0,0.0,0.0,0.0,0.0,0.0,0.0,0.0,0.0,0.0,0.0,0.0,0.0,0.0,-0.4008,-0.4532,-0.4466,-0.5349,-0.6112,-0.6651,-0.7181,-0.7811,-0.85,-0.8551,-0.8875,-0.9456,-0.9197,-0.8872,-0.8508,-0.8216,-0.7687,-0.7026,-0.6885,-0.6772,-0.6665,-0.6573,-0.643,-0.6281,0.0,0.0,0.0,0.0,0.0,0.0,0.0,0.0,0.0,-0.5492,-0.566,-0.5856,-0.6035,-0.6203,-0.6435,-0.7118,0.0,0.0,0.0,0.0,0.0,0.0,0.0,0.0,0.0,0.0,0.0,0.0,0.0,0.0,0.0,0.0,0.0,0.0,0.0,0.0,0.0,0.0,0.0,0.0,0.0,0.0,0.0,0.0,0.0,0.0,0.0,0.0,0.0,-2.0249,-2.0496,-2.071,-2.0853,-2.0925,-2.0925,-2.0925,-2.0925,-2.0925,-2.0925,-2.0925,-2.0925,-2.0925,-2.0925,-2.0925,-2.0925,-2.1019,-2.1121,-2.1224,-2.1522,-2.1827,-2.2021,-2.2232,-2.2434,0.0,0.0,0.0,0.0,0.0,0.0,0.0,0.0,0.0,0.0,-0.3436,0.0,0.0,0.0,0.0,0.0,0.0,0.0,0.0,0.0,-0.4489,-0.4456,-0.5304,-0.6112,-0.6829,-0.7163,-0.7498,-0.7838,-0.8238,-0.8622,-0.8945,-0.8723,-0.8446,-0.8096,-0.7831,-0.7485,-0.7095,-0.6975,-0.6863,-0.6811,-0.6665,-0.6378,-0.6024,-0.5971,0.0,0.0,0.0,0.0,0.0,0.0,0.0,0.0,-0.5156,-0.542,-0.57,-0.5792,-0.6011,-0.6418,0.0,0.0,0.0,0.0,0.0,0.0,0.0,0.0,0.0,0.0,0.0,0.0,0.0,0.0,0.0,0.0,0.0,0.0,0.0,0.0,0.0,0.0,0.0,0.0,0.0,0.0,0.0,0.0,0.0,0.0,0.0,0.0,0.0,-1.9376,-1.9979,-2.0329,-2.0392,-2.071,-2.0893,-2.0925,-2.0925,-2.0925,-2.0925,-2.0925,-2.0925,-2.0925,-2.0925,-2.0925,-2.0925,-2.0925,-2.0925,-2.0925,-2.1121,-2.1326,-2.1326,-2.1827,-2.2021,-2.2123,0.0,0.0,0.0,0.0,0.0,0.0,0.0,0.0,0.0,0.0,0.0,0.0,0.0,0.0,0.0,0.0,0.0,0.0,0.0,0.0,-0.4633,-0.4927,-0.5393,-0.5872,-0.6348,-0.6633,-0.6996,-0.7414,-0.7781,-0.8137,-0.8516,-0.8335,-0.8181,-0.8096,-0.7881,-0.7526,-0.7095,-0.7026,-0.6936,-0.6863,-0.6803,-0.6512,-0.6109,-0.5795,-0.5398,0.0,0.0,0.0,0.0,0.0,0.0,0.0,-0.4796,-0.4917,-0.5044,-0.562,-0.5864,-0.6107,0.0,0.0,0.0,0.0,0.0,0.0,0.0,0.0,0.0,0.0,0.0,0.0,0.0,0.0,0.0,0.0,0.0,0.0,0.0,0.0,0.0,0.0,0.0,0.0,0.0,0.0,0.0,0.0,0.0,0.0,0.0,0.0,0.0,-1.9368,-1.9519,-1.9852,-2.0384,-2.0464,-2.0647,0.0,-2.0925,-2.0925,-2.0925,-2.0925,-2.0925,-2.0925,-2.0925,-2.0925,-2.0925,-2.0925,-2.0925,-2.0925,-2.0917,-2.1121,-2.1318,-2.1428,-2.1725,-2.2131,0.0,0.0,0.0,0.0,0.0,0.0,0.0,0.0,0.0,0.0,0.0,0.0,0.0,0.0,0.0,0.0,0.0,0.0,0.0,0.0,-0.472,-0.5323,-0.5512,-0.5769,-0.6138,-0.6221,-0.6609,-0.7309,-0.7415,-0.7675,-0.8066,-0.7925,-0.7854,-0.7802,-0.7658,-0.7446,-0.7145,-0.7086,-0.6996,-0.6936,-0.6863,-0.66,-0.6156,-0.5762,-0.5378,-0.4995,-0.4549,0.0,0.0,0.0,0.0,0.0,0.0,0.0,-0.4893,-0.5399,-0.5679,-0.5979,0.0,0.0,0.0,0.0,0.0,0.0,0.0,0.0,0.0,0.0,0.0,0.0,0.0,0.0,0.0,0.0,0.0,0.0,0.0,0.0,0.0,0.0,0.0,0.0,0.0,0.0,0.0,0.0,0.0,0.0,0.0,-1.8388,-1.866,-1.8934,-1.9288,-1.9542,-1.99,-2.0226,-2.0488,-2.067,-2.0845,-2.0925,-2.0925,-2.0925,-2.0925,-2.0925,-2.0925,-2.0925,-2.0925,-2.0925,-2.0925,-2.0925,-2.0925,-2.1027,-2.1121,-2.1224,-2.1522,-2.1928,0.0,0.0,0.0,0.0,0.0,0.0,0.0,0.0,0.0,0.0,0.0,0.0,0.0,0.0,0.0,0.0,0.0,0.0,0.0,0.0,0.0,-0.5571,-0.5603,-0.5737,-0.5993,-0.5948,-0.6314,-0.7188,-0.7131,-0.7314,-0.7695,-0.7627,-0.7569,-0.749,-0.744,-0.7312,-0.7196,-0.7116,-0.7056,-0.7017,-0.6936,-0.6629,-0.6192,-0.583,-0.5481,-0.512,-0.4756,-0.4577,-0.4515,-0.4448,0.0,0.0,0.0,0.0,-0.4847,-0.5135,-0.5465,-0.5872,0.0,0.0,0.0,0.0,0.0,0.0,0.0,0.0,0.0,0.0,0.0,0.0,0.0,0.0,0.0,0.0,0.0,0.0,0.0,0.0,0.0,0.0,0.0,0.0,0.0,0.0,0.0,0.0,0.0,0.0,-1.7994,-1.8288,-1.8388,-1.8481,-1.8942,-1.9312,-1.9376,-1.994,-2.0281,-2.04,-2.075,-2.0925,-2.0925,-2.0925,-2.0925,-2.0925,-2.0925,-2.0925,-2.0925,-2.0925,-2.0925,-2.0925,-2.0925,-2.0925,-2.0925,-2.1121,-2.142,-2.1623,0.0,0.0,0.0,0.0,0.0,0.0,0.0,0.0,0.0,0.0,0.0,0.0,0.0,0.0,0.0,0.0,0.0,0.0,-0.5157,0.0,0.0,-0.5603,-0.5603,-0.5589,-0.5576,-0.5786,-0.6164,-0.67,-0.6956,-0.7314,-0.7695,-0.7627,-0.7569,-0.749,-0.744,-0.7312,-0.7196,-0.7116,-0.7095,-0.7065,-0.6945,-0.6658,-0.6263,-0.6175,-0.5864,-0.5498,-0.5137,-0.5023,-0.4949,-0.4606,-0.4435,0.0,0.0,0.0,0.0,-0.4831,-0.5151,-0.553,0.0,0.0,0.0,0.0,0.0,0.0,0.0,0.0,0.0,0.0,0.0,0.0,0.0,0.0,0.0,0.0,0.0,0.0,0.0,0.0,0.0,0.0,0.0,0.0,0.0,0.0,0.0,0.0,0.0,0.0,-1.7721,-1.7815,-1.8009,-1.8481,-1.8621,-1.8879,-1.9368,-1.9463,-1.9805,-2.04,-2.075,-2.0925,-2.0925,-2.0925,-2.0925,-2.0925,-2.0925,-2.0925,-2.0925,-2.0925,-2.0925,-2.0925,-2.0925,-2.0925,-2.0925,-2.0917,-2.1121,-2.142,0.0,0.0,0.0,0.0,0.0,0.0,0.0,0.0,0.0,0.0,0.0,0.0,0.0,0.0,0.0,-0.4499,-0.4566,-0.4781,-0.5199,-0.5647,-0.5808,-0.5603,-0.5603,-0.5576,-0.5492,-0.5542,-0.5915,-0.6609,-0.6661,-0.7034,0.0,-0.7666,-0.7608,-0.749,-0.746,-0.7362,-0.7196,-0.7166,-0.7116,-0.7095,-0.7035,-0.6878,-0.6615,-0.6341,-0.6132,-0.5881,-0.5506,-0.537,-0.531,-0.4949,-0.482,-0.4743,-0.4531,0.0,0.0,0.0,0.0,0.0,0.0,0.0,0.0,0.0,0.0,0.0,0.0,0.0,0.0,0.0,0.0,0.0,0.0,0.0,0.0,0.0,0.0,0.0,0.0,0.0,0.0,0.0,0.0,0.0,0.0,0.0,0.0,0.0,0.0,-1.7333,-1.7434,-1.7628,-1.7822,-1.8009,-1.8295,-1.8644,-1.8894,-1.9272,-1.9614,-2.0098,-2.0456,-2.0623,-2.0631,-2.0829,-2.0925,-2.0925,-2.0925,-2.0925,-2.0925,-2.0925,-2.0925,-2.0925,-2.0925,-2.0925,-2.0925,-2.0925,-2.1019,-2.1326,0.0,0.0,0.0,0.0,0.0,0.0,0.0,0.0,0.0,0.0,0.0,0.0,0.0,0.0,0.0,0.0,-0.5032,-0.5089,-0.5288,-0.568,-0.5808,-0.5603,-0.5603,-0.5576,-0.5492,-0.5368,-0.5663,-0.6415,0.0,0.0,-0.754,-0.7647,-0.7637,0.0,-0.751,-0.7392,-0.7196,0.0,0.0,-0.7125,-0.7095,-0.7035,-0.688,-0.6571,-0.641,-0.6293,-0.589,-0.5762,-0.5702,-0.5351,-0.5223,-0.5154,-0.4782,-0.4661,0.0,0.0,0.0,0.0,0.0,0.0,0.0,0.0,0.0,0.0,0.0,0.0,0.0,0.0,0.0,0.0,0.0,0.0,0.0,0.0,0.0,0.0,0.0,0.0,0.0,0.0,0.0,0.0,0.0,0.0,0.0,0.0,0.0,-1.7245,-1.7326,-1.7527,-1.7628,-1.7721,-1.8102,-1.8388,-1.8481,-1.9107,-1.9495,-1.9741,-2.0091,-2.0305,-2.04,-2.0662,-2.0837,-2.0925,-2.0925,-2.0925,-2.0925,-2.0925,-2.0925,-2.0925,-2.0925,-2.0925,-2.0925,-2.0925,-2.1027,-2.1224,0.0,0.0,0.0,0.0,0.0,0.0,0.0,0.0,0.0,0.0,0.0,0.0,-0.501,-0.5338,-0.5575,-0.5575,-0.5902,-0.6041,-0.5866,-0.5888,-0.5808,-0.5603,-0.5603,0.0,-0.5492,-0.5368,-0.5513,-0.5932,0.0,0.0,-0.7139,-0.7511,-0.7656,-0.7588,-0.7539,-0.7392,-0.7196,0.0,0.0,0.0,0.0,0.0,-0.6987,-0.6889,-0.6829,0.0,0.0,0.0,-0.6113,-0.5719,-0.5566,-0.5523,-0.5171,-0.5074,-0.5005,0.0,0.0,0.0,0.0,0.0,0.0,0.0,0.0,0.0,0.0,0.0,0.0,0.0,0.0,0.0,0.0,0.0,0.0,0.0,0.0,0.0,0.0,0.0,0.0,0.0,0.0,0.0,0.0,0.0,0.0,0.0,0.0,-1.7011,-1.7311,-1.7333,-1.7434,-1.7721,-1.7721,-1.8009,-1.8481,-1.9107,-1.9383,-1.9407,-1.9733,-2.0067,-2.0392,-2.0408,-2.0607,-2.0925,-2.0925,-2.0925,-2.0925,-2.0925,-2.0925,-2.0925,-2.0925,-2.0925,-2.0925,-2.0925,-2.0925,-2.0917,0.0,0.0,0.0,0.0,0.0,0.0,0.0,0.0,0.0,0.0,0.0,0.0,0.0,-0.6153,-0.6183,-0.6183,-0.6182,-0.6111,-0.5911,-0.5911,-0.5837,-0.5662,-0.5614,-0.5576,-0.5492,-0.5397,-0.5533,-0.5892,0.0,-0.6675,-0.7109,-0.7501,-0.7656,-0.7588,-0.7539,-0.7431,-0.7312,-0.7235,0.0,0.0,0.0,0.0,0.0,0.0,0.0,0.0,0.0,0.0,0.0,0.0,-0.6207,-0.5907,-0.5532,-0.5421,-0.5414,0.0,0.0,0.0,0.0,0.0,0.0,0.0,0.0,0.0,0.0,0.0,0.0,0.0,0.0,0.0,0.0,0.0,0.0,0.0,0.0,0.0,0.0,0.0,0.0,0.0,0.0,0.0,0.0,0.0,0.0,0.0,0.0,0.0,-1.7018,-1.7216,-1.7333,-1.7426,-1.7628,-1.7916,-1.8481,-1.8699,-1.8847,-1.9026,-1.9383,-1.9614,-1.9749,-1.9955,-2.0249,-2.0583,-2.0583,-2.071,-2.0925,-2.0925,-2.0925,-2.0925,-2.0925,-2.0925,-2.0925,-2.0925,-2.0925,-2.0917,0.0,0.0,0.0,0.0,0.0,0.0,0.0,0.0,0.0,-0.6405,0.0,0.0,0.0,0.0,-0.6938,-0.6699,-0.6546,-0.6315,-0.5922,-0.5911,-0.5837,-0.5711,-0.5633,-0.5576,-0.5492,-0.5427,-0.5511,-0.5724,-0.6119,-0.6494,-0.6911,-0.7314,-0.7559,-0.7627,-0.7569,-0.749,0.0,0.0,0.0,-0.7433,0.0,0.0,-0.7936,0.0,0.0,0.0,0.0,0.0,0.0,0.0,0.0,0.0,0.0,0.0,0.0,0.0,0.0,0.0,0.0,0.0,0.0,0.0,0.0,0.0,0.0,0.0,0.0,0.0,0.0,0.0,0.0,0.0,0.0,0.0,0.0,0.0,0.0,0.0,0.0,0.0,0.0,0.0,0.0,0.0,0.0,0.0,0.0,0.0,-1.6934,-1.7055,-1.7216,-1.7326,-1.7527,-1.7908,-1.8381,-1.8481,-1.8566,-1.8827,-1.9074,-1.9256,-1.9383,-1.9598,-1.9892,-2.0218,-2.0337,-2.0599,-2.0925,-2.0925,-2.0925,-2.0925,-2.0925,-2.0925,-2.0925,-2.0925,-2.0925,-2.0925,0.0,0.0,0.0,0.0,0.0,0.0,0.0,0.0,-0.7033,-0.7046,0.0,0.0,0.0,0.0,0.0,-0.709,-0.7022,-0.67,-0.5997,-0.5933,-0.586,-0.5732,-0.5644,-0.5576,-0.5511,-0.5446,-0.5398,-0.5398,-0.5743,-0.6106,-0.6498,-0.6901,-0.7305,-0.7676,-0.7608,-0.753,-0.7411,0.0,-0.7553,-0.7794,0.0,-0.8015,-0.8307,0.0,0.0,0.0,-0.7998,-0.7954,0.0,0.0,0.0,0.0,0.0,0.0,0.0,0.0,0.0,0.0,0.0,0.0,0.0,0.0,0.0,0.0,0.0,0.0,0.0,0.0,0.0,0.0,0.0,0.0,0.0,0.0,0.0,0.0,0.0,0.0,0.0,0.0,0.0,0.0,0.0,0.0,0.0,0.0,0.0,-1.6184,-1.6791,-1.685,-1.7004,-1.7318,-1.7527,-1.7815,-1.8087,-1.8381,-1.8566,-1.8827,-1.8827,-1.901,-1.9352,-1.9352,-1.9534,-1.9868,-2.021,-2.0567,-2.0909,-2.0917,-2.0925,-2.0925,-2.0925,-2.0925,-2.0925,-2.0925,-2.0925,-2.0925,0.0,0.0,0.0,0.0,0.0,0.0,-0.7747,-0.7713,-0.7782,0.0,0.0,0.0,-0.8056,-0.8023,-0.7886,-0.7534,-0.7501,-0.7355,-0.7011,-0.6664,-0.6412,-0.6291,-0.5834,-0.5595,-0.5576,-0.5511,-0.5446,-0.5398,-0.5775,-0.6014,-0.6077,-0.6489,-0.6881,-0.7275,-0.7238,-0.7347,-0.7539,-0.744,0.0,0.0,-0.8213,-0.8537,0.0,0.0,0.0,0.0,0.0,-0.9252,0.0,0.0,-0.8271,-0.7671,0.0,0.0,0.0,0.0,0.0,0.0,-0.6283,0.0,0.0,0.0,0.0,0.0,0.0,0.0,0.0,0.0,0.0,0.0,0.0,0.0,0.0,0.0,0.0,0.0,0.0,0.0,0.0,0.0,0.0,0.0,0.0,0.0,0.0,0.0,-1.5782,-1.5994,-1.6162,-1.6608,-1.7004,-1.7318,-1.7333,-1.7613,-1.8087,-1.8179,-1.8365,-1.8827,-1.8827,-1.8883,-1.8978,-1.8978,-1.9169,-1.9519,-1.9614,-1.9995,-2.0559,-2.0813,-2.0925,-2.0925,-2.0925,-2.0925,-2.0925,-2.0925,-2.0925,-2.0925,0.0,0.0,0.0,0.0,0.0,-0.7834,-0.8293,-0.8311,-0.8366,0.0,0.0,0.0,-0.881,-0.8729,-0.8501,-0.8075,-0.804,-0.7853,-0.7463,-0.7158,-0.6935,-0.6848,-0.6261,-0.5922,-0.5883,-0.5625,-0.5473,-0.5446,-0.5643,-0.5815,-0.5954,-0.6146,-0.6577,-0.7143,0.0,0.0,0.0,0.0,0.0,0.0,-0.8465,0.0,0.0,-0.9908,-1.0016,0.0,0.0,0.0,-0.9444,-0.9444,-0.8981,0.0,0.0,0.0,0.0,0.0,0.0,0.0,0.0,0.0,0.0,0.0,0.0,0.0,0.0,-0.8532,0.0,0.0,0.0,0.0,0.0,0.0,0.0,0.0,0.0,0.0,0.0,0.0,0.0,0.0,0.0,0.0,0.0,0.0,0.0,-1.5204,-1.5401,-1.5628,-1.5899,-1.6382,-1.6889,-1.7213,-1.7228,-1.7572,-1.828,-1.828,-1.8465,-1.8827,-1.8827,-1.8827,-1.8827,-1.8827,-1.8947,-1.9153,-1.9304,-1.9598,-2.0003,-2.0496,-2.079,-2.0925,-2.0925,-2.0925,-2.0925,-2.0925,-2.0925,-2.0925,0.0,0.0,0.0,-0.8212,-0.8295,-0.8433,-0.8914,-0.8913,-0.8883,0.0,-0.9249,-0.9616,-0.9833,-0.9814,-0.9487,-0.8804,-0.8769,-0.8458,-0.7793,-0.7644,-0.7517,-0.7368,-0.6804,-0.6457,-0.6393,-0.5855,-0.5585,-0.5585,-0.5466,-0.5592,-0.5938,-0.5883,-0.6308,-0.7117,0.0,0.0,0.0,0.0,0.0,-0.8618,-0.8618,-0.9078,0.0,0.0,-1.0105,0.0,-1.0355,-1.0323,-1.0152,-1.0109,-0.9649,0.0,0.0,0.0,0.0,0.0,-0.7452,0.0,0.0,0.0,0.0,0.0,0.0,0.0,-0.8294,-0.8414,-0.8468,0.0,0.0,0.0,0.0,0.0,0.0,0.0,0.0,0.0,0.0,0.0,0.0,0.0,0.0,0.0,0.0,-1.4223,-1.4545,-1.4867,-1.4926,-1.5211,-1.5826,-1.6235,-1.6647,-1.7161,-1.7176,-1.7606,-1.8419,-1.8427,-1.8527,-1.8827,-1.8827,-1.8827,-1.8827,-1.8827,-1.8827,-1.8843,-1.9169,-1.9336,-1.9423,-2.0027,-2.0512,-2.0869,-2.0909,-2.0925,-2.0925,-2.0925,-2.0925,-2.0925,0.0,0.0,0.0,-0.8211,-0.8529,-0.8928,-0.9391,-0.9417,-0.9645,-1.0444,-1.0747,-1.0919,-1.0971,-1.0876,-1.0678,-1.0391,-1.0349,-1.0038,-0.9329,-0.8865,-0.8391,-0.7874,-0.7283,-0.6942,-0.6953,-0.6361,-0.6055,-0.6055,-0.567,-0.5487,-0.5521,-0.5501,-0.5915,-0.6637,-0.6612,0.0,0.0,0.0,0.0,-0.8755,-0.8652,0.0,-1.0238,-1.0591,-1.0768,-1.0924,-1.1305,-1.1059,-1.0518,0.0,-0.999,-0.9742,0.0,0.0,0.0,0.0,0.0,0.0,0.0,0.0,0.0,0.0,0.0,0.0,-0.8294,-0.8414,-0.8397,0.0,0.0,0.0,0.0,0.0,0.0,0.0,0.0,0.0,0.0,0.0,0.0,0.0,0.0,0.0,0.0,-1.3887,-1.4216,-1.4538,-1.4946,-1.5346,-1.5732,-1.6244,-1.6669,-1.7002,-1.7009,-1.7346,-1.8053,-1.8053,-1.8276,-1.8827,-1.8827,-1.8827,-1.8827,-1.8827,-1.8827,-1.8827,-1.8907,-1.9098,-1.9383,-1.9519,-1.994,-2.0527,-2.0813,-2.0925,-2.0925,-2.0925,-2.0925,-2.0925,0.0,0.0,-0.8424,-0.8951,-0.9206,-0.9492,-0.998,-1.0228,-1.0495,-1.0946,-1.1165,-1.129,-1.1241,-1.1149,-1.1025,-1.0837,-1.0806,-1.0595,-1.0167,-0.9815,-0.9354,-0.8828,-0.8196,-0.7711,-0.7449,-0.6929,-0.651,-0.6202,-0.5961,-0.5711,-0.5446,-0.5407,-0.5826,-0.6605,-0.6533,0.0,0.0,0.0,-0.8322,-0.8799,-0.8696,0.0,-1.0391,-1.0754,-1.1022,-1.125,-1.1585,-1.1405,-1.0942,-1.051,-1.0382,0.0,0.0,-0.9323,-0.9162,0.0,-0.8319,-0.8103,0.0,0.0,0.0,-0.8055,0.0,0.0,0.0,-0.8414,0.0,0.0,0.0,0.0,0.0,0.0,0.0,0.0,0.0,0.0,0.0,0.0,0.0,0.0,0.0,0.0,0.0,-1.3301,-1.3778,-1.4347,-1.49,-1.5302,-1.5642,-1.5913,-1.6316,-1.6906,-1.6914,-1.7249,-1.7864,-1.8037,-1.821,-1.8565,-1.874,-1.8827,-1.8827,-1.8827,-1.8827,-1.8827,-1.8827,-1.8931,-1.9113,-1.9296,-1.9574,-1.994,-2.0456,-2.0766,-2.0925,-2.0925,-2.0925,-2.0925,-0.8226,0.0,0.0,-0.9712,-0.9918,-1.0087,-1.0553,-1.0965,-1.1209,-1.1276,-1.1577,-1.1724,-1.1672,-1.1672,-1.1602,-1.1392,-1.1392,-1.1256,-1.0895,-1.0729,-1.0361,-0.9757,-0.9109,-0.8557,-0.8096,-0.7524,-0.6982,-0.6498,-0.6392,-0.6097,-0.5637,-0.5662,-0.6031,-0.6711,-0.6671,0.0,0.0,0.0,0.0,-0.8843,0.0,-0.9601,-1.0535,-1.0825,-1.1122,-1.1463,-1.1701,-1.1538,-1.1242,-1.1011,0.0,-1.0714,-1.0136,-0.9927,0.0,0.0,0.0,0.0,0.0,0.0,0.0,0.0,0.0,-0.846,0.0,0.0,0.0,0.0,0.0,0.0,0.0,0.0,0.0,0.0,0.0,0.0,0.0,0.0,0.0,0.0,0.0,0.0,0.0,-1.2755,-1.3304,-1.4126,-1.4615,-1.5019,-1.5449,-1.5525,-1.6002,-1.6781,-1.6797,-1.7085,-1.7676,-1.7962,-1.8168,-1.8303,-1.8589,-1.8764,-1.8827,-1.8827,-1.8827,-1.8827,-1.8827,-1.8827,-1.8851,-1.9145,-1.9304,-1.9534,-2.0122,-2.0567,-2.0829,-2.0893,-2.0925,-2.0925,-0.8313,-0.9012,0.0,0.0,-1.0154,-1.058,-1.1057,-1.1107,-1.1384,-1.2153,-1.2948,-1.3386,-1.3326,0.0,0.0,0.0,0.0,0.0,-1.201,0.0,-1.1342,-1.0262,-0.9677,-0.931,-0.9126,-0.822,-0.7697,-0.7618,-0.7093,-0.6592,-0.6118,-0.6481,-0.667,0.0,-0.7128,0.0,0.0,0.0,-0.8678,0.0,-0.9685,-1.0328,0.0,-1.0892,-1.1296,-1.1859,-1.1947,-1.1662,-1.1319,0.0,-1.149,-1.1148,0.0,-1.0244,0.0,0.0,0.0,0.0,0.0,0.0,0.0,0.0,-0.8842,0.0,0.0,0.0,0.0,0.0,0.0,0.0,0.0,0.0,0.0,0.0,0.0,0.0,0.0,0.0,0.0,0.0,0.0,0.0,0.0,0.0,-1.3142,-1.359,-1.414,-1.4626,-1.4976,-1.5425,-1.5842,-1.6237,-1.6245,-1.6651,-1.7326,-1.7374,-1.7699,-1.8295,-1.8343,-1.8526,-1.8827,-1.8827,-1.8827,-1.8827,-1.8827,-1.8827,-1.8827,-1.8875,-1.9167,-1.9708,-2.0221,-2.0416,-2.0488,-2.0805,-2.0925,-2.0925,-0.924,-0.9534,0.0,0.0,-1.035,-1.061,-1.1108,-1.1603,-1.2197,-1.3035,-1.3459,-1.379,0.0,0.0,0.0,0.0,0.0,-1.3541,0.0,0.0,-1.2351,-1.1238,-1.091,0.0,-0.9775,-0.9039,-0.8523,-0.8268,-0.7715,-0.7148,-0.6623,-0.6777,-0.6969,0.0,-0.7317,0.0,-0.8339,0.0,0.0,0.0,0.0,0.0,0.0,-1.1323,-1.1679,-1.2093,-1.2096,-1.2034,-1.1944,0.0,-1.2055,0.0,0.0,0.0,0.0,0.0,0.0,0.0,0.0,0.0,0.0,0.0,0.0,0.0,0.0,0.0,-0.8619,0.0,0.0,0.0,0.0,0.0,0.0,0.0,0.0,0.0,0.0,0.0,0.0,0.0,0.0,0.0,0.0,0.0,0.0,0.0,0.0,-1.4205,-1.4686,-1.4925,-1.5419,-1.6182,-1.6206,-1.6452,-1.6961,-1.7175,-1.7517,-1.7993,-1.82,-1.8486,-1.8827,-1.8827,-1.8827,-1.8827,-1.8827,-1.8827,-1.8827,-1.9012,-1.9184,-1.9487,-2.0305,-2.072,-2.0948,-2.1196,-2.1326,-2.1326,-1.0112,0.0,0.0,0.0,0.0,0.0,-1.1466,-1.231,-1.3076,0.0,0.0,0.0,-1.4687,-1.4821,0.0,0.0,0.0,-1.4402,0.0,0.0,-1.3436,-1.2309,-1.1968,0.0,0.0,0.0,-0.9305,-0.8796,-0.8382,-0.7828,-0.7156,-0.7234,-0.7363,-0.752,0.0,-0.8029,-0.8736,0.0,0.0,-1.0032,-1.0752,-1.1219,-1.1582,-1.1854,-1.2077,-1.2237,-1.2458,-1.2471,-1.2406,-1.2518,-1.2475,0.0,-1.1756,0.0,0.0,0.0,0.0,0.0,-1.0097,0.0,0.0,0.0,0.0,0.0,0.0,0.0,0.0,0.0,0.0,0.0,0.0,0.0,0.0,0.0,0.0,0.0,0.0,0.0,0.0,0.0,0.0,0.0,0.0,0.0,0.0,0.0,0.0,0.0,-1.4315,-1.4442,-1.4887,-1.5745,-1.596,-1.623,-1.6587,-1.6945,-1.7302,-1.7644,-1.7985,-1.8343,-1.8684,-1.8788,-1.8827,-1.8827,-1.8827,-1.8827,-1.892,-1.9096,-1.9279,-1.9453,-2.0467,-2.102,-2.1312,-2.156,-2.1725,-2.1623,-1.0605,-1.0594,0.0,0.0,0.0,0.0,0.0,0.0,0.0,0.0,0.0,0.0,0.0,0.0,0.0,0.0,0.0,-1.6107,-1.5119,0.0,-1.457,0.0,0.0,-1.1884,0.0,0.0,0.0,-0.9267,-0.9204,-0.8678,-0.7768,-0.811,-0.8007,-0.7608,0.0,-0.8385,-0.8736,-0.9051,-0.9671,-1.0439,-1.1234,-1.1924,-1.248,0.0,-1.2489,-1.2308,-1.3076,0.0,0.0,-1.2834,-1.2706,0.0,0.0,0.0,0.0,0.0,0.0,0.0,0.0,0.0,0.0,-0.9994,0.0,0.0,0.0,0.0,-0.9287,0.0,0.0,0.0,0.0,0.0,-0.8414,-0.8373,-0.8381,0.0,0.0,0.0,0.0,0.0,0.0,0.0,0.0,0.0,0.0,0.0,0.0,0.0,-1.3576,-1.3942,-1.4299,-1.4609,-1.534,-1.5864,-1.6222,-1.6571,-1.6937,-1.7294,-1.7636,-1.7969,-1.8327,-1.8669,-1.8827,-1.8827,-1.8827,-1.892,-1.9188,-1.9188,-1.9471,-2.0004,-2.076,-2.1239,-2.142,-2.1662,-2.1725,-2.1623,0.0,0.0,0.0,0.0,0.0,0.0,0.0,-1.3513,0.0,0.0,0.0,0.0,0.0,0.0,-1.702,0.0,0.0,-1.6486,-1.613,-1.6107,0.0,0.0,0.0,-1.3463,0.0,0.0,0.0,0.0,0.0,-0.9085,-0.8732,-0.8524,-0.8291,-0.8059,0.0,-0.8631,0.0,0.0,0.0,0.0,0.0,-1.2119,-1.2518,0.0,0.0,-1.277,-1.3247,-1.3339,0.0,-1.3348,-1.3245,-1.3033,-1.2505,-1.2307,-1.2184,-1.1535,-1.132,0.0,0.0,0.0,-1.0732,-1.0375,0.0,0.0,0.0,0.0,0.0,0.0,0.0,0.0,0.0,0.0,-0.8651,-0.8454,-0.8414,-0.8414,0.0,0.0,0.0,0.0,0.0,0.0,0.0,0.0,0.0,0.0,0.0,0.0,0.0,-1.3243,-1.3807,-1.4617,-1.4871,-1.538,-1.6198,-1.6325,-1.6683,-1.7286,-1.7612,-1.7954,-1.8311,-1.8669,-1.8827,-1.8827,-1.9012,-1.9096,-1.9188,-1.9563,-1.9745,-2.0004,-2.0933,-2.1318,-2.1499,-2.2062,-2.2342,-2.2241,-1.2266,0.0,0.0,0.0,0.0,0.0,0.0,0.0,0.0,0.0,-1.6523,0.0,-1.7881,0.0,-1.7977,0.0,-1.7914,-1.7606,-1.7134,-1.7111,0.0,-1.5599,-1.5222,0.0,0.0,0.0,0.0,0.0,0.0,-0.9645,-0.9236,-0.8904,-0.8621,-0.8386,0.0,0.0,0.0,0.0,-1.0355,0.0,0.0,-1.257,0.0,0.0,-1.3101,-1.3067,0.0,-1.3679,-1.3769,-1.3571,-1.3511,-1.3408,-1.2948,-1.2754,-1.2562,-1.1954,-1.1735,-1.1598,-1.1265,-1.1169,0.0,-1.0891,-1.074,0.0,-1.0359,0.0,0.0,0.0,0.0,0.0,0.0,0.0,-0.8969,-0.8619,-0.8564,-0.8524,0.0,-0.8414,0.0,0.0,0.0,0.0,0.0,0.0,0.0,0.0,0.0,0.0,0.0,0.0,-1.3322,-1.4236,-1.4506,-1.5086,-1.6007,-1.6142,-1.65,-1.7096,-1.7548,-1.789,-1.8128,-1.8605,-1.8827,-1.8912,-1.9096,-1.9279,-1.9463,-1.9745,-2.0012,-2.0289,-2.1079,-2.149,-2.1696,-2.2321,-2.2544,-2.2333,0.0,0.0,0.0,0.0,-1.2775,0.0,0.0,0.0,-1.6225,0.0,-1.7436,-1.8434,-1.8975,-1.9407,-1.9752,-2.0064,-1.9948,0.0,-1.8221,-1.8164,0.0,0.0,-1.5774,-1.5165,-1.4983,0.0,0.0,0.0,0.0,0.0,-0.9351,-0.9247,-0.8958,-0.852,-0.8874,0.0,-0.9718,-0.998,-1.0868,-1.2164,-1.2812,-1.3184,-1.3349,-1.3622,-1.3405,-1.313,-1.3794,-1.395,-1.3769,-1.3571,-1.3511,-1.345,-1.3363,-1.3172,-1.2923,-1.2451,-1.2228,-1.1964,-1.1614,-1.1575,-1.1567,-1.1495,0.0,0.0,0.0,0.0,-1.0415,0.0,0.0,0.0,0.0,0.0,0.0,-0.8977,-0.8929,-0.8802,-0.8494,0.0,0.0,0.0,0.0,0.0,0.0,0.0,0.0,0.0,0.0,0.0,0.0,0.0,-1.2853,-1.3537,-1.4228,-1.4935,-1.5666,-1.6015,-1.6365,-1.6746,-1.7437,-1.7771,-1.7882,-1.8502,-1.9012,-1.9188,-1.9188,-1.9471,-1.9928,-1.9953,-2.0356,-2.0917,-2.1293,-2.1679,-2.2064,-2.2415,-2.2434,-2.2123,-1.4704,-1.454,-1.4362,0.0,-1.4054,-1.4374,0.0,0.0,0.0,0.0,-1.8403,-1.8987,-1.9516,-1.9945,-2.0155,-2.01,-1.9948,0.0,0.0,0.0,0.0,-1.7741,-1.7443,-1.6608,-1.5097,-1.4652,0.0,-1.2422,0.0,0.0,-0.9958,-0.9574,-0.9098,0.0,0.0,0.0,-0.9718,-1.0155,-1.1023,-1.2164,-1.2812,-1.3234,0.0,0.0,-1.3755,-1.3847,-1.4146,-1.4079,-1.395,-1.3761,-1.364,-1.345,-1.3363,-1.3241,-1.3164,-1.2874,-1.2781,-1.2647,-1.2339,-1.2233,-1.2175,-1.1793,-1.1655,-1.1543,0.0,0.0,0.0,0.0,0.0,0.0,0.0,0.0,0.0,-0.9326,-0.9271,-0.9152,0.0,0.0,0.0,0.0,0.0,0.0,0.0,0.0,0.0,0.0,0.0,0.0,0.0,0.0,0.0,-1.3195,-1.3632,-1.4442,-1.5666,-1.5769,-1.6118,-1.6746,-1.7437,-1.7866,-1.808,-1.8781,-1.9196,-1.9487,-1.9662,-1.9745,-1.9953,-2.0424,-2.0788,-2.0942,-2.1593,-2.2073,-2.2415,-2.2509,-2.2544,-2.2434,-1.5562,0.0,0.0,-1.5716,0.0,0.0,-1.6219,0.0,0.0,-1.8627,-1.9129,0.0,-2.0406,-2.0708,-2.0807,-2.0793,-2.0756,0.0,0.0,0.0,0.0,-1.8517,-1.821,-1.7443,-1.613,-1.5406,0.0,-1.372,0.0,0.0,-1.0911,-1.0365,0.0,0.0,0.0,-0.9916,0.0,-1.0941,-1.1591,-1.2154,-1.2839,0.0,0.0,-1.3786,-1.409,-1.4475,-1.4473,-1.4249,-1.401,-1.383,-1.37,-1.3511,-1.3407,-1.3354,-1.331,-1.318,-1.305,-1.294,-1.2794,-1.2736,-1.2687,-1.2364,-1.2192,-1.2077,-1.1955,-1.1833,-1.1663,0.0,0.0,0.0,0.0,0.0,0.0,0.0,0.0,0.0,0.0,0.0,0.0,0.0,0.0,0.0,0.0,0.0,0.0,0.0,0.0,0.0,0.0,0.0,0.0,-1.3026,-1.3526,-1.4324,-1.5444,-1.5767,-1.6194,-1.675,-1.7705,-1.8213,-1.8341,-1.906,-1.9479,-1.9762,-1.9845,-1.9928,-2.0144,-2.0627,-2.0968,-2.1182,-2.1944,-2.2364,-2.2644,-2.2644,-2.2644,-2.2544,0.0,0.0,0.0,0.0,0.0,0.0,0.0,-1.7858,0.0,-1.9206,0.0,-2.0346,-2.1308,-2.1464,-2.1571,-2.1663,0.0,-2.1374,-2.0538,-2.0504,-2.009,-1.9137,-1.8609,-1.807,-1.7484,-1.6049,0.0,0.0,0.0,0.0,-1.1799,-1.1211,0.0,0.0,0.0,0.0,0.0,-1.192,-1.2318,0.0,-1.2979,-1.3661,-1.4301,-1.4024,-1.44,-1.497,-1.4775,-1.4419,-1.401,-1.389,-1.37,-1.3511,-1.3511,-1.3407,-1.3302,-1.3302,-1.3172,-1.3042,-1.3042,-1.3042,-1.3042,-1.305,-1.2811,-1.2571,-1.2571,-1.2324,-1.2132,-1.2083,-1.2083,-1.1967,0.0,0.0,0.0,0.0,0.0,0.0,0.0,0.0,0.0,0.0,0.0,0.0,0.0,0.0,0.0,0.0,0.0,0.0,0.0,0.0,0.0,-1.289,-1.3719,-1.4478,-1.5158,0.0,-1.6492,-1.6839,-1.7945,-1.8473,-1.8584,-1.9331,-1.9762,-1.9928,-1.9928,-2.0144,-2.0403,-2.0788,-2.1191,-2.1619,-2.2287,-2.2644,-2.2544,-2.2544,-2.2544,-2.2443,0.0,0.0,0.0,0.0,0.0,-1.9106,-1.8867,-1.9101,-1.9364,-1.9685,-2.0502,-2.1199,-2.138,-2.1789,-2.1966,-2.1698,-2.1698,0.0,0.0,0.0,0.0,-2.0171,-1.9677,-1.8977,-1.7981,-1.6922,-1.5946,0.0,0.0,0.0,-1.1957,-1.1398,0.0,0.0,0.0,0.0,-1.1858,-1.2235,0.0,-1.2955,-1.3252,-1.3811,-1.447,-1.4194,-1.4511,-1.5088,-1.4834,-1.4488,-1.4207,-1.401,-1.389,-1.37,-1.3571,-1.345,-1.3459,-1.3459,-1.345,-1.339,-1.339,-1.339,-1.3398,-1.3302,-1.3191,-1.3141,-1.2951,-1.2841,-1.2769,-1.2464,-1.2398,-1.2291,-1.1975,0.0,0.0,0.0,0.0,0.0,0.0,0.0,0.0,0.0,0.0,0.0,0.0,0.0,0.0,0.0,0.0,0.0,0.0,0.0,0.0,0.0,-1.3586,0.0,0.0,0.0,-1.6492,-1.6839,-1.7945,-1.8559,-1.8765,-1.951,-2.0019,-2.0201,-2.0201,-2.048,-2.0805,-2.1165,-2.1722,-2.2355,-2.2492,-2.2644,-2.2544,-2.2333,-2.2232,-2.2131,0.0,0.0,0.0,0.0,0.0,0.0,0.0,-2.0624,0.0,-2.068,-2.132,-2.1921,-2.2197,-2.2702,-2.2874,-2.2486,-2.2486,-2.2238,-2.1571,-2.156,-2.1215,-2.0446,-1.9953,0.0,-1.8552,-1.753,-1.6646,-1.59,0.0,0.0,-1.2819,-1.2252,0.0,0.0,0.0,-1.1823,0.0,0.0,0.0,-1.3135,-1.3645,-1.4175,-1.4649,-1.4612,-1.4873,-1.5254,-1.502,-1.4784,-1.4497,-1.4258,-1.401,-1.389,-1.37,-1.364,-1.364,-1.3511,-1.3511,-1.3511,-1.3511,-1.3511,-1.345,-1.3407,-1.3407,-1.3407,-1.3277,-1.3277,-1.3226,-1.305,-1.3008,-1.2898,-1.2594,-1.2167,0.0,0.0,0.0,0.0,0.0,0.0,0.0,0.0,0.0,0.0,0.0,0.0,0.0,0.0,0.0,0.0,0.0,0.0,0.0,0.0,0.0,0.0,0.0,0.0,0.0,-1.6884,-1.8196,-1.8912,-1.9032,-1.9771,-2.0201,-2.0292,-2.0292,-2.0514,-2.0925,-2.1482,-2.2047,-2.2644,-2.2644,-2.2443,-2.2333,-2.2131,-2.1928,-2.1623,0.0,-2.0395,0.0,0.0,-2.1288,0.0,-2.1535,-2.2201,-2.2406,-2.1656,-2.2125,-2.269,-2.3099,-2.352,-2.3628,-2.3282,-2.327,-2.2858,-2.2027,-2.1927,-2.1525,-2.0607,-2.0102,-1.9597,-1.908,-1.8058,-1.7243,0.0,0.0,0.0,0.0,-1.3168,0.0,0.0,0.0,0.0,0.0,0.0,-1.348,-1.3474,-1.4112,-1.4584,-1.4961,-1.4989,-1.5229,-1.542,-1.5264,-1.5029,-1.4784,-1.4497,-1.4258,-1.401,-1.389,-1.383,-1.383,-1.3631,-1.3631,-1.3571,-1.3571,-1.3571,-1.3571,-1.3511,-1.3511,-1.3511,-1.3511,-1.3511,-1.3511,-1.3511,-1.3511,-1.3425,-1.3143,-1.2774,0.0,0.0,0.0,0.0,0.0,0.0,0.0,0.0,0.0,0.0,0.0,0.0,0.0,0.0,0.0,0.0,0.0,0.0,0.0,0.0,0.0,-1.4718,-1.4795,0.0,-1.6961,-1.7055,-1.8485,-1.917,-1.9196,-1.986,-2.0201,-2.0201,-2.0286,-2.0492,-2.0976,-2.1637,-2.2079,-2.2443,-2.2443,-2.2232,-2.203,-2.192,-2.1623,-2.1318,0.0,0.0,0.0,0.0,0.0,0.0,-2.3182,-2.3502,-2.332,-2.2246,-2.3003,-2.364,-2.3688,-2.3737,-2.3694,-2.3494,-2.3482,-2.3069,-2.2236,-2.2201,-2.1881,-2.1187,-2.0607,-2.0113,-1.9631,-1.8598,-1.7546,0.0,0.0,0.0,0.0,-1.3776,0.0,0.0,0.0,0.0,0.0,-1.3542,-1.3911,-1.4556,-1.4482,-1.4831,-1.5324,-1.522,-1.5409,-1.5614,-1.5332,-1.5156,-1.5088,-1.4775,-1.4488,-1.4267,-1.401,-1.401,-1.401,-1.395,-1.395,-1.395,-1.3821,-1.3769,-1.37,-1.3571,-1.3511,-1.3511,-1.3511,-1.3511,-1.3511,-1.3511,-1.3511,-1.3502,-1.3468,-1.3168,-1.292,0.0,0.0,0.0,0.0,0.0,0.0,0.0,0.0,0.0,0.0,0.0,0.0,0.0,0.0,0.0,0.0,0.0,0.0,-1.2389,0.0,-1.4838,-1.5163,-1.6328,-1.709,-1.7432,-1.8614,-1.917,-1.9204,-1.9681,-1.9928,-1.9953,-2.0095,-2.055,-2.1238,-2.1619,-2.1794,-2.1827,-2.1827,-2.1725,-2.1725,-2.142,-2.1326,-2.1224,0.0,0.0,0.0,0.0,0.0,0.0,0.0,-2.4014,-2.4073,-2.364,-2.3953,-2.4218,-2.4218,-2.4506,-2.463,-2.4491,-2.4491,-2.3997,-2.2889,-2.2776,-2.2337,-2.1371,-2.0862,-2.0303,-1.97,-1.8965,-1.8093,0.0,0.0,0.0,0.0,0.0,0.0,0.0,0.0,-1.3683,-1.3806,-1.4275,-1.4612,-1.4853,-1.5277,-1.5552,-1.568,-1.5746,-1.5743,-1.5798,-1.5566,-1.5391,-1.5156,-1.5029,-1.4793,-1.4488,-1.4258,-1.4198,-1.4139,-1.401,-1.401,-1.401,-1.395,-1.395,-1.3942,-1.4101,-1.4153,-1.4223,-1.4325,-1.4314,-1.4323,-1.4213,-1.4213,-1.4213,-1.4213,-1.3905,-1.3648,0.0,0.0,0.0,0.0,0.0,0.0,0.0,0.0,0.0,0.0,0.0,0.0,0.0,0.0,0.0,0.0,0.0,0.0,-1.3048,0.0,-1.4975,-1.5557,-1.6465,-1.7218,-1.7817,-1.8574,-1.9117,-1.9346,-1.9611,-1.987,-2.0002,-2.0376,-2.0735,-2.1238,-2.1585,-2.1725,-2.1725,-2.1725,-2.1623,-2.1428,-2.1326,-2.1224,-2.1019,-2.4217,0.0,-2.4755,0.0,-2.4505,-2.4377,-2.4518,-2.4655,-2.4747,-2.4747,-2.4747,-2.4747,-2.4747,-2.5083,-2.5241,-2.5182,-2.5182,-2.466,-2.3632,-2.3364,-2.2815,-2.1794,-2.128,0.0,-2.0085,-1.9553,-1.8732,-1.7705,-1.7145,0.0,0.0,0.0,0.0,0.0,-1.4631,-1.4642,-1.4549,-1.5114,-1.5339,-1.5372,-1.5945,-1.6125,-1.6119,-1.6172,-1.6066,-1.5972,-1.573,-1.5566,-1.5332,-1.5215,-1.5029,-1.4784,-1.4497,-1.4437,-1.4378,-1.4198,-1.4139,-1.4139,-1.4079,-1.4159,-1.431,-1.4515,-1.4666,-1.4826,-1.498,-1.4976,-1.4985,-1.4872,-1.4872,-1.4806,-1.4741,-1.4509,-1.4328,-1.4273,0.0,0.0,0.0,0.0,0.0,0.0,0.0,-1.2415,-1.2038,0.0,0.0,0.0,0.0,0.0,0.0,0.0,0.0,0.0,0.0,0.0,0.0,-1.6602,-1.7269,-1.804,-1.8524,-1.8933,-1.9301,-1.9521,-1.9747,-2.0091,-2.0459,-2.0835,-2.1086,-2.1322,-2.142,-2.142,-2.142,-2.1326,-2.1224,-2.1224,-2.1019,-2.0925,-2.4732,-2.482,-2.482,-2.482,-2.4715,-2.4835,-2.5542,-2.5441,-2.53,-2.53,-2.53,-2.53,-2.53,-2.5312,-2.5312,-2.5312,-2.5312,-2.5013,-2.436,-2.3768,-2.319,0.0,0.0,-2.144,-2.0887,-2.037,-1.9549,-1.841,0.0,0.0,-1.66,0.0,-1.655,-1.6539,-1.6428,-1.6289,-1.6149,-1.6047,-1.6077,-1.6256,-1.6267,-1.6447,-1.657,-1.6431,-1.6249,-1.6056,-1.5788,-1.5672,-1.5614,-1.5332,-1.5215,-1.5156,-1.4775,-1.4715,-1.4656,-1.4506,-1.4506,-1.4455,-1.4327,-1.4608,-1.4844,-1.464,-1.4879,-1.518,-1.5189,-1.5189,-1.5189,-1.5189,-1.5189,-1.5115,-1.4911,-1.4902,-1.4846,-1.4732,0.0,0.0,0.0,0.0,0.0,0.0,-1.2971,-1.2817,-1.2423,0.0,0.0,0.0,0.0,0.0,0.0,0.0,0.0,-1.3502,-1.4273,0.0,-1.6401,-1.6721,-1.7327,-1.8171,-1.865,-1.8854,-1.9043,-1.9491,-1.9821,-1.9876,-2.0234,-2.0591,-2.0917,-2.0917,-2.0925,-2.0925,-2.0925,-2.0925,-2.0925,-2.0925,-2.0925,-2.0925,-2.598,-2.5937,-2.5937,-2.5937,-2.5698,-2.566,-2.6094,-2.5708,-2.5432,-2.5793,-2.5528,-2.5312,-2.5312,-2.5312,-2.5312,0.0,-2.5312,-2.5083,0.0,-2.3982,-2.3389,-2.2681,-2.2147,-2.1552,-2.0887,-2.0723,-2.0147,-1.9069,0.0,0.0,0.0,-1.6623,-1.6623,-1.6573,-1.6462,-1.6361,-1.6334,-1.658,-1.6669,-1.6644,-1.6918,-1.6959,-1.6853,-1.6637,-1.642,-1.6249,-1.6066,-1.5894,-1.5798,-1.5624,-1.5566,-1.5508,-1.5147,-1.497,-1.4843,-1.4666,-1.4666,-1.4606,-1.4446,-1.4739,-1.5104,-1.5296,-1.5678,-1.5993,-1.6111,-1.6038,-1.5978,-1.5978,-1.5978,-1.5901,-1.5901,-1.568,-1.5504,-1.5446,-1.512,0.0,0.0,0.0,0.0,0.0,-1.3339,-1.3194,0.0,-1.2792,0.0,0.0,0.0,0.0,0.0,0.0,0.0,0.0,-1.5043,0.0,-1.673,-1.7364,-1.7963,-1.8564,-1.8854,-1.8953,-1.8859,-1.9333,-1.9638,-1.9884,-2.0241,-2.0599,-2.0925,-2.0925,-2.0925,-2.0925,-2.0925,-2.0925,-2.0925,-2.0925,-2.0925,-2.0925,-2.6533,-2.6533,-2.6533,-2.6533,-2.6037,-2.6043,-2.7007,-2.6574,-2.6033,-2.5829,-2.5685,-2.5528,-2.5336,-2.5312,0.0,-2.5312,-2.5312,-2.5168,-2.4831,-2.4157,-2.3616,-2.3149,-2.2381,-2.1844,-2.1376,-2.1175,0.0,-2.0062,-1.9274,-1.8419,-1.7482,-1.734,-1.73,-1.7249,-1.7134,-1.7031,-1.699,-1.7255,-1.7241,-1.7124,-1.7313,-1.7256,-1.7078,-1.6853,-1.6637,-1.642,-1.6306,-1.6124,-1.5961,-1.5798,-1.574,-1.5672,-1.5449,-1.5264,-1.5137,-1.4902,-1.4834,-1.4812,-1.481,-1.5081,-1.5477,-1.5826,-1.6239,-1.6528,-1.6697,-1.6621,-1.656,-1.656,-1.656,-1.6482,-1.6412,-1.6276,-1.6106,-1.5978,-1.565,-1.5322,-1.4953,0.0,0.0,0.0,0.0,0.0,0.0,-1.3674,-1.3519,0.0,0.0,0.0,0.0,0.0,0.0,-1.5078,-1.5557,0.0,-1.7115,-1.7732,-1.8252,-1.8654,-1.8807,-1.8886,-1.8843,-1.9336,-1.9669,-1.9892,-2.0377,-2.0718,-2.0925,-2.0925,-2.0925,-2.0925,-2.0925,-2.0925,-2.0925,-2.0925,-2.0925,-2.0925,-2.676,-2.676,-2.676,0.0,-2.6037,0.0,-2.821,-2.7933,-2.7019,-2.5709,-2.5829,-2.5853,-2.536,-2.5312,-2.5312,-2.5312,0.0,0.0,0.0,-2.4338,-2.3773,-2.3773,-2.2763,-2.2197,-2.2197,-2.1716,-2.138,-2.12,-2.0027,-1.9227,-1.872,-1.8534,-1.848,-1.848,-1.8216,-1.803,-1.7897,-1.7909,-1.7865,-1.77,-1.7579,-1.7423,-1.7267,-1.7078,-1.6842,-1.6637,-1.6488,-1.6306,-1.6114,-1.5961,-1.5856,-1.573,-1.574,-1.5624,-1.54,-1.5098,-1.5048,-1.5103,-1.5247,-1.5666,-1.6021,-1.6287,-1.6615,-1.6908,-1.6908,-1.6908,-1.6908,-1.6908,-1.6908,-1.683,-1.6682,-1.6603,-1.6542,-1.6342,-1.6109,-1.586,-1.5833,0.0,0.0,0.0,0.0,0.0,0.0,-1.4798,-1.4684,0.0,0.0,0.0,0.0,0.0,-1.5137,-1.578,-1.5874,-1.643,-1.7492,-1.7912,-1.8245,-1.8452,-1.8691,-1.8843,-1.8891,-1.9558,-1.9876,-1.994,-2.0623,-2.0925,-2.0925,-2.0925,-2.0925,-2.0925,-2.0925,-2.0925,-2.0925,-2.0925,-2.0925,-2.0925,0.0,0.0,-2.9001,-2.9001,-2.8292,-2.7921,-2.8426,-2.8366,-2.8126,-2.7801,-2.643,-2.5444,-2.5324,-2.5312,-2.5312,-2.5312,-2.5312,-2.5312,-2.5312,-2.4338,-2.3773,-2.3773,-2.2763,-2.2197,-2.2197,-2.2065,-2.1801,-2.1332,-2.0556,-2.0118,-1.9975,-1.9427,-1.9139,-1.9116,-1.8596,-1.8313,-1.8247,-1.8139,-1.7975,-1.7854,-1.7799,-1.7634,-1.7423,-1.7267,-1.7088,-1.6842,-1.6637,-1.6524,-1.6457,-1.6171,-1.6009,-1.6009,-1.5904,-1.5959,-1.5969,-1.5361,-1.5377,-1.5584,-1.5557,-1.6071,-1.6666,-1.6769,-1.6945,-1.7107,-1.6908,-1.6908,-1.6908,-1.6908,-1.6908,-1.6908,-1.683,-1.683,-1.683,-1.6769,-1.6688,-1.6524,-1.6089,-1.5963,0.0,0.0,-1.518,-1.5115,-1.5115,-1.4985,-1.4854,0.0,0.0,0.0,0.0,-1.6079,-1.6208,-1.5814,-1.6627,-1.7338,-1.7894,-1.8571,-1.9031,-1.9323,-1.9206,-1.9156,-1.9256,-1.9677,-2.0011,-2.0289,-2.0734,-2.0925,-2.0925,-2.0925,-2.0925,-2.0925,-2.0925,-2.0925,-2.0925,-2.0925,-2.0925,-2.0925,-2.9792,-2.9792,-2.9792,-2.9792,-2.939,-2.9064,-2.9064,-2.8749,-2.851,-2.851,-2.7079,-2.5853,-2.536,-2.5312,-2.5312,-2.5312,-2.5312,-2.5312,-2.5312,-2.4338,-2.3773,-2.3773,-2.2763,-2.2197,-2.2197,-2.2197,-2.1933,-2.1404,-2.1044,-2.0722,-2.0483,-2.0082,-1.9838,-1.9826,-1.943,-1.9116,-1.8838,-1.8649,-1.84,-1.8139,-1.7963,-1.7799,-1.7634,-1.7479,-1.7312,-1.7088,-1.6853,-1.674,-1.6637,-1.64,-1.643,-1.6489,-1.6323,-1.6507,-1.6687,-1.6276,-1.6191,-1.623,-1.6287,-1.6615,-1.7025,-1.7159,-1.7232,-1.7314,-1.7185,-1.7116,-1.7038,-1.7038,-1.6968,-1.6908,-1.6908,-1.6908,-1.6908,-1.6908,-1.6908,-1.6835,-1.6478,-1.6451,0.0,-1.6017,-1.5914,-1.5909,-1.6106,-1.5901,-1.5834,-1.5939,-1.6277,0.0,-1.631,-1.6858,-1.6987,-1.6576,-1.7321,-1.7912,-1.8288,-1.8956,-1.9453,-1.9762,-1.9479,-1.9483,-1.9565,-1.9902,-2.0157,-2.0408,-2.0766,-2.0925,-2.0925,-2.0925,-2.0925,-2.0925,-2.0925,-2.0925,-2.0925,-2.0925,-2.0925,-2.0925,-2.9792,-2.9792,-2.9792,-2.9792,-2.9792,-2.9792,-2.9792,-2.9155,-2.8669,-2.8669,-2.7529,-2.6334,-2.5408,-2.5312,-2.5382,-2.5382,-2.5382,-2.5382,-2.5312,-2.4406,-2.3827,-2.3827,-2.2826,-2.2259,-2.2259,-2.2259,-2.203,-2.1584,-2.1584,-2.1296,-2.0851,-2.0638,-2.0544,-2.0532,-2.0357,-1.9957,-1.9545,-1.934,-1.9039,-1.8643,-1.8221,-1.8066,-1.8011,-1.7711,-1.7479,-1.7334,-1.7134,-1.7008,-1.697,-1.6789,-1.6932,-1.715,-1.702,-1.7206,-1.7438,-1.7438,-1.7183,-1.6982,-1.7145,-1.7205,-1.7273,-1.7512,-1.7529,-1.7539,-1.747,-1.7392,-1.7235,-1.7235,-1.7107,-1.6978,-1.6978,-1.6908,-1.6908,-1.6908,-1.6908,-1.6908,-1.6908,0.0,-1.6927,-1.6991,-1.6842,-1.6856,-1.727,-1.7152,-1.714,-1.7252,-1.7331,-1.7223,-1.708,-1.7493,-1.7716,-1.7638,-1.7954,-1.8323,-1.8751,-1.9287,-1.9706,-1.9928,-1.9762,-1.9701,-1.9819,-2.0127,-2.0393,-2.0588,-2.0891,-2.0917,-2.0925,-2.0925,-2.0925,-2.0925,-2.0925,-2.0925,-2.0925,-2.0925,-2.0925,-2.0925,-2.9792,-2.9792,-2.9792,-2.9792,-2.9792,-2.9792,-2.9792,-2.9714,-2.9636,-2.9636,-2.7237,-2.5492,-2.5324,-2.5523,-2.5664,-2.5664,-2.5746,-2.5676,-2.5312,-2.4461,-2.3947,-2.3947,-2.313,-2.2616,-2.2616,-2.2616,-2.2519,-2.2237,-2.2237,-2.214,-2.1945,-2.1488,-2.1212,-2.12,-2.0628,-2.032,-2.0237,-2.0075,-1.9982,-1.9865,-1.9169,-1.8871,-1.8668,-1.8068,-1.7744,-1.7601,-1.7323,-1.7518,-1.7788,-1.7429,-1.7582,-1.7861,-1.78,-1.7864,-1.7958,-1.7958,-1.8112,-1.8145,-1.7629,-1.7684,-1.7852,-1.7696,-1.7647,-1.7647,-1.7529,-1.747,-1.747,-1.747,-1.7314,-1.7166,-1.7166,-1.7038,-1.6908,-1.6908,-1.6908,-1.6908,-1.6908,0.0,-1.7027,-1.7367,-1.7403,-1.7496,-1.7916,-1.7796,-1.7656,-1.7719,-1.789,-1.7846,-1.7631,-1.8299,-1.8581,-1.8408,-1.8468,-1.8845,-1.9555,-1.9992,-2.0051,-1.9928,-1.9845,-2.0112,-2.0578,-2.0636,-2.0827,-2.1143,-2.12,-2.1121,-2.0925,-2.0925,-2.0925,-2.0925,-2.0925,-2.0925,-2.0925,-2.0925,-2.0925,-2.0925,-2.9792,-2.9792,-2.9792,-2.9792,-2.9792,-2.9792,-2.9792,-2.9792,-2.9792,-2.9792,-2.7543,-2.5955,-2.5955,-2.6025,-2.6094,-2.5955,-2.5955,-2.5898,-2.5606,-2.4688,-2.4157,-2.4157,-2.3193,-2.269,-2.269,-2.269,-2.2678,-2.2555,-2.2555,-2.2555,-2.2432,-2.2116,-2.1934,-2.1922,-2.156,-2.1236,-2.0913,-2.0795,-2.057,-2.0286,-1.9865,-1.9598,-1.9402,-1.9034,-1.8771,-1.8611,-1.8391,-1.8419,-1.8467,-1.823,-1.8384,-1.8605,-1.8532,-1.8584,-1.8764,-1.8764,-1.8645,-1.8432,-1.8088,-1.8054,-1.8144,-1.793,-1.7862,-1.7862,-1.7803,-1.7666,-1.7588,-1.7588,-1.7451,-1.7392,-1.7392,-1.7176,-1.7038,-1.7038,-1.6968,0.0,0.0,-1.7092,-1.7293,-1.7477,-1.7697,-1.799,-1.8403,-1.8355,-1.837,-1.8434,-1.8734,-1.8798,-1.8656,-1.902,-1.9253,-1.9376,-1.9299,-1.9478,-2.0035,-2.0206,-2.0201,-2.011,-2.011,-2.0408,-2.0845,-2.0845,-2.1147,-2.1522,-2.1522,-2.1326,-2.1121,-2.1121,-2.1019,-2.0925,-2.0925,-2.0925,-2.0925,-2.0925,-2.0925,-2.0925,-2.9869,-2.9792,-2.9792,-2.9792,-2.9792,-2.9792,-2.9792,-2.9792,-2.9616,-2.9089,-2.7519,-2.6533,-2.6533,-2.6533,-2.6383,-2.6245,-2.6164,-2.6176,-2.605,-2.5024,-2.4431,-2.4353,-2.338,-2.28,-2.28,-2.28,-2.28,-2.2739,-2.2739,-2.2739,-2.269,-2.2555,-2.2482,-2.2494,-2.2371,-2.2091,-2.1644,-2.1512,-2.1212,-2.0783,-2.0546,-2.0323,-2.0182,-1.9877,-1.9643,-1.9465,-1.9298,-1.9257,-1.9226,-1.8984,-1.9127,-1.9403,-1.919,-1.9253,-1.9341,-1.9341,-1.9085,-1.8617,-1.8405,-1.8347,-1.8337,-1.8144,-1.8076,-1.8105,-1.8203,-1.8066,-1.7958,-1.8054,-1.7954,-1.7834,-1.7834,-1.7675,-1.7525,-1.7525,0.0,0.0,0.0,-1.7521,-1.7742,-1.7761,-1.8064,-1.8421,-1.8806,-1.8852,-1.8939,-1.919,-1.9498,-1.9624,-1.9484,-1.968,-1.9904,-2.021,-1.9961,-2.0009,-2.0292,-2.0292,-2.0292,-2.0292,-2.0292,-2.0593,-2.1126,-2.1126,-2.1335,-2.1827,-2.1827,-2.1623,-2.1428,-2.1326,-2.1224,-2.1027,-2.0925,-2.0925,-2.0925,-2.0925,-2.0925,-2.0925,-2.9946,-2.9792,-2.9792,-2.9792,-2.9792,-2.9792,-2.9792,-2.9792,-2.9051,-2.6979,-2.6634,-2.6533,-2.6533,-2.6533,-2.6465,-2.6452,-2.6452,-2.6465,-2.6465,-2.5369,-2.4678,-2.4471,-2.3604,-2.3078,-2.3078,-2.3078,-2.3017,-2.2909,-2.2909,-2.28,-2.269,-2.2678,-2.2678,-2.269,-2.269,-2.2531,-2.2298,-2.2298,-2.2224,-2.2029,-2.1404,-2.1141,-2.1033,-2.0205,-1.9901,-1.9842,-1.9524,-1.9723,-2.007,-1.9749,-1.9797,-1.9987,-1.9879,-1.9704,-1.9605,-1.9605,-1.9417,-1.9152,-1.8617,-1.8482,-1.8482,-1.8482,-1.8347,-1.8378,-1.8775,-1.8654,-1.863,-1.9102,-1.9054,-1.8918,-1.8918,-1.8753,-1.8597,-1.8597,0.0,0.0,-1.8313,-1.8341,-1.8425,-1.8577,-1.865,-1.8825,-1.9219,-1.9256,-1.943,-1.977,-1.9834,-1.9925,-2.0129,-2.0517,-2.0651,-2.0692,-2.043,-2.0266,-2.0292,-2.0292,-2.0292,-2.0292,-2.0292,-2.0686,-2.1405,-2.1405,-2.162,-2.2021,-2.2021,-2.1928,-2.1623,-2.142,-2.1326,-2.1224,-2.1019,-2.0925,-2.0925,-2.0925,-2.0925,-2.0925,-3.0609,-3.0533,-3.0533,-3.0533,-3.0088,-2.9792,-2.9792,-2.9792,-2.8988,-2.6823,-2.6533,-2.6533,-2.6533,-2.6533,-2.6533,-2.6533,-2.6533,-2.6533,-2.6533,-2.5435,-2.4442,-2.3679,-2.3303,-2.3078,-2.3078,-2.3078,-2.3078,-2.3017,-2.3017,-2.3017,-2.2969,-2.2848,-2.28,-2.28,-2.2739,-2.2678,-2.2616,-2.2616,-2.2482,-2.2285,-2.2079,-2.1812,-2.1604,-2.1292,-2.1099,-2.0976,-2.0696,-2.071,-2.0757,-2.0556,-2.0362,-2.0259,-2.0205,-1.9998,-1.9736,-1.9615,-1.9473,-1.9285,-1.9085,-1.8808,-1.8684,-1.8549,-1.8692,-1.8864,-1.8874,-1.9051,-1.9226,-1.9258,-1.9214,-1.9224,-1.9224,-1.8995,-1.8922,-1.8922,0.0,-1.8682,-1.8618,-1.8779,-1.892,-1.8917,-1.909,-1.9303,-1.9292,-1.954,-1.976,-1.9916,-2.0383,-2.0647,-2.0707,-2.1029,-2.1051,-2.0736,-2.0564,-2.0473,-2.0292,-2.0292,-2.0292,-2.0292,-2.0292,-2.0686,-2.1413,-2.1413,-2.1727,-2.2443,-2.2443,-2.2232,-2.1928,-2.1827,-2.1725,-2.1522,-2.1224,-2.1121,-2.1121,-2.0917,-2.0925,-2.0925,-3.0986,-3.0986,-3.0986,-3.0986,-3.0533,-3.0164,-3.0164,-3.0164,-2.9289,-2.6823,-2.6533,-2.6602,-2.6794,-2.6794,-2.6794,-2.6739,-2.6726,-2.6739,-2.6671,-2.562,-2.4432,-2.3248,-2.3258,-2.3258,-2.3258,-2.3258,-2.3258,-2.3198,-2.3198,-2.3138,-2.3078,-2.3017,-2.2969,-2.2969,-2.2848,-2.28,-2.2739,-2.2739,-2.2678,-2.2482,-2.242,-2.2235,-2.2049,-2.1925,-2.1812,-2.1749,-2.1549,-2.1411,-2.1221,-2.1031,-2.0775,-2.0529,-2.054,-2.027,-2.0009,-1.9736,-1.9605,-1.9505,-1.9596,-1.9427,-1.9157,-1.8954,-1.9231,-1.9535,-1.9504,-1.963,-1.9806,-1.9816,-1.9772,-1.9687,-1.9687,-1.9623,-1.9474,-1.9474,-1.9389,-1.9305,-1.923,-1.9412,-1.9525,-1.9275,-1.9537,-1.9683,-1.9565,-1.9832,-2.0026,-2.0283,-2.0805,-2.1163,-2.1291,-2.1328,-2.1212,-2.0934,-2.0744,-2.0654,-2.0473,-2.0382,-2.0292,-2.0292,-2.0292,-2.0686,-2.1413,-2.1413,-2.1824,-2.2644,-2.2644,-2.2443,-2.2232,-2.2123,-2.2021,-2.1827,-2.1522,-2.1318,-2.1326,-2.1121,-2.1019,-2.0925,-3.0986,-3.0986,-3.0986,-3.0986,-3.0986,-3.0986,-3.0973,-3.0973,-2.993,-2.6892,-2.6533,-2.6794,-2.7403,-2.7523,-2.7403,-2.7214,-2.7214,-2.7146,-2.7011,-2.5935,-2.4732,-2.3454,-2.3509,-2.3628,-2.3628,-2.3628,-2.3509,-2.3403,-2.3403,-2.3271,-2.3078,-2.3078,-2.3078,-2.3078,-2.3078,-2.3017,-2.2909,-2.2909,-2.28,-2.2678,-2.2482,-2.242,-2.2359,-2.2049,-2.1925,-2.1862,-2.1761,-2.1549,-2.1388,-2.1221,-2.1094,-2.0903,-2.0733,-2.054,-2.0335,-1.9998,-1.9868,-1.9975,-2.0258,-2.0191,-1.9986,-1.9837,-1.998,-2.0288,-2.0726,-2.0511,-2.0341,-2.0807,-2.0731,-2.0566,-2.0566,-2.0566,-2.0566,-2.0566,-2.0566,-2.0489,-2.0342,-2.0264,-2.0186,-1.9942,-1.9942,-1.9953,-2.0195,-2.0251,-2.0421,-2.1053,-2.1108,-2.1291,-2.1713,-2.1482,-2.1392,-2.1392,-2.0934,-2.0744,-2.0744,-2.0473,-2.0292,-2.0292,-2.0292,-2.0677,-2.1405,-2.1413,-2.1824,-2.2644,-2.2644,-2.2644,-2.2544,-2.2232,-2.2123,-2.2123,-2.1827,-2.1522,-2.1326,-2.1326,-2.1121,-2.0925,-3.1061,-3.0986,-3.0986,-3.0986,-3.0986,-3.0712,-2.9915,-2.9797,-2.9177,-2.7462,-2.7201,-2.7268,-2.7469,-2.7523,-2.7403,-2.7214,-2.7214,-2.6799,-2.5871,-2.5614,-2.4919,-2.3811,-2.3628,-2.3628,-2.3628,-2.3628,-2.3569,-2.3509,-2.3509,-2.3509,-2.3437,-2.3437,-2.339,-2.333,-2.333,-2.321,-2.3017,-2.3017,-2.2969,-2.286,-2.2787,-2.2665,-2.2555,-2.2359,-2.2235,-2.2235,-2.1937,-2.18,-2.1726,-2.14,-2.1221,-2.1031,-2.0797,-2.054,-2.041,-2.027,-2.0314,-2.0407,-2.0479,-2.0855,-2.1058,-2.0589,-2.0648,-2.0812,-2.0798,-2.0998,-2.111,-2.1098,-2.0974,-2.0819,-2.0819,-2.0731,-2.0566,-2.0566,-2.0566,-2.0566,-2.0489,-2.0489,-2.0411,-2.0186,-2.0445,-2.0585,-2.0476,-2.1023,-2.1381,-2.1358,-2.1471,-2.1603,-2.1731,-2.1651,-2.1571,-2.1392,-2.1302,-2.1024,-2.0744,-2.0473,-2.0292,-2.0292,-2.0292,-2.0557,-2.1045,-2.1293,-2.1687,-2.2175,-2.2432,-2.2644,-2.2544,-2.2443,-2.2443,-2.2434,-2.2131,-2.1827,-2.1522,-2.1326,-2.1121,-2.0925,-3.136,-3.1211,-3.1123,-3.0986,-3.0607,-3.0085,-2.9392,-2.8882,-2.8333,-2.7628,-2.7523,-2.7523,-2.7523,-2.7523,-2.7469,-2.7335,-2.7335,-2.6789,-2.5574,-2.556,-2.5117,-2.406,-2.3878,-2.3806,-2.3806,-2.3806,-2.3747,-2.37,-2.37,-2.37,-2.3628,-2.3628,-2.3569,-2.345,-2.345,-2.339,-2.321,-2.321,-2.315,-2.2969,-2.2909,-2.2848,-2.2739,-2.2616,-2.2482,-2.2359,-2.2173,-2.1987,-2.1862,-2.1663,-2.1474,-2.1221,-2.0914,-2.0722,-2.0627,-2.0697,-2.0753,-2.0869,-2.1192,-2.156,-2.1741,-2.1573,-2.1471,-2.1458,-2.1244,-2.1384,-2.1512,-2.1359,-2.1138,-2.0984,-2.0906,-2.0819,-2.0654,-2.0644,-2.0566,-2.0566,-2.0566,-2.0566,-2.0635,-2.0663,-2.0905,-2.1115,-2.1205,-2.1702,-2.1892,-2.1783,-2.1771,-2.183,-2.1741,-2.1741,-2.1651,-2.1482,-2.1482,-2.1302,-2.1024,-2.0654,-2.0382,-2.0292,-2.0292,-2.0497,-2.0891,-2.1105,-2.149,-2.2004,-2.2235,-2.2415,-2.2644,-2.2644,-2.2644,-2.2544,-2.2342,-2.2131,-2.1827,-2.1522,-2.1326,-2.1019,-3.1817,-3.1582,-3.1334,-3.1071,-3.0118,-2.9385,-2.9293,-2.8363,-2.7589,-2.7536,-2.7536,-2.7536,-2.7536,-2.7536,-2.7536,-2.7536,-2.7536,-2.704,-2.5903,-2.5824,-2.5315,-2.4164,-2.4112,-2.4112,-2.4112,-2.4112,-2.4067,-2.3891,-2.3891,-2.3819,-2.3628,-2.3628,-2.3628,-2.3628,-2.3628,-2.3569,-2.3403,-2.3403,-2.333,-2.3138,-2.2969,-2.2909,-2.2909,-2.28,-2.2616,-2.242,-2.242,-2.2173,-2.1925,-2.1925,-2.1663,-2.1325,-2.1019,-2.0937,-2.0997,-2.1108,-2.123,-2.1428,-2.2133,-2.2252,-2.2226,-2.2595,-2.2402,-2.2101,-2.1883,-2.1655,-2.1502,-2.1502,-2.1359,-2.1205,-2.0984,-2.0906,-2.0829,-2.0654,-2.0644,-2.0644,-2.0566,-2.0566,-2.0732,-2.1182,-2.1269,-2.1539,-2.2186,-2.2217,-2.2226,-2.2157,-2.2097,-2.2008,-2.1741,-2.1731,-2.1741,-2.1741,-2.1482,-2.1401,-2.1392,-2.1024,-2.0654,-2.0382,-2.0292,-2.048,-2.0831,-2.09,-2.1293,-2.1944,-2.2013,-2.2235,-2.2644,-2.2644,-2.2644,-2.2644,-2.2644,-2.2434,-2.2021,-2.1827,-2.1522,-2.1224,-3.189,-3.1817,-3.1583,-3.0897,-3.0533,-3.0055,-2.9154,-2.8783,-2.8464,-2.8,-2.7947,-2.7947,-2.7947,-2.7947,-2.7947,-2.7947,-2.7947,-2.7444,-2.625,-2.6184,-2.5654,-2.4558,-2.4505,-2.4505,-2.4505,-2.4229,-2.4112,-2.4067,-2.4067,-2.4054,-2.3995,-2.3995,-2.3936,-2.3819,-2.3819,-2.37,-2.3569,-2.3569,-2.345,-2.333,-2.3283,-2.321,-2.3017,-2.2909,-2.2848,-2.2787,-2.2482,-2.2359,-2.2235,-2.1987,-2.1663,-2.1388,-2.1325,-2.1369,-2.1538,-2.1585,-2.2014,-2.2503,-2.2512,-2.2772,-2.2944,-2.2745,-2.2628,-2.2478,-2.2101,-2.1883,-2.1731,-2.1731,-2.1578,-2.1436,-2.1359,-2.1205,-2.1051,-2.0896,-2.0819,-2.0819,-2.0644,-2.0566,-2.0732,-2.1182,-2.1533,-2.1953,-2.2376,-2.2563,-2.2698,-2.2618,-2.2274,-2.2097,-2.2008,-2.183,-2.1741,-2.1741,-2.1651,-2.1562,-2.1392,-2.1302,-2.1024,-2.0654,-2.0382,-2.0335,-2.0437,-2.1028,-2.1379,-2.1576,-2.2167,-2.2475,-2.2644,-2.2644,-2.2644,-2.2644,-2.2644,-2.2434,-2.2123,-2.2021,-2.1725,-2.1224,-3.2155,-3.1866,-3.1438,-3.09,-3.0378,-2.972,-2.8983,-2.8651,-2.8425,-2.8132,-2.8079,-2.8079,-2.8079,-2.8079,-2.8079,-2.8079,-2.8079,-2.7573,-2.6374,-2.6294,-2.5775,-2.4673,-2.462,-2.462,-2.462,-2.4447,-2.4345,-2.4345,-2.4216,-2.4203,-2.4203,-2.4112,-2.4067,-2.4008,-2.4008,-2.3878,-2.376,-2.376,-2.3641,-2.3509,-2.3463,-2.333,-2.321,-2.3078,-2.2969,-2.2848,-2.2726,-2.2543,-2.2359,-2.1987,-2.1788,-2.1647,-2.1754,-2.1851,-2.1976,-2.2253,-2.2682,-2.2981,-2.3072,-2.3183,-2.3224,-2.3075,-2.2852,-2.2628,-2.2327,-2.2111,-2.1949,-2.1949,-2.1807,-2.1578,-2.1512,-2.1436,-2.1282,-2.1061,-2.1051,-2.0984,-2.0886,-2.0987,-2.1204,-2.1656,-2.2007,-2.2344,-2.2773,-2.2843,-2.2882,-2.2803,-2.2539,-2.2362,-2.2264,-2.2008,-2.1919,-2.1919,-2.1741,-2.1651,-2.1562,-2.1482,-2.1302,-2.1024,-2.0654,-2.0568,-2.0758,-2.107,-2.1353,-2.1713,-2.2115,-2.2381,-2.2644,-2.2644,-2.2644,-2.2644,-2.2644,-2.2443,-2.2333,-2.2131,-2.1725,-2.1326,-3.2338,-3.1659,-3.1097,-3.0791,-2.9956,-2.9174,-2.8879,-2.8452,-2.821,-2.821,-2.821,-2.821,-2.821,-2.821,-2.821,-2.821,-2.8117,-2.7531,-2.6436,-2.6262,-2.5788,-2.4717,-2.4677,-2.4677,-2.4677,-2.4677,-2.4677,-2.462,-2.4421,-2.435,-2.435,-2.4216,-2.4171,-2.4099,-2.4099,-2.4054,-2.3949,-2.3949,-2.3819,-2.3628,-2.3522,-2.3463,-2.3403,-2.3198,-2.3078,-2.2909,-2.2909,-2.2665,-2.2359,-2.2049,-2.1984,-2.2076,-2.2256,-2.2383,-2.2619,-2.305,-2.3288,-2.3376,-2.3565,-2.353,-2.3372,-2.3372,-2.3075,-2.2777,-2.2628,-2.2327,-2.2101,-2.2111,-2.1959,-2.1807,-2.1578,-2.1578,-2.1512,-2.1282,-2.1282,-2.1235,-2.1316,-2.148,-2.1739,-2.2337,-2.2532,-2.2754,-2.3105,-2.3135,-2.3057,-2.2882,-2.2803,-2.2706,-2.2441,-2.2264,-2.2097,-2.2097,-2.1919,-2.1741,-2.1741,-2.1635,-2.1581,-2.1581,-2.1183,-2.1077,-2.1238,-2.119,-2.15,-2.2004,-2.2064,-2.2261,-2.2644,-2.2644,-2.2644,-2.2644,-2.2644,-2.2644,-2.2544,-2.2232,-2.1827,-2.142,-3.1847,-3.124,-3.0528,-2.9942,-2.9644,-2.9306,-2.8725,-2.8576,-2.8522,-2.8522,-2.8522,-2.8522,-2.8522,-2.8522,-2.8522,-2.8522,-2.8062,-2.748,-2.6803,-2.6248,-2.5652,-2.4975,-2.4948,-2.4948,-2.4948,-2.4948,-2.4835,-2.462,-2.4563,-2.4563,-2.4563,-2.4563,-2.4434,-2.4292,-2.4292,-2.4203,-2.4054,-2.4054,-2.3995,-2.3832,-2.3832,-2.3641,-2.3403,-2.3403,-2.3271,-2.3078,-2.2969,-2.2665,-2.242,-2.2359,-2.2474,-2.2614,-2.2621,-2.3128,-2.3722,-2.3653,-2.3954,-2.4253,-2.3948,-2.3824,-2.3751,-2.3593,-2.3372,-2.3224,-2.315,-2.2777,-2.2327,-2.2111,-2.2101,-2.2035,-2.1807,-2.1731,-2.1655,-2.1512,-2.1436,-2.1568,-2.1738,-2.1839,-2.2181,-2.3006,-2.3232,-2.326,-2.3135,-2.3135,-2.3057,-2.3057,-2.2882,-2.2803,-2.2715,-2.253,-2.2264,-2.2097,-2.2097,-2.1919,-2.1741,-2.1989,-2.2154,-2.2163,-2.2324,-2.1968,-2.1255,-2.1926,-2.2097,-2.2013,-2.2329,-2.2501,-2.2644,-2.2644,-2.2644,-2.2644,-2.2644,-2.2644,-2.2544,-2.2232,-2.2021,-2.1928,-3.1528,-3.0825,-3.0182,-2.9921,-2.946,-2.9029,-2.8757,-2.8651,-2.8587,-2.8587,-2.8587,-2.8587,-2.8587,-2.8587,-2.8515,-2.8252,-2.798,-2.7435,-2.6626,-2.6298,-2.5887,-2.5285,-2.5257,-2.5257,-2.5257,-2.5188,-2.5061,-2.4948,-2.4778,-2.4734,-2.4734,-2.462,-2.4549,-2.4492,-2.4492,-2.4376,-2.4203,-2.4203,-2.4157,-2.4008,-2.3949,-2.3832,-2.3641,-2.3569,-2.339,-2.321,-2.2969,-2.2787,-2.2714,-2.2823,-2.2889,-2.3063,-2.3454,-2.3887,-2.4188,-2.4272,-2.4387,-2.449,-2.4273,-2.4043,-2.3897,-2.3824,-2.3604,-2.3446,-2.3298,-2.3075,-2.2777,-2.2478,-2.2327,-2.2176,-2.2025,-2.1959,-2.1883,-2.1731,-2.1655,-2.1819,-2.2203,-2.232,-2.2645,-2.3448,-2.3634,-2.358,-2.3329,-2.3319,-2.3232,-2.3135,-2.3057,-2.2969,-2.2969,-2.2706,-2.2627,-2.2451,-2.249,-2.2342,-2.2252,-2.2474,-2.2676,-2.2685,-2.2984,-2.2799,-2.2265,-2.2523,-2.26,-2.2611,-2.2776,-2.2745,-2.2644,-2.2644,-2.2644,-2.2644,-2.2644,-2.2644,-2.2544,-2.2443,-2.2232,-2.2021]},{"header":{"parameterUnit":"m.s-1","parameterCategory":1,"la1":30.6,"la2":28.766,"lo1":-90.7593,"lo2":-88.6598,"dy":0.0162,"dx":0.0183,"nx":116,"ny":114,"refTime":"2023-07-01T06:00:00:Z","depth":0,"parameterNumber":3,"parameterNumberName":"V-component_of_WINDS"},"data":[0.0,0.0,0.0,0.0,0.0,0.0,0.0,0.0,0.0,0.0,0.0,0.0,0.0,0.0,0.0,0.0,0.0,0.0,0.0,0.0,0.0,0.0,0.0,0.0,0.0,0.0,0.0,0.0,0.0,0.0,0.0,0.0,0.0,0.0,0.0,0.0,0.0,0.0,0.0,0.0,0.0,0.0,0.0,0.0,0.0,0.0,0.0,0.0,0.0,0.0,0.0,0.0,0.0,0.0,0.0,0.0,0.0,0.0,0.0,0.0,0.0,0.0,0.0,0.0,0.0,0.0,0.0,0.0,0.0,0.0,0.0,0.0,0.0,0.0,0.0,0.0,0.0,0.0,0.0,0.0,0.0,0.0,0.0,0.0,0.0,0.0,0.0,0.0,0.0,0.0,0.0,0.0,0.0,0.0,0.0,0.0,0.0,0.0,0.0,0.0,0.0,0.0,0.0,0.0,0.0,0.0,0.0,0.0,0.0,0.0,0.0,0.0,0.0,0.0,0.0,0.0,0.0,0.0,0.0,0.0,0.0,0.0,0.0,0.0,0.0,0.0,0.0,0.0,0.0,0.0,0.0,0.0,0.0,0.0,0.0,0.0,0.0,0.0,0.0,0.0,0.0,0.0,0.0,0.0,0.0,0.0,0.0,0.0,0.0,0.0,0.0,0.0,0.0,0.0,0.0,0.0,0.0,0.0,0.0,0.0,0.0,0.0,0.0,0.0,0.0,0.0,0.0,0.0,0.0,0.0,0.0,0.0,0.0,0.0,0.0,0.0,0.0,0.0,0.0,0.0,0.0,0.0,0.0,0.0,0.0,0.0,0.0,0.0,0.0,0.0,0.0,0.0,0.0,0.0,0.0,0.0,0.0,0.0,0.0,0.0,0.0,0.0,0.0,0.0,0.0,0.0,0.0,0.0,0.0,0.0,0.0,0.0,0.0,0.0,0.0,0.0,0.0,0.0,0.0,0.0,0.0,0.0,0.0,0.0,0.0,0.0,0.0,0.0,0.0,0.0,0.0,0.0,0.0,0.0,0.0,0.0,0.0,0.0,0.0,0.0,0.0,0.0,0.0,0.0,0.0,0.0,0.0,0.0,0.0,0.0,0.0,0.0,0.0,0.0,0.0,0.0,0.0,0.0,0.0,0.0,0.0,0.0,0.0,0.0,0.0,0.0,0.0,0.0,0.0,0.0,0.0,0.0,0.0,0.0,0.0,0.0,0.0,0.0,0.0,0.0,0.0,0.0,0.0,0.0,0.0,0.0,0.0,0.0,0.0,0.0,0.0,0.0,0.0,0.0,0.0,0.0,0.0,0.0,0.0,0.0,0.0,0.0,0.0,0.0,0.0,0.0,0.0,0.0,0.0,0.0,0.0,0.0,0.0,0.0,0.0,0.0,0.0,0.0,0.0,0.0,0.0,0.0,0.0,0.0,0.0,0.0,0.0,0.0,0.0,0.0,0.0,0.0,0.0,0.0,0.0,0.0,0.0,0.0,0.0,0.0,0.0,0.0,0.0,0.0,0.0,0.0,0.0,0.0,0.0,0.0,0.0,0.0,0.0,0.0,0.0,0.0,0.0,0.0,0.0,0.0,0.0,0.0,0.0,0.0,0.0,0.0,0.0,0.0,0.0,0.0,0.0,0.0,0.0,0.0,0.0,0.0,0.0,0.0,0.0,0.0,0.0,0.0,0.0,0.0,0.0,0.0,0.0,0.0,0.0,0.0,0.0,0.0,0.0,0.0,0.0,0.0,0.0,0.0,0.0,0.0,0.0,0.0,0.0,0.0,0.0,0.0,0.0,0.0,0.0,0.0,0.0,0.0,0.0,0.0,0.0,0.0,0.0,0.0,0.0,0.0,0.0,0.0,0.0,0.0,0.0,0.0,0.0,0.0,0.0,0.0,0.0,0.0,0.0,0.0,0.0,0.0,0.0,0.0,0.0,0.0,0.0,0.0,0.0,0.0,0.0,0.0,0.0,0.0,0.0,0.0,0.0,0.0,0.0,0.0,0.0,0.0,0.0,0.0,0.0,0.0,0.0,0.0,0.0,0.0,0.0,0.0,0.0,0.0,0.0,0.0,0.0,0.0,0.0,0.0,0.0,0.0,0.0,0.0,0.0,0.0,0.0,0.0,0.0,0.0,0.0,0.0,0.0,0.0,0.0,0.0,0.0,0.0,0.0,0.0,0.0,0.0,0.0,0.0,0.0,0.0,0.0,0.0,0.0,0.0,0.0,0.0,0.0,0.0,0.0,0.0,0.0,0.0,0.0,0.0,0.0,0.0,0.0,0.0,0.0,0.0,0.0,0.0,0.0,0.0,0.0,0.0,0.0,0.0,0.0,0.0,0.0,0.0,0.0,0.0,0.0,0.0,0.0,0.0,0.0,0.0,0.0,0.0,0.0,0.0,0.0,0.0,0.0,0.0,0.0,0.0,0.0,0.0,0.0,0.0,0.0,0.0,0.0,0.0,0.0,0.0,0.0,0.0,0.0,0.0,0.0,0.0,0.0,0.0,0.0,0.0,0.0,0.0,0.0,0.0,0.0,0.0,0.0,0.0,0.0,0.0,0.0,0.0,0.0,0.0,0.0,0.0,0.0,0.0,0.0,0.0,0.0,0.0,0.0,0.0,0.0,0.0,0.0,0.0,0.0,0.0,0.0,0.0,0.0,0.0,0.0,0.0,0.0,0.0,0.0,0.0,0.0,0.0,0.0,0.0,0.0,0.0,0.0,0.0,0.0,0.0,0.0,0.0,0.0,0.0,0.0,0.0,0.0,0.0,0.0,0.0,0.0,0.0,0.0,0.0,0.0,0.0,0.0,0.0,0.0,0.0,0.0,0.0,0.0,0.0,0.0,0.0,0.0,0.0,0.0,0.0,0.0,0.0,0.0,0.0,0.0,0.0,0.0,0.0,0.0,0.0,0.0,0.0,0.0,0.0,0.0,0.0,0.0,0.0,0.0,0.0,0.0,0.0,0.0,0.0,0.0,0.0,0.0,0.0,0.0,0.0,0.0,0.0,0.0,0.0,0.0,0.0,0.0,0.0,0.0,0.0,0.0,0.0,0.0,0.0,0.0,0.0,0.0,0.0,0.0,0.0,0.0,0.0,0.0,0.0,0.0,0.0,0.0,0.0,0.0,0.0,0.0,0.0,0.0,0.0,0.0,0.0,0.0,0.0,0.0,0.0,0.0,0.0,0.0,0.0,0.0,0.0,0.0,0.0,0.0,0.0,0.0,0.0,0.0,0.0,0.0,0.0,0.0,0.0,0.0,0.0,0.0,0.0,0.0,0.0,0.0,0.0,0.0,0.0,0.0,0.0,0.0,0.0,0.0,0.0,0.0,0.0,0.0,0.0,0.0,0.0,0.0,0.0,0.0,0.0,0.0,0.0,0.0,0.0,0.0,0.0,0.0,0.0,0.0,0.0,0.0,0.0,0.0,0.0,0.0,0.0,0.0,0.0,0.0,0.0,0.0,0.0,0.0,0.0,0.0,0.0,0.0,0.0,0.0,0.0,0.0,0.0,0.0,0.0,0.0,0.0,0.0,0.0,0.0,0.0,0.0,0.0,0.0,0.0,0.0,0.0,0.0,0.0,0.0,0.0,0.0,0.0,0.0,0.0,0.0,0.0,0.0,0.0,0.0,0.0,0.0,0.0,0.0,0.0,0.0,0.0,0.0,0.0,0.0,0.0,0.0,0.0,0.0,0.0,0.0,0.0,0.0,0.0,0.0,0.0,0.0,0.0,0.0,0.0,0.0,0.0,0.0,0.0,0.0,0.0,0.0,0.0,0.0,0.0,0.0,0.0,0.0,0.0,0.0,0.0,0.0,0.0,0.0,0.0,0.0,0.0,0.0,0.0,0.0,0.0,0.0,0.0,0.0,0.0,0.0,0.0,0.0,0.0,0.0,0.0,0.0,0.0,0.0,0.0,0.0,0.0,0.0,0.0,0.0,0.0,0.0,0.0,0.0,0.0,0.0,0.0,0.0,0.0,0.0,0.0,0.0,0.0,0.0,0.0,0.0,0.0,0.0,0.0,0.0,0.0,0.0,0.0,0.0,0.0,0.0,0.0,0.0,0.0,0.0,0.0,0.0,0.0,0.0,0.0,0.0,0.0,0.0,0.0,0.0,0.0,0.0,0.0,0.0,0.0,0.0,0.0,0.0,0.0,0.0,0.0,0.0,0.0,0.0,0.0,0.0,0.0,0.0,0.0,0.0,0.0,0.0,0.0,0.0,0.0,0.0,0.0,0.0,0.0,0.0,0.0,0.0,0.0,0.0,0.0,0.0,0.0,0.0,0.0,0.0,0.0,0.0,0.0,0.0,0.0,0.0,0.0,0.0,0.0,0.0,0.0,0.0,0.0,0.0,0.0,0.0,0.0,0.0,0.0,0.0,0.0,0.0,0.0,0.0,0.0,0.0,0.0,0.0,0.0,0.0,0.0,0.0,0.0,0.0,0.0,0.0,0.0,0.0,0.0,0.0,0.0,0.0,0.0,0.0,0.0,0.0,0.0,0.0,0.0,0.0,0.0,0.0,0.0,0.0,0.0,0.0,0.0,0.0,0.0,0.0,0.0,0.0,0.0,0.0,0.0,0.0,0.0,0.0,0.0,0.0,0.0,0.0,0.0,0.0,0.0,0.0,0.0,0.0,0.0,0.0,0.0,0.0,0.0,0.0,0.0,0.0,0.0,0.0,0.0,0.0,0.0,0.0,0.0,0.0,0.0,0.0,0.0,0.0,0.0,0.0,0.0,0.0,0.0,0.0,0.0,0.0,0.0,0.0,0.0,0.0,0.0,0.0,0.0,0.0,0.0,0.0,0.0,0.0,0.0,0.0,0.0,0.0,0.0,0.0,0.0,0.0,0.0,0.0,0.0,0.0,0.0,0.0,0.0,0.0,0.0,0.0,0.0,0.0,0.0,0.0,0.0,0.0,0.0,0.0,0.0,0.0,0.0,0.0,0.0,0.0,0.0,0.0,0.0,0.0,0.0,0.0,0.0,0.0,0.0,0.0,0.0,0.0,0.0,0.0,0.0,0.0,0.0,0.0,0.0,0.0,0.0,0.0,0.0,0.0,0.0,0.0,0.0,0.0,0.0,0.0,0.0,0.0,0.0,0.0,0.0,0.0,0.0,0.0,0.0,0.0,0.0,0.0,0.0,0.0,0.0,0.0,0.0,0.0,0.0,0.0,0.0,0.0,0.0,0.0,0.0,0.0,0.0,0.0,0.0,0.0,0.0,0.0,0.0,0.0,0.0,0.0,0.0,0.0,0.0,0.0,0.0,0.0,0.0,0.0,0.0,0.0,0.0,0.0,0.0,0.0,0.0,0.0,0.0,0.0,0.0,0.0,0.0,0.0,0.0,0.0,0.0,0.0,0.0,0.0,0.0,0.0,0.0,0.0,0.0,0.0,0.0,0.0,0.0,0.0,0.0,0.0,0.0,0.0,0.0,0.0,0.0,0.0,0.0,0.0,0.0,0.0,0.0,0.0,0.0,0.0,0.0,0.0,0.0,0.0,0.0,0.0,0.0,0.0,0.0,0.0,0.0,0.0,0.0,0.0,0.0,0.0,0.0,0.0,0.0,0.0,0.0,0.0,0.0,0.0,0.0,0.0,0.0,0.0,0.0,0.0,0.0,0.0,0.0,0.0,0.0,0.0,0.0,0.0,0.0,0.0,0.0,0.0,0.0,0.0,0.0,0.0,0.0,0.0,0.0,0.0,0.0,0.0,0.0,0.0,0.0,0.0,0.0,0.0,0.0,0.0,0.0,0.0,0.0,0.0,0.0,0.0,0.0,0.0,0.0,0.0,0.0,0.0,0.0,0.0,0.0,0.0,0.0,0.0,0.0,0.0,0.0,0.0,0.0,0.0,0.0,0.0,0.0,0.0,0.0,0.0,0.0,0.0,0.0,0.0,0.0,0.0,0.0,0.0,0.0,0.0,0.0,0.0,0.0,0.0,0.0,0.0,0.0,0.0,0.0,0.0,0.0,0.0,0.0,0.0,0.0,0.0,0.0,0.0,0.0,0.0,0.0,0.0,0.0,0.0,0.0,0.0,0.0,0.0,0.0,0.0,0.0,0.0,0.0,0.0,0.0,0.0,0.0,-1.5433,0.0,0.0,0.0,0.0,0.0,0.0,0.0,0.0,0.0,0.0,0.0,0.0,0.0,0.0,0.0,0.0,0.0,0.0,0.0,0.0,0.0,0.0,0.0,0.0,0.0,0.0,0.0,0.0,0.0,0.0,0.0,0.0,0.0,0.0,0.0,0.0,0.0,0.0,0.0,-0.8247,-0.8954,-0.9957,-0.964,-0.9463,-0.9356,0.0,0.0,0.0,0.0,0.0,0.0,0.0,0.0,0.0,0.0,0.0,0.0,0.0,0.0,0.0,0.0,0.0,0.0,0.0,0.0,0.0,0.0,0.0,0.0,0.0,0.0,0.0,0.0,0.0,0.0,0.0,0.0,0.0,0.0,0.0,0.0,0.0,0.0,0.0,0.0,0.0,0.0,0.0,0.0,0.0,0.0,0.0,0.0,0.0,0.0,0.0,0.0,0.0,0.0,0.0,0.0,0.0,0.0,0.0,0.0,0.0,0.0,0.0,0.0,0.0,0.0,0.0,0.0,0.0,0.0,0.0,-1.715,0.0,0.0,0.0,0.0,0.0,0.0,0.0,0.0,0.0,0.0,0.0,0.0,0.0,0.0,0.0,0.0,0.0,0.0,0.0,0.0,0.0,0.0,0.0,0.0,-0.5024,-0.5621,-0.5755,0.0,0.0,0.0,0.0,0.0,0.0,0.0,0.0,0.0,0.0,0.0,-0.9357,-1.0117,-1.1394,-1.1969,-1.1528,-1.0257,-1.0108,0.0,0.0,0.0,0.0,0.0,0.0,0.0,0.0,0.0,0.0,0.0,0.0,0.0,0.0,0.0,0.0,0.0,0.0,0.0,0.0,0.0,0.0,0.0,0.0,0.0,0.0,0.0,0.0,0.0,0.0,0.0,0.0,0.0,0.0,0.0,0.0,0.0,0.0,0.0,0.0,0.0,0.0,0.0,0.0,0.0,0.0,0.0,0.0,0.0,0.0,0.0,0.0,0.0,0.0,0.0,0.0,0.0,0.0,0.0,0.0,0.0,0.0,0.0,-2.2993,-2.3824,-2.5215,-2.5349,-2.5406,-2.524,-2.2523,-2.0997,-2.0434,0.0,0.0,0.0,0.0,0.0,0.0,0.0,0.0,0.0,0.0,0.0,0.0,0.0,0.0,0.0,0.0,0.0,0.0,0.0,0.0,0.0,0.0,-0.5877,-0.6465,-0.668,-0.7128,-0.7485,0.0,0.0,0.0,0.0,0.0,0.0,0.0,-0.8412,-0.9109,-1.0361,-1.152,-1.2526,-1.3344,-1.3485,-1.3738,-1.4021,-1.298,-1.228,-1.1789,0.0,0.0,0.0,0.0,0.0,0.0,0.0,0.0,0.0,0.0,0.0,0.0,0.0,0.0,0.0,0.0,0.0,0.0,0.0,0.0,0.0,0.0,0.0,0.0,0.0,0.0,0.0,0.0,0.0,0.0,0.0,0.0,0.0,0.0,0.0,0.0,0.0,0.0,0.0,0.0,0.0,-1.4289,-1.4552,0.0,0.0,0.0,0.0,0.0,0.0,0.0,0.0,0.0,0.0,0.0,0.0,0.0,-2.3258,-2.4061,-2.402,-2.446,-2.5433,-2.6074,-2.6842,-2.7754,-2.8384,-2.8639,-2.8558,-2.8149,0.0,-2.3759,-2.371,0.0,0.0,0.0,0.0,0.0,0.0,0.0,0.0,0.0,0.0,0.0,0.0,0.0,0.0,0.0,0.0,0.0,0.0,0.0,0.0,0.0,-0.6397,-0.685,-0.722,-0.7517,-0.7734,-0.7835,0.0,0.0,0.0,0.0,0.0,-0.939,-0.9463,-1.0336,-1.2056,-1.3017,-1.3919,-1.4731,-1.5091,-1.5463,-1.5834,-1.5318,-1.4363,-1.3134,-1.2892,0.0,0.0,0.0,0.0,0.0,0.0,0.0,0.0,0.0,0.0,0.0,0.0,0.0,0.0,0.0,0.0,0.0,0.0,0.0,0.0,0.0,0.0,0.0,0.0,0.0,0.0,0.0,0.0,0.0,0.0,0.0,0.0,0.0,0.0,0.0,0.0,0.0,0.0,0.0,-1.4239,-1.5703,-1.6745,-1.7581,-1.8275,0.0,0.0,0.0,0.0,0.0,0.0,0.0,0.0,0.0,-2.4332,-2.5123,-2.5899,-2.6653,-2.7084,-2.768,-2.842,-2.8753,-2.9326,-3.0117,-3.0446,-3.0572,-3.0549,-3.0498,-2.9664,-2.8227,-2.6884,-2.5852,-2.5077,0.0,0.0,0.0,0.0,-2.2994,-2.2994,0.0,0.0,0.0,0.0,0.0,0.0,0.0,0.0,0.0,0.0,0.0,0.0,-0.6408,-0.6824,-0.7271,-0.7827,-0.8156,-0.8392,-0.8559,-0.873,0.0,0.0,0.0,-0.9516,-1.0598,-1.0962,-1.1911,-1.3431,-1.4399,-1.5311,-1.6158,-1.6794,-1.7293,-1.7595,-1.7632,-1.6508,-1.4598,-1.452,-1.387,-1.2858,0.0,0.0,0.0,0.0,0.0,0.0,0.0,0.0,0.0,0.0,0.0,0.0,0.0,0.0,0.0,0.0,0.0,0.0,0.0,0.0,0.0,0.0,0.0,0.0,0.0,0.0,0.0,0.0,0.0,0.0,0.0,0.0,0.0,0.0,0.0,0.0,0.0,-1.6088,-1.7261,-1.8769,-1.9406,-1.9957,0.0,0.0,0.0,0.0,0.0,0.0,-2.4689,-2.5452,-2.6243,-2.7046,-2.7643,-2.8406,-2.9386,-2.9978,-3.062,-3.1307,-3.1528,-3.193,-3.2465,-3.2668,-3.2778,-3.2728,-3.2676,-3.2515,-3.2078,-2.9743,-2.829,-2.7493,-2.6845,-2.6417,-2.6118,-2.5451,-2.519,-2.519,0.0,0.0,0.0,0.0,0.0,0.0,0.0,0.0,0.0,0.0,0.0,-0.6286,-0.6477,-0.7413,-0.8271,-0.8869,-0.9578,-1.0173,-1.0607,-1.09,-1.1082,-1.113,-1.1208,-1.1395,-1.1724,-1.3043,-1.3822,-1.4052,-1.5788,-1.7083,-1.7879,-1.8617,-1.935,-2.0033,-2.0161,-1.8855,-1.6543,-1.6023,-1.5449,-1.4825,-1.4256,0.0,0.0,0.0,0.0,0.0,0.0,0.0,0.0,0.0,0.0,0.0,0.0,0.0,0.0,0.0,0.0,0.0,0.0,0.0,0.0,0.0,0.0,0.0,0.0,0.0,0.0,0.0,0.0,0.0,0.0,0.0,0.0,0.0,0.0,0.0,0.0,0.0,0.0,-2.0375,-2.1946,0.0,0.0,0.0,0.0,-2.5614,-2.6373,-2.7158,-2.7923,-2.8663,-2.9437,-3.0234,-3.0246,-3.102,-3.2649,-3.2631,-3.3031,-3.3825,-3.4581,-3.4889,-3.4853,-3.5624,-3.5904,-3.5793,-3.5793,-3.5356,-3.4444,-3.2099,-3.0636,-2.9824,-2.9787,-2.9296,-2.8603,-2.8494,-2.8469,-2.8469,0.0,0.0,0.0,0.0,0.0,0.0,0.0,0.0,0.0,-0.5149,-0.5864,-0.6553,-0.7257,-0.8024,-0.8728,-0.9327,-0.9992,-1.0471,-1.0794,-1.0919,-1.1106,-1.129,-1.132,-1.1827,-1.2878,-1.4158,-1.5325,-1.6342,-1.7009,-1.8004,-1.9306,-1.957,-1.9891,-2.0329,-2.0415,-1.995,-1.9101,-1.8106,-1.7406,-1.6838,-1.5823,-1.4963,0.0,0.0,0.0,0.0,0.0,0.0,0.0,0.0,0.0,0.0,0.0,0.0,0.0,0.0,0.0,0.0,0.0,0.0,0.0,0.0,0.0,0.0,0.0,0.0,0.0,0.0,0.0,0.0,0.0,0.0,0.0,0.0,0.0,0.0,0.0,0.0,0.0,-2.263,-2.3879,0.0,0.0,-2.658,-2.7157,-2.8014,-2.8771,-2.9527,-3.0342,-3.1127,-3.1917,-3.273,-3.3197,-3.37,-3.4236,-3.4688,-3.5054,-3.53,-3.5593,-3.5967,-3.6419,-3.6723,-3.7082,-3.753,-3.753,-3.7075,-3.6212,-3.5369,-3.3978,-3.232,-3.2265,-3.2083,-3.1829,-3.1746,-3.1719,-3.1664,0.0,0.0,0.0,0.0,0.0,0.0,0.0,0.0,-0.4409,-0.5548,-0.616,-0.6893,-0.7882,-0.8546,-0.9219,-1.0038,-1.0503,-1.0927,-1.131,-1.1408,-1.1539,-1.1809,-1.2078,-1.2831,-1.4044,-1.526,-1.6454,-1.761,-1.8198,-1.9206,-2.0588,-2.0826,-2.1171,-2.1591,-2.1699,-2.179,-2.1808,-2.0855,-1.9735,-1.8547,-1.7566,-1.6837,-1.6247,0.0,0.0,0.0,0.0,0.0,0.0,0.0,0.0,0.0,0.0,0.0,0.0,0.0,0.0,0.0,0.0,0.0,0.0,0.0,0.0,0.0,0.0,0.0,0.0,0.0,0.0,0.0,0.0,0.0,0.0,0.0,0.0,0.0,0.0,0.0,-2.2903,-2.4911,-2.595,-2.7086,-2.8493,-2.8942,-2.9462,-3.036,-3.1107,-3.1851,-3.2679,-3.3456,-3.4109,-3.4642,-3.5422,-3.5915,-3.6131,-3.6894,-3.7393,-3.7603,-3.7603,-3.7895,-3.8387,-3.8387,-3.8613,-3.9055,-3.9055,-3.8731,-3.8156,-3.8156,-3.7214,-3.5724,-3.4637,-3.4172,-3.416,-3.4129,-3.4117,-3.4026,0.0,0.0,0.0,0.0,0.0,0.0,0.0,-0.3955,-0.4515,-0.594,-0.6587,-0.7301,-0.8297,-0.8958,-0.9785,-1.099,-1.124,-1.163,-1.2342,-1.2484,-1.2615,-1.2851,-1.3689,-1.4474,-1.5248,-1.6419,-1.7209,-1.7691,-1.94,-2.0738,-2.1746,-2.2407,-2.315,-2.3914,-2.4168,-2.4369,-2.449,-2.41,-2.2439,-2.0013,-1.9578,-1.8994,-1.8226,0.0,0.0,0.0,0.0,0.0,0.0,0.0,0.0,0.0,0.0,0.0,0.0,0.0,0.0,0.0,0.0,0.0,0.0,0.0,0.0,0.0,0.0,0.0,0.0,0.0,0.0,0.0,0.0,0.0,0.0,0.0,0.0,0.0,-2.3389,-2.3616,-2.4667,-2.7115,-2.8227,-2.9162,-3.0124,-3.091,-3.1759,-3.2635,-3.3369,-3.4118,-3.4958,-3.5684,-3.6091,-3.6146,-3.6924,-3.769,-3.8441,-3.9243,-4.0026,-4.0773,-4.0773,-4.0757,-4.0724,-4.0724,-4.0636,-4.0455,-4.0455,-4.0382,-4.0254,-4.0254,-4.0236,-3.9912,-3.6906,-3.5699,-3.5652,-3.5634,-3.5598,-3.5544,0.0,0.0,0.0,0.0,0.0,0.0,0.0,-0.3891,-0.4557,-0.6305,-0.6748,-0.7398,-0.8687,-0.9402,-1.0092,-1.0805,-1.1369,-1.1807,-1.2174,-1.2718,-1.3332,-1.4072,-1.4769,-1.5477,-1.6249,-1.7076,-1.8067,-1.9186,-2.0306,-2.1358,-2.2364,-2.3041,-2.3668,-2.4219,-2.4369,-2.4533,-2.4667,-2.4709,-2.4356,-2.3535,-2.21,-2.0872,-1.9767,0.0,0.0,0.0,0.0,0.0,0.0,0.0,0.0,0.0,0.0,0.0,0.0,0.0,0.0,0.0,0.0,0.0,0.0,0.0,0.0,0.0,0.0,0.0,0.0,0.0,0.0,0.0,0.0,0.0,0.0,0.0,0.0,-2.4366,-2.346,-2.5412,-2.7209,-2.7967,-2.9386,-3.0885,-3.2345,-3.2756,-3.3504,-3.4965,-3.5246,-3.5976,-3.7361,-3.7635,-3.8259,-3.9425,-3.9647,-3.9831,-4.0068,-4.0147,-4.0311,-4.0528,-4.042,-4.0672,-4.1212,-4.1212,-4.1481,-4.2001,-4.2001,-4.162,-4.1081,-4.1081,-4.072,-4.0052,-3.9265,-3.8906,-3.8852,-3.8312,-3.7377,-3.6371,0.0,0.0,0.0,0.0,0.0,0.0,0.0,-0.3852,-0.451,-0.6181,-0.6636,-0.7301,-0.8563,-0.9446,-1.0133,-1.0747,-1.1394,-1.1856,-1.2077,-1.281,-1.3703,-1.47,-1.5426,-1.615,-1.6973,-1.7925,-1.899,-2.0152,-2.1014,-2.2035,-2.3248,-2.3799,-2.4351,-2.4996,-2.5152,-2.5371,-2.5575,-2.5862,-2.5884,-2.5642,-2.4655,-2.3241,-2.1639,-2.0948,-2.0255,-1.9567,-1.8657,-1.7945,-1.7317,-1.6753,0.0,0.0,0.0,0.0,0.0,0.0,0.0,0.0,0.0,0.0,0.0,0.0,0.0,0.0,0.0,0.0,0.0,0.0,0.0,0.0,0.0,0.0,0.0,0.0,-2.5267,-2.6156,-2.5729,-2.7368,-2.8991,-3.0105,-3.1171,-3.2445,-3.4122,-3.431,-3.501,-3.6653,-3.6812,-3.7468,-3.9077,-3.9168,-3.9585,-4.0527,-4.0854,-4.0999,-4.0999,-4.1232,-4.1499,-4.1823,-4.1728,-4.2142,-4.2915,-4.2915,-4.3126,0.0,-4.3176,-4.2723,-4.2235,-4.1934,-4.15,0.0,0.0,0.0,0.0,0.0,-3.8832,-3.8044,0.0,0.0,0.0,0.0,0.0,0.0,0.0,-0.3809,-0.4384,-0.5734,-0.6373,-0.7087,-0.8157,-0.9129,-1.0002,-1.0712,-1.1267,-1.1808,-1.2238,-1.2965,-1.3879,-1.5055,-1.5849,-1.6633,-1.7451,-1.8719,-1.9793,-2.0664,-2.1559,-2.2683,-2.4068,-2.4517,-2.5159,-2.5948,-2.6179,-2.65,-2.6846,-2.7078,-2.6994,-2.6741,-2.6826,-2.5589,-2.3666,-2.2637,-2.182,-2.121,-2.0656,-2.0023,-1.9383,-1.8921,0.0,0.0,0.0,0.0,0.0,0.0,0.0,0.0,0.0,0.0,0.0,0.0,0.0,0.0,0.0,0.0,0.0,0.0,0.0,0.0,0.0,0.0,0.0,0.0,-2.7075,-2.8504,-2.9255,-2.9576,-3.0543,-3.262,-3.3108,-3.387,-3.5475,-3.569,-3.6373,-3.7917,-3.8115,-3.8816,-4.0272,0.0,0.0,0.0,0.0,-4.1674,-4.1674,-4.2426,-4.3198,-4.3899,-4.3899,-4.4258,-4.4941,-4.4941,-4.4899,-4.4718,-4.4002,-4.3692,-4.359,-4.284,-4.2501,-4.2287,-4.0885,-4.0224,-4.0057,-4.0057,-3.9985,-3.9914,0.0,0.0,0.0,0.0,0.0,0.0,0.0,-0.3568,-0.4205,-0.5291,-0.6171,-0.7062,-0.8034,-0.8753,-0.952,-1.047,-1.0808,-1.1645,-1.3214,-1.3558,-1.4287,-1.5588,-1.623,-1.6959,-1.7862,-1.8681,-1.9699,-2.1004,-2.1996,-2.2977,-2.3973,-2.4915,-2.5591,-2.6056,-2.6233,-2.6553,-2.6951,-2.713,-2.7312,-2.7385,-2.72,-2.6138,-2.4696,-2.4101,-2.3462,-2.277,-2.2335,-2.1401,-2.0424,-2.0366,-1.9574,-1.8639,-1.8723,-1.7918,0.0,0.0,0.0,0.0,0.0,0.0,0.0,0.0,0.0,0.0,0.0,0.0,0.0,0.0,0.0,0.0,0.0,0.0,0.0,-2.7181,-2.9632,-3.1545,-3.1703,-3.2878,-3.3492,-3.2912,-3.3926,-3.5134,-3.627,-3.6932,-3.7739,-3.8798,-3.9427,-4.0182,-4.1135,-4.1171,0.0,-4.2124,-4.2933,-4.3346,-4.3346,-4.4037,-4.4462,-4.4623,0.0,0.0,-4.4668,-4.4668,-4.4668,-4.4607,-4.4446,-4.4392,-4.4392,-4.4232,-4.3804,-4.3179,-4.2257,-4.1448,-4.0877,-4.0877,-4.0467,-3.9914,0.0,0.0,0.0,0.0,0.0,0.0,0.0,-0.3506,-0.4076,-0.4853,-0.5733,-0.6582,-0.7317,-0.8132,-0.8951,-0.9689,-1.0381,-1.1549,-1.3327,-1.3604,-1.4262,-1.5611,-1.656,-1.7302,-1.7894,-1.8896,-2.0117,-2.1555,-2.2271,-2.3189,-2.4249,-2.512,-2.5702,-2.6002,-2.6233,-2.6606,-2.7093,-2.7233,-2.7488,-2.781,-2.7786,-2.698,-2.5676,-2.5199,-2.4803,-2.4449,-2.3575,-2.2886,-2.2315,-2.1772,-2.0974,-2.0175,-2.0005,-1.9273,-1.8552,0.0,0.0,0.0,0.0,0.0,0.0,0.0,0.0,0.0,0.0,0.0,0.0,0.0,0.0,-2.4121,0.0,0.0,-2.818,-2.979,-3.137,-3.2669,-3.3441,-3.4549,-3.5062,-3.4465,-3.512,-3.6114,-3.7487,-3.7933,-3.8685,-4.0014,-4.0444,-4.1017,-4.1805,-4.2235,-4.2647,-4.3059,-4.3811,-4.4205,-4.4205,-4.4514,-4.4907,-4.5301,-4.5213,-4.5383,-4.5713,-4.5713,-4.565,-4.5587,-4.5196,-4.5018,-4.4983,-4.4609,-4.4254,-4.3827,-4.301,-4.2294,-4.1698,-4.1698,-4.1448,-4.1092,0.0,0.0,0.0,0.0,0.0,0.0,0.0,0.0,-0.3857,-0.4369,-0.5224,-0.5994,-0.6505,-0.7493,-0.8374,-0.8972,-1.0101,-1.1424,-1.2883,-1.3356,-1.409,-1.5236,-1.6669,-1.7533,-1.7714,-1.9045,-2.0469,-2.195,-2.2361,-2.3226,-2.462,-2.5201,-2.5592,-2.5893,-2.6218,-2.6645,-2.7233,-2.7386,-2.7655,-2.8039,-2.8194,-2.7674,-2.6725,-2.6114,-2.579,-2.5507,-2.4562,-2.4105,-2.3834,-2.2925,-2.2054,-2.1336,-2.0999,-2.0417,-1.99,-2.0238,-1.9813,0.0,0.0,0.0,0.0,0.0,0.0,0.0,0.0,0.0,-2.3084,-2.4629,-2.4945,-2.5639,-2.7771,-2.828,-2.9263,-3.1967,-3.2651,-3.3336,-3.4723,-3.5565,-3.6148,-3.64,-3.6476,-3.7066,-3.8439,-3.883,-3.958,-4.0922,-4.1172,-4.1599,-4.2424,-4.3102,-4.3529,-4.369,-4.4421,-4.4795,-4.4795,-4.4911,-4.5303,-4.5944,-4.5944,-4.6219,-4.6731,-4.6731,-4.6684,-4.6554,-4.5917,-4.5634,-4.5581,-4.4837,-4.4519,-4.4448,-4.3651,-4.2985,-4.246,-4.2299,-4.2246,-4.2246,0.0,0.0,0.0,0.0,0.0,0.0,0.0,0.0,0.0,-0.3823,-0.4748,-0.5563,-0.6029,-0.6933,-0.7925,-0.899,-1.0134,-1.1113,-1.1834,-1.2901,-1.3803,-1.4494,-1.6185,-1.724,-1.746,-1.8765,-2.0229,-2.1797,-2.2102,-2.3073,-2.462,-2.5005,-2.5453,-2.5893,-2.6297,-2.6736,-2.7233,-2.7473,-2.7825,-2.8125,-2.7907,-2.784,-2.7826,-2.6805,-2.5855,-2.51,-2.5214,-2.4462,-2.3474,-2.3466,-2.2671,-2.1678,-2.1668,-2.1254,-2.0793,-2.1015,0.0,-2.0089,-2.022,-2.0763,-2.1326,-2.142,-2.2494,-2.3563,0.0,0.0,-2.539,-2.69,-2.7274,-2.7824,-2.9527,-3.0369,-3.1159,-3.223,-3.3547,-3.4723,-3.5565,-3.6355,-3.7093,-3.7777,-3.7963,-3.8153,-3.839,-3.9704,-4.0648,-4.0825,-4.1498,-4.2225,-4.2969,-4.3198,-4.3675,-4.4361,-4.5089,-4.548,-4.548,-4.6081,-4.6424,-4.6513,-4.6513,-4.6548,-4.6637,-4.6637,-4.6637,-4.6572,-4.6484,-4.6466,-4.6395,-4.5616,-4.5298,-4.5209,-4.4466,-4.3687,-4.2934,-4.2278,-4.2055,-4.2103,0.0,0.0,0.0,0.0,0.0,0.0,0.0,0.0,0.0,0.0,-0.4401,-0.5124,-0.5852,-0.6813,-0.7731,-0.8579,-0.9617,-1.0623,-1.1557,-1.2647,-1.3625,-1.437,-1.5672,-1.6714,-1.7412,-1.8359,-1.9651,-2.118,-2.1491,-2.2452,-2.3944,-2.4489,-2.5176,-2.5893,-2.6297,-2.6788,-2.7321,-2.7171,-2.7349,-2.7672,-2.7361,-2.7095,-2.6925,-2.6663,-2.5863,-2.4911,-2.4899,-2.4619,0.0,-2.3408,-2.2846,-2.2377,-2.2111,-2.1848,-2.1681,-2.1919,-2.2051,0.0,-2.2917,-2.336,0.0,0.0,-2.4535,-2.5466,-2.5936,-2.6661,-2.7544,-2.8687,-2.8959,-2.9341,-3.0527,-3.137,-3.23,0.0,-3.4635,-3.5618,-3.6391,-3.6777,-3.7251,-3.8023,-3.8573,-3.9071,-3.9635,-4.027,-4.0895,-4.1456,-4.181,-4.2324,-4.3067,-4.3607,-4.421,-4.4971,-4.5797,-4.6187,-4.6187,-4.6478,-4.659,-4.659,-4.659,-4.6542,-4.6477,-4.6477,-4.6447,-4.6368,-4.6368,-4.6368,-4.6332,-4.5998,-4.5875,-4.5804,-4.5047,-4.4554,-4.4142,-4.3059,-4.2402,-4.2055,0.0,0.0,0.0,0.0,0.0,0.0,0.0,0.0,0.0,0.0,-0.4022,-0.4715,-0.5779,-0.6586,-0.7323,-0.8021,-0.8896,-0.9884,-1.1088,-1.213,-1.3111,-1.4067,-1.5108,-1.6138,-1.7099,-1.7968,-1.9076,-2.0426,-2.0936,-2.1901,-2.3279,-2.3811,-2.4528,-2.5374,-2.5835,-2.6316,-2.6822,-2.6672,-2.6793,-2.7087,-2.6835,-2.6424,-2.5943,-2.6118,-2.553,-2.4589,-2.4718,-2.4556,-2.4182,-2.3238,-2.2803,-2.2585,-2.2308,-2.2348,-2.2558,-2.2767,-2.3363,-2.4139,-2.4821,0.0,0.0,-2.5732,-2.6454,-2.7352,-2.7924,-2.8479,-2.9101,-2.9981,-3.0221,-3.0499,-3.1388,-3.2002,0.0,-3.4442,-3.5144,-3.5846,-3.6847,-3.7163,-3.7567,-3.8357,-3.9147,-3.9979,-4.0778,-4.0891,-4.1137,-4.1823,-4.2114,-4.2555,-4.3297,-4.411,-4.4933,-4.5658,-4.6242,-4.6542,-4.6542,-4.6495,-4.6495,-4.6495,-4.6495,-4.6447,-4.635,-4.635,-4.6301,-4.6172,-4.6172,-4.6172,-4.6172,-4.6172,-4.6172,-4.6168,-4.5624,-4.5291,-4.4957,-4.4001,-4.305,-4.2228,0.0,0.0,0.0,0.0,0.0,0.0,0.0,0.0,0.0,0.0,0.0,0.0,0.0,-0.6049,-0.6506,-0.7442,-0.8032,-0.8821,-0.9961,-1.1056,-1.2163,-1.3272,-1.457,-1.5591,-1.6303,-1.7589,-1.8727,-1.9733,-2.0534,-2.148,-2.2644,-2.307,-2.354,-2.4067,-2.4583,-2.5087,-2.5503,-2.594,-2.6349,-2.6701,-2.6449,-2.6013,-2.5503,-2.525,-2.4662,-2.4133,-2.4845,-2.4232,-2.3067,-2.3076,-2.2635,-2.2032,-2.2168,-2.2743,0.0,-2.3516,-2.4236,-2.4971,0.0,0.0,-2.723,-2.723,-2.8316,-2.9403,-2.9437,-2.9523,-2.9815,-3.0698,-3.0958,-3.1339,-3.2213,-3.2371,-3.2897,-3.4442,-3.4705,-3.5249,-3.6777,-3.7619,-3.8374,-3.9182,-3.9972,-4.0744,0.0,-4.1569,-4.1569,-4.1604,-4.2324,-4.3096,-4.3816,-4.4765,-4.5605,-4.6328,-4.6363,-4.6398,-4.6398,-4.627,-4.6221,-4.6221,-4.6221,-4.6221,-4.6221,-4.6221,-4.6221,-4.6172,-4.6172,-4.6172,-4.6172,-4.6172,-4.6172,-4.6172,-4.6154,-4.5747,-4.5098,-4.5045,-4.4138,-4.2785,0.0,0.0,0.0,0.0,0.0,0.0,0.0,0.0,0.0,0.0,0.0,0.0,0.0,0.0,0.0,0.0,0.0,-0.8474,-0.891,-1.0536,-1.1718,-1.2294,-1.3335,-1.4522,-1.5727,-1.63,-1.7134,-1.8437,-1.8981,-1.9744,-2.0736,-2.1668,-2.2572,-2.3421,-2.4388,-2.5077,-2.5493,-2.4985,-2.5022,-2.529,-2.4496,-2.4225,-2.4337,-2.4414,-2.4111,-2.3647,0.0,-2.3647,-2.3066,-2.2702,-2.2423,-2.2276,-2.2377,-2.2915,-2.3755,-2.488,-2.5811,-2.6626,0.0,0.0,-2.8765,-2.8765,-2.9523,-3.03,-3.03,-3.0697,-3.1165,-3.162,-3.1725,-3.1882,-3.2318,-3.2792,-3.3283,-3.381,-3.4758,-3.5618,-3.6127,-3.7303,-3.8409,-3.9217,-4.0007,0.0,0.0,0.0,0.0,-4.1604,-4.2359,-4.3131,-4.3851,-4.4724,-4.5497,-4.6235,-4.627,-4.627,-4.627,-4.6221,-4.6172,-4.6239,-4.6748,-4.7011,-4.7011,-4.7011,-4.7011,-4.6976,-4.6449,-4.6172,-4.6172,-4.6172,-4.6172,-4.6172,-4.6172,-4.6081,-4.5782,-4.5291,-4.4764,-4.4179,0.0,0.0,0.0,0.0,0.0,0.0,0.0,0.0,0.0,0.0,0.0,0.0,0.0,0.0,0.0,0.0,0.0,0.0,-0.835,-0.9606,-1.0692,-1.1505,-1.2312,-1.3374,-1.4664,-1.5116,-1.5957,-1.7233,-1.779,-1.8541,-1.9507,-2.0395,-2.1305,-2.2161,-2.3037,-2.373,-2.4221,-2.3716,-2.3739,-2.4074,-2.3538,-2.319,-2.3045,-2.3314,-2.2925,0.0,-2.233,-2.2456,-2.2587,-2.2417,-2.2405,-2.2483,-2.2794,-2.3591,-2.4778,-2.6396,-2.725,-2.7851,0.0,-2.9351,-2.992,-2.992,-3.0524,-3.1076,-3.1076,-3.1491,-3.1806,-3.1672,-3.1708,-3.1708,-3.16,-3.2177,-3.2757,-3.3055,-3.4407,-3.5513,-3.5776,-3.7145,-3.8409,-3.9217,-4.0007,0.0,0.0,0.0,0.0,-4.2026,-4.2745,-4.3535,-4.429,-4.508,-4.573,-4.6221,-4.6172,-4.6172,-4.6172,-4.6172,-4.6362,-4.666,-4.7432,-4.7783,-4.7783,-4.7783,-4.7801,-4.7766,-4.6993,-4.6642,-4.6625,-4.6344,-4.6172,-4.6172,-4.6172,-4.6172,-4.6119,-4.5677,-4.5326,-4.4922,0.0,0.0,0.0,0.0,0.0,0.0,0.0,0.0,0.0,0.0,0.0,0.0,0.0,0.0,0.0,0.0,0.0,0.0,-0.8191,-0.8368,-0.9169,-1.09,-1.1474,-1.2153,-1.3097,-1.4099,-1.509,-1.6077,-1.6904,-1.7792,-1.8728,-1.9235,-1.9732,-2.0204,-2.0707,-2.1186,-2.1741,-2.2079,-2.2509,-2.2991,-2.3321,-2.2765,-2.172,-2.1995,-2.1288,-2.0119,-2.0267,-2.0862,-2.1686,0.0,0.0,0.0,0.0,-2.4761,-2.6378,-2.7922,-2.8454,-2.8661,-2.9368,-3.0144,-3.0748,-3.0748,-3.1282,-3.18,-3.18,-3.1821,-3.167,-3.1029,-3.0975,-3.0849,0.0,0.0,-3.1405,-3.2213,-3.3599,-3.4846,-3.5636,-3.7075,-3.8357,0.0,0.0,0.0,0.0,0.0,0.0,-4.2868,0.0,-4.429,-4.5062,-4.5817,-4.6172,-4.6172,-4.6172,-4.6172,-4.6172,-4.6224,-4.6677,-4.7467,-4.8222,-4.8573,-4.8573,-4.8573,-4.8608,-4.8608,-4.7801,-4.745,-4.738,-4.6607,-4.6242,-4.6291,-4.6189,-4.6172,-4.6172,-4.6172,-4.5782,-4.5045,0.0,0.0,0.0,0.0,0.0,0.0,0.0,0.0,0.0,0.0,0.0,0.0,0.0,0.0,0.0,0.0,0.0,0.0,-0.6808,-0.7808,-0.8724,-0.9428,-1.026,-1.1114,-1.1989,-1.2757,-1.354,-1.4393,-1.5241,-1.5849,-1.6375,-1.7263,-1.7901,-1.8394,-1.9248,-1.9922,-2.0394,-2.0296,-2.0445,-2.0782,-2.0675,-2.0533,-2.0401,-2.0662,-2.0592,-2.0323,-2.0465,0.0,0.0,0.0,0.0,0.0,0.0,-2.5704,-2.7147,-2.8127,-2.9213,-3.0144,-3.0334,-3.0938,-3.1524,-3.1524,-3.1662,-3.18,-3.18,-3.1441,-3.1045,-3.0924,-3.0539,-3.0184,0.0,0.0,0.0,-3.137,-3.2335,0.0,-3.4793,-3.6303,0.0,0.0,0.0,-4.0587,-4.123,-4.2033,0.0,0.0,-4.4295,-4.4887,-4.5098,-4.5817,-4.6172,-4.6172,-4.6172,-4.6172,-4.6172,-4.68,-4.7485,-4.824,-4.9012,-4.9381,-4.9381,-4.9381,-4.9398,-4.9363,-4.8573,-4.824,-4.817,-4.7415,-4.7099,-4.7029,-4.6449,-4.6172,-4.6172,-4.6172,-4.6049,-4.5905,0.0,0.0,0.0,0.0,0.0,0.0,0.0,0.0,0.0,0.0,0.0,0.0,0.0,0.0,0.0,0.0,0.0,0.0,0.0,-0.7089,-0.7765,-0.8215,-0.9227,-1.0045,-1.0579,-1.145,-1.2309,-1.3136,-1.3945,-1.4642,-1.5267,-1.6244,-1.6922,-1.7384,-1.8135,-1.8703,-1.9165,-1.9186,-1.9383,0.0,0.0,-1.9612,-1.957,-1.9771,-1.9728,-1.9547,0.0,0.0,0.0,0.0,0.0,-2.4447,-2.4896,-2.6312,-2.792,-2.8678,0.0,-3.0765,-3.1093,-3.1472,-3.18,-3.18,-3.18,-3.1714,-3.1422,-3.1079,-3.0595,-2.9619,-2.919,0.0,0.0,0.0,0.0,0.0,0.0,0.0,-3.4003,-3.5495,-3.7123,0.0,-3.9503,0.0,-4.1105,-4.2218,-4.3119,0.0,-4.4498,-4.519,-4.5572,-4.5993,-4.6172,-4.6172,-4.6172,-4.6397,-4.673,-4.7854,-4.8608,-4.9047,-4.9837,-5.0206,-5.0206,-5.0206,-5.0206,-5.0171,0.0,-4.903,-4.8977,-4.8205,-4.7696,-4.7345,-4.6906,-4.652,-4.6172,-4.6172,-4.6172,-4.6172,0.0,0.0,0.0,0.0,0.0,0.0,0.0,0.0,0.0,0.0,0.0,0.0,0.0,0.0,0.0,0.0,0.0,0.0,0.0,0.0,0.0,-0.7271,-0.8319,-0.8989,-0.9221,-1.0295,-1.1247,-1.2095,0.0,-1.3721,-1.4572,-1.5414,-1.6041,-1.646,-1.6825,-1.7254,-1.773,-1.8113,-1.8495,-1.889,-1.9151,-1.9031,-1.8705,0.0,-1.8697,0.0,0.0,0.0,0.0,0.0,-2.3345,-2.5103,-2.5103,-2.6688,-2.8678,-2.9317,-3.0144,-3.0989,-3.1627,-3.18,-3.18,-3.18,-3.1714,-3.1509,-3.0941,-3.0629,-2.9931,-2.8006,0.0,-2.721,-2.656,0.0,-2.7683,-2.8596,0.0,-3.2265,-3.3213,-3.4688,-3.6492,-3.8681,-3.9048,-3.9652,-4.1052,-4.2601,-4.3523,-4.3523,-4.4488,-4.539,-4.6137,-4.6172,-4.6274,-4.6379,-4.6379,-4.68,-4.7696,-4.9012,-4.9732,-4.9855,-5.0557,-5.0891,-5.0891,-5.0891,-5.0891,-5.0855,0.0,0.0,-4.9785,-4.8995,-4.8293,-4.7678,-4.7467,-4.6976,-4.6379,-4.6224,-4.6172,-4.6172,0.0,0.0,0.0,0.0,0.0,0.0,0.0,0.0,0.0,0.0,-0.3974,0.0,0.0,0.0,0.0,0.0,0.0,0.0,0.0,0.0,0.0,0.0,-0.744,-0.8097,-0.8789,0.0,0.0,0.0,0.0,0.0,-1.2751,-1.3197,-1.36,-1.3938,-1.4293,-1.4663,-1.5084,-1.5424,-1.5749,-1.6017,-1.6294,-1.643,-1.6534,-1.7333,0.0,0.0,0.0,0.0,0.0,0.0,-2.3395,-2.5171,-2.5103,-2.7082,-2.9402,-2.9472,-3.0506,-3.1627,-3.1765,-3.18,-3.18,-3.18,-3.137,-3.0941,-3.082,-2.9447,0.0,0.0,0.0,-2.577,-2.563,-2.5717,0.0,-2.7683,0.0,0.0,0.0,0.0,-3.572,0.0,0.0,0.0,0.0,0.0,0.0,0.0,0.0,-4.59,-4.6023,-4.6122,-4.652,-4.7169,-4.7187,-4.7871,-4.9276,-4.9556,-5.0013,-5.068,-5.082,-5.0891,-5.0891,-5.0891,-5.0891,-5.0873,-5.0733,0.0,-5.0627,-4.9802,-4.9398,-4.9153,-4.7889,-4.7309,-4.7116,-4.6467,-4.6172,-4.6172,0.0,0.0,0.0,0.0,0.0,0.0,0.0,0.0,0.0,0.0,-0.4265,-0.4791,0.0,0.0,0.0,0.0,0.0,0.0,0.0,0.0,0.0,0.0,0.0,0.0,0.0,0.0,0.0,0.0,0.0,0.0,0.0,0.0,0.0,0.0,0.0,0.0,0.0,-1.4853,-1.5171,-1.5415,0.0,0.0,0.0,0.0,0.0,0.0,0.0,0.0,0.0,0.0,-2.2676,-2.427,-2.4965,-2.6996,-2.9155,-2.9453,-3.0387,-3.1372,-3.1696,-3.18,-3.1714,-3.1353,-3.1026,-3.0508,-2.9412,0.0,0.0,0.0,0.0,-2.4822,-2.4822,0.0,0.0,0.0,0.0,0.0,0.0,0.0,0.0,0.0,0.0,0.0,0.0,0.0,0.0,0.0,0.0,-4.6023,-4.6073,-4.6558,-4.7011,-4.738,-4.817,-4.8942,-4.9679,-5.0101,-5.0504,-5.0891,-5.0891,-5.0891,-5.0891,-5.0891,-5.0891,-5.0891,-5.0891,0.0,-5.0855,-5.0469,-5.0066,-4.9609,-4.8872,-4.8099,-4.7345,-4.6976,-4.6572,-4.6172,0.0,0.0,0.0,0.0,0.0,0.0,0.0,-0.298,-0.3541,-0.3676,-0.4479,-0.501,-0.5029,-0.5146,-0.5292,0.0,0.0,0.0,0.0,0.0,0.0,0.0,0.0,0.0,0.0,0.0,0.0,0.0,0.0,0.0,0.0,0.0,0.0,0.0,0.0,0.0,0.0,0.0,0.0,0.0,0.0,0.0,0.0,0.0,0.0,0.0,0.0,0.0,0.0,0.0,-2.1874,-2.3428,-2.4498,-2.6469,-2.8523,-2.919,-3.0075,-3.0941,-3.144,-3.1595,-3.1476,-3.0941,-3.0578,-2.9883,-2.801,-2.7355,0.0,0.0,-2.3917,-2.3759,-2.3601,0.0,0.0,0.0,0.0,0.0,0.0,0.0,0.0,0.0,0.0,0.0,0.0,0.0,0.0,0.0,0.0,0.0,-4.6172,-4.6958,-4.7467,-4.7625,-4.8977,-4.9767,-4.9943,-5.0575,-5.0891,-5.0891,-5.0891,-5.0891,-5.0891,-5.0891,-5.0891,-5.0891,-5.0891,0.0,0.0,-5.0891,-5.0522,-4.9925,-4.975,-4.8837,-4.7625,-4.745,-4.6906,-4.6172,0.0,0.0,0.0,0.0,0.0,0.0,0.0,-0.298,-0.3541,-0.3676,-0.4506,-0.5078,-0.5098,-0.5263,-0.5407,0.0,0.0,0.0,0.0,0.0,0.0,0.0,0.0,0.0,0.0,0.0,0.0,0.0,0.0,0.0,0.0,0.0,0.0,0.0,0.0,0.0,0.0,0.0,0.0,0.0,0.0,0.0,0.0,0.0,0.0,0.0,0.0,0.0,0.0,0.0,0.0,-2.3395,-2.3375,-2.5374,-2.7831,-2.8505,0.0,0.0,-3.0907,-3.0942,-3.0942,-3.0837,-2.9881,-2.8739,-2.7796,0.0,0.0,-2.3633,-2.2717,-2.1995,-2.1326,-2.1749,0.0,0.0,0.0,0.0,0.0,0.0,0.0,0.0,0.0,0.0,0.0,0.0,0.0,0.0,0.0,0.0,-4.6172,-4.6958,-4.7713,-4.8398,-4.924,-5.003,-5.0768,-5.0855,-5.0891,-5.0891,-5.0891,-5.0891,-5.0891,-5.0891,-5.0891,-5.0891,-5.0891,0.0,0.0,-5.0891,-5.0855,-5.0715,-4.9978,-4.917,-4.8328,-4.7643,-4.6906,-4.6172,0.0,0.0,0.0,0.0,0.0,0.0,0.0,-0.2814,-0.3237,-0.3322,-0.4164,-0.4766,-0.4845,-0.497,-0.519,0.0,0.0,0.0,0.0,0.0,0.0,0.0,0.0,0.0,0.0,0.0,0.0,0.0,0.0,0.0,0.0,0.0,0.0,0.0,0.0,0.0,0.0,0.0,0.0,0.0,0.0,0.0,0.0,0.0,0.0,0.0,0.0,0.0,0.0,0.0,0.0,0.0,-2.2893,-2.4063,0.0,0.0,-2.8446,-2.9094,-2.9968,-3.0229,-3.0037,-2.9097,-2.8481,-2.7652,-2.5995,0.0,0.0,-2.2682,-2.19,-2.1304,-2.1004,-2.1529,-2.2242,-2.3028,0.0,0.0,0.0,0.0,0.0,0.0,0.0,0.0,0.0,0.0,0.0,0.0,0.0,0.0,-4.6172,-4.7432,-4.824,-4.8503,-4.975,-5.0575,-5.0891,-5.0891,-5.0891,-5.0891,-5.0891,-5.0891,-5.0891,-5.0891,-5.0891,-5.0891,-5.0891,0.0,0.0,-5.0891,-5.0891,-5.0855,-5.0539,-4.9662,-4.8521,-4.8222,-4.7327,-4.6172,0.0,0.0,0.0,0.0,0.0,0.0,-0.2332,-0.2715,-0.3029,-0.3128,-0.3833,-0.4372,-0.4511,-0.4596,-0.4819,-0.5235,0.0,0.0,0.0,0.0,0.0,0.0,0.0,0.0,0.0,0.0,0.0,0.0,0.0,0.0,0.0,0.0,0.0,0.0,0.0,0.0,0.0,0.0,0.0,0.0,0.0,0.0,0.0,0.0,0.0,0.0,0.0,0.0,0.0,0.0,0.0,0.0,0.0,0.0,0.0,0.0,-2.7122,-2.7512,-2.8502,-2.8816,-2.8586,-2.75,-2.7093,-2.6422,0.0,0.0,0.0,-2.164,-2.099,-2.0607,-2.0359,-2.0884,-2.1595,-2.2383,0.0,-2.5805,0.0,0.0,0.0,0.0,0.0,0.0,0.0,0.0,0.0,0.0,0.0,0.0,0.0,-4.7503,-4.8328,-4.8503,-5.0066,-5.0891,-5.0891,-5.0891,-5.0891,-5.0891,-5.0891,-5.0891,-5.0891,-5.0891,-5.0891,-5.0891,0.0,0.0,0.0,-5.0891,-5.0891,-5.0891,-5.0891,-4.9943,-4.8573,-4.8573,-4.7573,-4.6172,0.0,0.0,0.0,0.0,0.0,0.0,0.0,-0.274,-0.3051,-0.3174,-0.3611,-0.3953,-0.4092,-0.423,-0.4367,-0.45,0.0,0.0,0.0,0.0,0.0,0.0,0.0,0.0,0.0,0.0,-0.7927,-0.9394,-0.9532,-1.0348,0.0,0.0,0.0,0.0,0.0,0.0,0.0,0.0,0.0,0.0,0.0,0.0,0.0,0.0,0.0,0.0,0.0,0.0,0.0,0.0,0.0,0.0,0.0,0.0,0.0,0.0,-2.6053,-2.6584,-2.6463,-2.651,-2.6602,-2.6446,-2.5925,-2.5015,0.0,0.0,-2.2588,-2.0362,-1.9921,-1.9674,-1.8857,-1.9332,-2.0068,-2.0802,-2.2834,0.0,0.0,0.0,0.0,0.0,0.0,0.0,0.0,0.0,0.0,0.0,0.0,0.0,0.0,-4.6976,-4.7748,-4.8503,-5.0066,-5.0891,-5.0891,-5.0891,-5.0891,-5.0891,-5.0891,-5.0891,-5.0891,-5.0891,-5.0891,0.0,0.0,0.0,0.0,-5.0891,-5.0891,-5.0891,-5.0891,-4.9925,-4.8521,-4.8521,-4.7538,-4.6172,0.0,0.0,0.0,0.0,0.0,0.0,0.0,-0.2583,-0.2751,-0.2784,-0.3241,-0.3614,-0.375,-0.3838,-0.3946,-0.4078,0.0,0.0,0.0,0.0,0.0,0.0,0.0,0.0,0.0,0.0,-0.8507,-0.9536,-1.018,-1.1012,-1.2012,-1.2262,0.0,0.0,0.0,0.0,0.0,0.0,0.0,0.0,0.0,0.0,0.0,0.0,0.0,0.0,0.0,0.0,0.0,0.0,0.0,0.0,0.0,0.0,0.0,-2.2065,0.0,0.0,-2.5444,-2.5743,-2.5665,-2.5147,-2.447,-2.3633,-2.2664,0.0,-2.0749,-2.0045,-1.9498,-1.9072,-1.8805,-1.9816,-2.0752,-2.0937,-2.3305,0.0,0.0,0.0,0.0,0.0,0.0,0.0,0.0,0.0,0.0,0.0,0.0,0.0,0.0,-4.6958,-4.7748,-4.8538,-4.9539,-5.0329,-5.0873,-5.0891,-5.0891,-5.0891,-5.0891,-5.0891,-5.0891,-5.0891,0.0,0.0,0.0,0.0,0.0,-5.0891,-5.0891,-5.0891,-5.0891,-4.9925,-4.8521,-4.8521,-4.7538,-4.6172,0.0,0.0,0.0,0.0,0.0,0.0,0.0,-0.2529,-0.2617,-0.2664,-0.2981,-0.3255,-0.3363,-0.3458,-0.3562,-0.3664,0.0,0.0,0.0,0.0,0.0,0.0,0.0,0.0,-0.7373,-0.8125,-0.8897,-0.9684,-1.0546,-1.1383,-1.2179,-1.2423,-1.2623,-1.2778,0.0,0.0,0.0,0.0,0.0,0.0,0.0,0.0,-1.4299,0.0,0.0,0.0,0.0,0.0,0.0,0.0,0.0,0.0,0.0,0.0,0.0,0.0,-2.1033,0.0,0.0,-2.3731,-2.3633,-2.3223,-2.2729,0.0,0.0,0.0,-1.9834,-1.9552,-1.9108,-1.8788,-1.8788,-1.9801,-2.072,-2.0958,-2.3318,0.0,0.0,0.0,0.0,0.0,0.0,0.0,0.0,0.0,0.0,0.0,0.0,0.0,0.0,-4.6695,-4.7327,-4.8117,-4.8854,-4.9486,-4.9995,-5.0013,-5.0013,-5.003,-5.0294,-5.0434,-5.0452,-5.075,0.0,0.0,0.0,0.0,0.0,-5.0891,-5.0891,-5.0855,-5.0557,-4.9662,-4.8503,-4.8205,-4.7309,-4.6172,0.0,0.0,0.0,0.0,0.0,0.0,0.0,0.0,0.0,0.0,-0.2865,-0.2932,-0.3003,-0.3127,-0.3238,0.0,0.0,0.0,0.0,0.0,0.0,0.0,0.0,0.0,-0.7499,-0.8348,-0.911,-0.9812,-1.0742,-1.1571,-1.2323,-1.253,-1.2706,-1.2908,-1.3123,-1.3329,0.0,0.0,0.0,0.0,0.0,0.0,0.0,0.0,0.0,0.0,0.0,0.0,0.0,0.0,0.0,0.0,0.0,0.0,0.0,0.0,0.0,0.0,0.0,0.0,0.0,0.0,0.0,0.0,0.0,0.0,0.0,-1.8948,-1.8788,-1.8788,-1.8788,-1.9445,-2.0205,-2.0909,0.0,0.0,0.0,0.0,0.0,0.0,0.0,0.0,0.0,0.0,0.0,0.0,0.0,0.0,0.0,-4.6172,-4.6555,-4.7292,-4.7994,-4.8415,-4.8521,-4.8573,-4.8591,-4.8591,-4.9276,-4.9592,-4.9627,-5.0382,0.0,0.0,0.0,0.0,0.0,-5.0838,-5.0803,-5.0715,-4.9925,-4.9153,-4.8415,-4.7678,-4.6906,-4.6172,0.0,0.0,0.0,0.0,0.0,0.0,0.0,0.0,0.0,0.0,-0.2941,-0.3022,-0.3145,-0.3229,-0.3306,0.0,0.0,0.0,0.0,0.0,0.0,0.0,0.0,0.0,-0.765,-0.8905,-0.9698,-1.0042,-1.137,-1.2167,-1.2459,-1.2716,-1.2885,-1.2979,-1.3243,-1.3528,0.0,0.0,0.0,0.0,0.0,0.0,0.0,0.0,0.0,0.0,-1.4293,-1.4381,0.0,0.0,0.0,0.0,0.0,0.0,0.0,0.0,-1.7504,-1.8182,-1.836,0.0,-2.0994,-2.1075,-2.0613,0.0,0.0,0.0,-1.902,-1.8841,0.0,0.0,-1.8788,0.0,0.0,0.0,0.0,0.0,0.0,0.0,0.0,0.0,0.0,0.0,0.0,0.0,0.0,0.0,0.0,0.0,0.0,-4.6172,-4.6259,-4.6502,-4.6677,-4.7345,-4.8556,-4.8591,-4.8573,-4.8538,-4.8714,-4.8784,-4.8802,-4.8995,0.0,0.0,0.0,0.0,-5.0838,-5.0224,-4.996,-4.989,-4.91,-4.8328,-4.7661,-4.7467,-4.6906,-4.6172,0.0,0.0,0.0,0.0,0.0,0.0,0.0,0.0,0.0,0.0,0.0,0.0,0.0,0.0,0.0,0.0,0.0,0.0,0.0,0.0,0.0,0.0,0.0,-0.7826,-0.8242,-0.9357,-1.016,-1.0589,-1.1808,-1.2616,-1.3059,-1.3281,-1.3472,-1.3586,-1.3565,-1.3672,0.0,0.0,0.0,0.0,0.0,0.0,0.0,0.0,0.0,0.0,-1.4299,-1.4255,0.0,-1.4208,-1.4441,-1.4756,0.0,0.0,0.0,0.0,-1.6433,-1.7146,-1.7503,-1.8769,-2.0012,-2.0032,-1.9712,-1.9411,-1.943,0.0,0.0,0.0,0.0,0.0,0.0,0.0,0.0,0.0,0.0,0.0,0.0,0.0,0.0,0.0,0.0,0.0,0.0,0.0,0.0,0.0,0.0,0.0,0.0,-4.635,-4.635,-4.635,-4.635,-4.6724,-4.7503,-4.752,-4.7503,-4.7467,-4.7836,-4.8012,-4.8012,-4.8363,-4.8749,0.0,0.0,0.0,-4.9767,-4.9346,-4.9188,-4.9118,-4.831,-4.7748,-4.7345,-4.6993,-4.659,-4.6172,0.0,0.0,0.0,0.0,0.0,0.0,0.0,0.0,0.0,0.0,0.0,0.0,0.0,0.0,0.0,0.0,0.0,0.0,0.0,0.0,0.0,0.0,-0.7074,-0.8169,-0.8922,-0.9706,-1.0484,-1.1249,-1.2199,-1.3023,-1.3746,-1.4047,-1.4245,-1.4318,-1.4006,-1.3885,0.0,0.0,0.0,0.0,-1.4216,0.0,0.0,0.0,0.0,0.0,0.0,0.0,0.0,-1.4199,-1.4159,-1.41,-1.41,0.0,0.0,0.0,0.0,0.0,-1.7199,-1.8003,-1.8663,-1.877,-1.8788,-1.8788,-1.8788,0.0,0.0,0.0,0.0,0.0,0.0,0.0,0.0,0.0,0.0,0.0,0.0,0.0,0.0,0.0,0.0,0.0,0.0,0.0,0.0,0.0,0.0,0.0,0.0,-4.659,-4.659,-4.659,-4.659,-4.6495,-4.627,-4.627,-4.627,-4.6288,-4.6938,-4.7272,-4.7289,-4.7922,-4.8291,0.0,0.0,0.0,-4.8521,-4.8433,-4.8415,-4.8345,-4.7538,-4.7222,-4.7134,-4.6467,-4.6172,-4.6172,0.0,0.0,0.0,0.0,0.0,0.0,0.0,0.0,0.0,0.0,0.0,0.0,0.0,0.0,0.0,0.0,0.0,0.0,0.0,0.0,0.0,-0.5959,-0.7189,-0.8258,-0.9048,-0.9804,-1.0603,-1.1453,-1.2776,-1.3583,-1.3897,-1.466,-1.4818,-1.4482,-1.459,-1.4357,-1.3903,-1.3966,-1.4078,-1.4198,-1.426,0.0,0.0,0.0,0.0,0.0,0.0,0.0,0.0,-1.4199,-1.4159,-1.41,-1.41,0.0,0.0,0.0,0.0,0.0,-1.638,-1.7165,-1.795,-1.8646,-1.8788,-1.8788,-1.8788,0.0,0.0,0.0,0.0,0.0,0.0,0.0,0.0,0.0,0.0,0.0,0.0,0.0,0.0,0.0,0.0,0.0,0.0,0.0,0.0,0.0,0.0,0.0,0.0,-4.659,-4.659,-4.659,-4.659,-4.659,-4.6542,-4.6542,-4.6542,-4.6542,-4.6666,-4.6719,-4.6737,-4.6843,-4.7219,-4.7724,0.0,-4.8043,-4.8468,-4.7836,-4.7573,-4.7503,-4.6713,-4.6397,-4.6397,-4.6274,-4.6172,-4.6172,0.0,0.0,0.0,0.0,0.0,0.0,0.0,0.0,0.0,0.0,0.0,0.0,0.0,0.0,0.0,0.0,0.0,0.0,0.0,0.0,-0.6033,-0.6054,-0.7344,-0.8573,-0.9666,-1.0091,-1.1055,-1.2582,-1.3375,-1.4207,-1.5098,-1.5723,-1.5698,-1.5149,-1.4951,-1.4495,-1.3903,-1.397,-1.4082,-1.4195,0.0,0.0,0.0,0.0,0.0,0.0,0.0,0.0,0.0,0.0,-1.4131,-1.41,-1.41,0.0,0.0,0.0,0.0,0.0,-1.6076,-1.6665,-1.7254,-1.8503,-1.8788,-1.8895,-1.9359,0.0,0.0,0.0,0.0,0.0,0.0,0.0,0.0,0.0,0.0,0.0,0.0,0.0,0.0,0.0,0.0,0.0,0.0,0.0,0.0,0.0,0.0,0.0,0.0,0.0,-4.6842,-4.6842,-4.6842,-4.6842,-4.6842,-4.6842,-4.6731,-4.659,-4.659,-4.659,-4.659,-4.659,-4.6784,-4.7042,0.0,-4.7188,-4.7339,-4.6987,-4.6797,-4.6713,-4.6362,-4.6172,-4.6172,-4.6172,-4.6172,-4.6172,0.0,0.0,0.0,0.0,0.0,0.0,0.0,0.0,0.0,0.0,0.0,0.0,0.0,0.0,0.0,0.0,0.0,0.0,0.0,0.0,-0.6105,-0.6115,-0.7472,-0.8859,-1.0217,-1.0348,-1.1444,-1.3574,-1.396,-1.4919,-1.6436,-1.6814,-1.6516,-1.5678,-1.5314,-1.4685,-1.3903,-1.3973,-1.409,-1.4204,0.0,0.0,0.0,0.0,0.0,0.0,0.0,0.0,0.0,0.0,0.0,0.0,0.0,0.0,0.0,-1.41,-1.41,-1.4453,-1.5987,-1.6397,-1.679,-1.8414,-1.8788,-1.902,-1.9823,0.0,0.0,0.0,0.0,0.0,0.0,0.0,0.0,0.0,0.0,0.0,0.0,0.0,0.0,0.0,0.0,0.0,0.0,0.0,0.0,0.0,0.0,0.0,0.0,0.0,-4.6998,-4.6998,-4.6998,-4.6998,-4.6998,-4.6998,-4.6888,-4.6684,-4.6684,-4.6684,-4.6684,-4.6684,-4.6684,-4.6637,-4.6637,-4.659,-4.6429,-4.6429,-4.635,-4.627,-4.6221,-4.6172,-4.6172,-4.6172,-4.6172,-4.6172,0.0,0.0,0.0,0.0,0.0,0.0,0.0,0.0,0.0,0.0,0.0,0.0,0.0,0.0,0.0,0.0,0.0,0.0,0.0,0.0,-0.6131,-0.6192,-0.7541,-0.8958,-1.0366,-1.0398,-1.1514,-1.379,-1.4471,-1.5709,-1.7419,-1.7687,-1.7071,-1.5695,-1.585,-1.5174,-1.3903,-1.3973,-1.409,-1.419,-1.4204,0.0,0.0,0.0,0.0,0.0,0.0,0.0,0.0,0.0,0.0,0.0,0.0,0.0,-1.41,-1.41,-1.41,-1.4453,-1.5987,-1.6397,-1.679,-1.8414,-1.8788,0.0,-1.9823,-2.0002,0.0,-2.1893,0.0,0.0,0.0,0.0,0.0,0.0,0.0,0.0,0.0,0.0,0.0,0.0,0.0,0.0,0.0,0.0,0.0,0.0,0.0,0.0,0.0,0.0,0.0,-4.6998,-4.6998,-4.6998,-4.6998,-4.6998,-4.6998,-4.698,-4.698,-4.698,-4.698,-4.698,-4.6888,-4.6795,-4.6795,-4.6684,-4.659,-4.6447,-4.6381,-4.6398,-4.627,-4.6172,-4.6172,-4.6172,-4.6172,-4.6172,0.0,0.0,0.0,0.0,0.0,0.0,0.0,0.0,0.0,0.0,0.0,0.0,0.0,0.0,0.0,0.0,0.0,0.0,0.0,-0.5386,-0.6171,-0.6192,-0.7597,-0.9046,-1.0495,-1.0527,-1.162,-1.3856,-1.5201,-1.6425,-1.7572,-1.7794,-1.7105,-1.5695,-1.5919,-1.5192,-1.3841,-1.3941,-1.4026,-1.4082,-1.4177,-1.4204,0.0,0.0,0.0,0.0,0.0,0.0,0.0,0.0,-1.41,-1.41,-1.41,-1.41,-1.41,-1.41,-1.41,-1.4453,-1.5987,-1.6397,-1.6915,-1.902,-1.9556,0.0,0.0,-2.1465,-2.2482,-2.357,0.0,0.0,0.0,0.0,0.0,0.0,0.0,0.0,0.0,0.0,0.0,0.0,0.0,0.0,0.0,0.0,0.0,0.0,0.0,0.0,0.0,0.0,0.0,-4.6962,-4.6998,-4.6998,-4.6998,-4.6998,-4.6998,-4.6998,-4.6998,-4.6998,-4.6998,-4.6998,-4.698,-4.6934,-4.6934,-4.6842,-4.6731,-4.6684,-4.659,-4.6495,-4.6398,-4.6253,-4.6172,-4.6172,-4.6172,-4.6172,0.0,0.0,0.0,0.0,0.0,0.0,0.0,0.0,0.0,0.0,0.0,0.0,0.0,0.0,0.0,0.0,0.0,0.0,-0.4094,-0.5413,-0.6202,-0.6237,-0.762,-0.9103,-1.0591,-1.0639,-1.1707,-1.3885,-1.5572,-1.682,-1.7635,-1.7856,-1.7143,-1.5695,-1.5919,-1.5175,-1.3809,-1.3927,-1.398,-1.4005,-1.41,-1.4145,0.0,0.0,0.0,0.0,0.0,0.0,0.0,0.0,-1.41,-1.41,-1.41,-1.41,-1.41,-1.41,-1.41,-1.4453,-1.5987,-1.6397,-1.6986,0.0,0.0,0.0,-2.1643,-2.2714,-2.3725,-2.4534,0.0,0.0,0.0,0.0,0.0,0.0,0.0,0.0,0.0,0.0,0.0,0.0,0.0,0.0,0.0,0.0,0.0,0.0,0.0,0.0,0.0,0.0,0.0,0.0,-4.6855,-4.6998,-4.6998,-4.6998,-4.6998,-4.6998,-4.6998,-4.6998,-4.6998,-4.6998,-4.6998,-4.6998,-4.6998,-4.6934,-4.6842,-4.6842,-4.6731,-4.659,-4.6447,-4.635,-4.627,-4.6221,-4.6172,-4.6172,0.0,0.0,0.0,0.0,0.0,0.0,0.0,0.0,0.0,0.0,0.0,0.0,0.0,0.0,0.0,0.0,0.0,0.0,-0.4094,-0.5413,-0.6237,-0.6287,-0.764,-0.9129,-1.0654,-1.0686,-1.1759,-1.3893,-1.5581,-1.6814,-1.7693,-1.79,-1.7164,-1.5695,-1.5919,-1.5175,-1.3809,-1.3862,-1.3934,-1.3991,-1.3991,-1.4037,-1.41,0.0,0.0,0.0,0.0,0.0,0.0,0.0,-1.4082,-1.4082,-1.4082,-1.4082,-1.4082,-1.41,-1.41,-1.4453,-1.5987,-1.6397,0.0,0.0,0.0,0.0,-2.3137,-2.3512,-2.3743,-2.4587,0.0,0.0,0.0,0.0,0.0,0.0,0.0,0.0,0.0,0.0,0.0,0.0,0.0,0.0,0.0,0.0,0.0,0.0,0.0,0.0,0.0,0.0,0.0,0.0,-4.6569,-4.698,-4.6998,-4.6998,-4.6998,-4.6998,-4.6998,-4.6998,-4.6998,-4.6998,-4.6998,-4.6998,-4.6998,-4.6998,-4.6998,-4.6842,-4.6731,-4.659,-4.6447,-4.6381,-4.6381,-4.627,-4.6172,-4.6172,0.0,0.0,0.0,0.0,0.0,0.0,0.0,0.0,0.0,0.0,0.0,0.0,0.0,0.0,0.0,0.0,0.0,0.0,-0.4098,-0.5415,-0.6237,-0.6287,-0.764,-0.8874,-0.991,-1.1039,-1.242,-1.4117,-1.4652,-1.5603,-1.693,-1.7139,-1.6689,-1.5712,-1.5918,-1.5141,-1.3746,-1.3853,-1.3912,-1.3934,-1.398,-1.4012,-1.3973,0.0,0.0,0.0,0.0,0.0,0.0,0.0,0.0,0.0,-1.3084,-1.3262,-1.3369,-1.3922,-1.41,-1.4453,-1.5987,0.0,0.0,0.0,0.0,0.0,0.0,-2.4748,0.0,0.0,0.0,0.0,0.0,0.0,0.0,0.0,0.0,0.0,0.0,0.0,0.0,0.0,0.0,0.0,0.0,0.0,0.0,0.0,0.0,0.0,0.0,0.0,0.0,0.0,-4.6034,-4.6427,-4.698,-4.6998,-4.6998,-4.6998,-4.6998,-4.6998,-4.6998,-4.6998,-4.6998,-4.6998,-4.6998,-4.6998,-4.6998,-4.6952,-4.6842,-4.6749,-4.6684,-4.659,-4.6398,-4.635,-4.6253,-4.6172,0.0,0.0,0.0,0.0,0.0,0.0,0.0,0.0,0.0,0.0,0.0,0.0,0.0,0.0,0.0,0.0,0.0,0.0,0.0,-0.5441,-0.6267,-0.6291,-0.7675,-0.8976,-1.0096,-1.1381,-1.2622,-1.3804,-1.4161,-1.4992,-1.6214,-1.6339,-1.6006,-1.527,-1.5452,-1.4846,-1.3715,-1.3809,-1.3886,-1.3894,-1.3938,-1.3789,-1.3471,0.0,0.0,0.0,0.0,0.0,0.0,0.0,0.0,0.0,-1.2264,-1.2638,-1.3,-1.3476,-1.385,-1.4453,-1.5987,0.0,0.0,0.0,0.0,0.0,0.0,0.0,0.0,0.0,0.0,0.0,0.0,0.0,0.0,0.0,0.0,0.0,0.0,0.0,0.0,0.0,0.0,0.0,0.0,0.0,0.0,0.0,0.0,0.0,0.0,0.0,0.0,0.0,-4.5481,-4.6034,-4.6516,-4.6837,-4.6998,-4.6998,-4.6998,-4.6998,-4.6998,-4.6998,-4.6998,-4.6998,-4.6998,-4.6998,-4.6998,-4.6998,-4.6934,-4.6888,-4.6842,-4.6684,-4.6542,-4.6429,-4.635,-4.6253,0.0,0.0,0.0,0.0,0.0,0.0,0.0,0.0,0.0,0.0,-0.3766,0.0,0.0,0.0,0.0,0.0,0.0,0.0,0.0,0.0,-0.6322,-0.6393,-0.7754,-0.9235,-1.0771,-1.1576,-1.2356,-1.3109,-1.3916,-1.471,-1.5494,-1.5575,-1.5237,-1.4605,-1.4727,-1.4379,-1.3702,-1.3763,-1.3841,-1.3888,-1.3894,-1.3447,-1.2772,-1.2732,0.0,0.0,0.0,0.0,0.0,0.0,0.0,0.0,-1.158,-1.2103,-1.2727,-1.2857,-1.3422,-1.4332,0.0,0.0,0.0,0.0,0.0,0.0,0.0,0.0,0.0,0.0,0.0,0.0,0.0,0.0,0.0,0.0,0.0,0.0,0.0,0.0,0.0,0.0,0.0,0.0,0.0,0.0,0.0,0.0,0.0,0.0,0.0,0.0,0.0,-4.3518,-4.4874,-4.5659,-4.5802,-4.6516,-4.6926,-4.6998,-4.6998,-4.6998,-4.6998,-4.6998,-4.6998,-4.6998,-4.6998,-4.6998,-4.6998,-4.6998,-4.6998,-4.6998,-4.6888,-4.6795,-4.6795,-4.6542,-4.6429,-4.6381,0.0,0.0,0.0,0.0,0.0,0.0,0.0,0.0,0.0,0.0,0.0,0.0,0.0,0.0,0.0,0.0,0.0,0.0,0.0,0.0,-0.6555,-0.7136,-0.8071,-0.9042,-1.0013,-1.0825,-1.1587,-1.2338,-1.3143,-1.3953,-1.4749,-1.4807,-1.4759,-1.4605,-1.4745,-1.438,-1.3702,-1.3715,-1.3761,-1.3841,-1.3871,-1.3426,-1.2666,-1.2081,-1.1253,0.0,0.0,0.0,0.0,0.0,0.0,0.0,-1.0585,-1.0916,-1.133,-1.2549,-1.3018,-1.3636,0.0,0.0,0.0,0.0,0.0,0.0,0.0,0.0,0.0,0.0,0.0,0.0,0.0,0.0,0.0,0.0,0.0,0.0,0.0,0.0,0.0,0.0,0.0,0.0,0.0,0.0,0.0,0.0,0.0,0.0,0.0,0.0,0.0,-4.35,-4.3839,-4.4589,-4.5784,-4.5963,-4.6373,0.0,-4.6998,-4.6998,-4.6998,-4.6998,-4.6998,-4.6998,-4.6998,-4.6998,-4.6998,-4.6998,-4.6998,-4.6998,-4.698,-4.6888,-4.6778,-4.6749,-4.659,-4.6398,0.0,0.0,0.0,0.0,0.0,0.0,0.0,0.0,0.0,0.0,0.0,0.0,0.0,0.0,0.0,0.0,0.0,0.0,0.0,0.0,-0.6804,-0.793,-0.8367,-0.8969,-0.9776,-1.0252,-1.0999,-1.2105,-1.2588,-1.3227,-1.3971,-1.4007,-1.4025,-1.4076,-1.4177,-1.4003,-1.3653,-1.3684,-1.3731,-1.3761,-1.3841,-1.3383,-1.2622,-1.1879,-1.1089,-1.0298,-0.9537,0.0,0.0,0.0,0.0,0.0,0.0,0.0,-1.0799,-1.1985,-1.2608,-1.3351,0.0,0.0,0.0,0.0,0.0,0.0,0.0,0.0,0.0,0.0,0.0,0.0,0.0,0.0,0.0,0.0,0.0,0.0,0.0,0.0,0.0,0.0,0.0,0.0,0.0,0.0,0.0,0.0,0.0,0.0,0.0,-4.2544,-4.266,-4.303,-4.3322,-4.3893,-4.4696,-4.5427,-4.6016,-4.6427,-4.6819,-4.6998,-4.6998,-4.6998,-4.6998,-4.6998,-4.6998,-4.6998,-4.6998,-4.6998,-4.6998,-4.6998,-4.6998,-4.6952,-4.6888,-4.6842,-4.6684,-4.6495,0.0,0.0,0.0,0.0,0.0,0.0,0.0,0.0,0.0,0.0,0.0,0.0,0.0,0.0,0.0,0.0,0.0,0.0,0.0,0.0,0.0,-0.8538,-0.8587,-0.892,-0.959,-0.9801,-1.0561,-1.1904,-1.2166,-1.2669,-1.3396,-1.3413,-1.3446,-1.3512,-1.3562,-1.3609,-1.3605,-1.3669,-1.37,-1.3698,-1.3761,-1.3369,-1.2626,-1.202,-1.13,-1.0498,-0.9697,-0.9437,-0.9467,-0.9326,0.0,0.0,0.0,0.0,-1.0454,-1.1268,-1.2062,-1.3035,0.0,0.0,0.0,0.0,0.0,0.0,0.0,0.0,0.0,0.0,0.0,0.0,0.0,0.0,0.0,0.0,0.0,0.0,0.0,0.0,0.0,0.0,0.0,0.0,0.0,0.0,0.0,0.0,0.0,0.0,-4.2649,-4.2566,-4.2544,-4.2503,-4.3048,-4.3375,-4.3518,-4.4785,-4.5552,-4.582,-4.6605,-4.6998,-4.6998,-4.6998,-4.6998,-4.6998,-4.6998,-4.6998,-4.6998,-4.6998,-4.6998,-4.6998,-4.6998,-4.6998,-4.6998,-4.6888,-4.6731,-4.6637,0.0,0.0,0.0,0.0,0.0,0.0,0.0,0.0,0.0,0.0,0.0,0.0,0.0,0.0,0.0,0.0,0.0,0.0,-0.6875,0.0,0.0,-0.8587,-0.8587,-0.869,-0.8837,-0.9534,-1.031,-1.115,-1.1928,-1.2669,-1.3396,-1.3413,-1.3446,-1.3512,-1.3562,-1.3609,-1.3605,-1.3669,-1.3702,-1.3717,-1.3778,-1.3354,-1.27,-1.2591,-1.209,-1.1335,-1.0533,-1.0241,-1.0147,-0.9444,-0.9245,0.0,0.0,0.0,0.0,-1.0419,-1.1239,-1.2204,0.0,0.0,0.0,0.0,0.0,0.0,0.0,0.0,0.0,0.0,0.0,0.0,0.0,0.0,0.0,0.0,0.0,0.0,0.0,0.0,0.0,0.0,0.0,0.0,0.0,0.0,0.0,0.0,0.0,0.0,-4.2783,-4.2745,-4.2685,-4.2503,-4.257,-4.2905,-4.35,-4.3714,-4.4482,-4.582,-4.6605,-4.6998,-4.6998,-4.6998,-4.6998,-4.6998,-4.6998,-4.6998,-4.6998,-4.6998,-4.6998,-4.6998,-4.6998,-4.6998,-4.6998,-4.698,-4.6888,-4.6731,0.0,0.0,0.0,0.0,0.0,0.0,0.0,0.0,0.0,0.0,0.0,0.0,0.0,0.0,0.0,-0.5555,-0.595,-0.6521,-0.7255,-0.7991,-0.845,-0.8587,-0.8587,-0.8628,-0.8705,-0.9088,-0.9844,-1.0999,-1.1422,-1.2245,0.0,-1.3413,-1.3446,-1.3512,-1.3528,-1.356,-1.3605,-1.362,-1.3669,-1.3702,-1.3733,-1.3572,-1.3267,-1.2857,-1.2503,-1.2125,-1.1352,-1.1071,-1.0948,-1.0147,-0.9883,-0.9834,-0.9394,0.0,0.0,0.0,0.0,0.0,0.0,0.0,0.0,0.0,0.0,0.0,0.0,0.0,0.0,0.0,0.0,0.0,0.0,0.0,0.0,0.0,0.0,0.0,0.0,0.0,0.0,0.0,0.0,0.0,0.0,0.0,0.0,0.0,0.0,-4.29,-4.288,-4.2822,-4.2763,-4.2685,-4.2584,-4.2624,-4.2941,-4.3286,-4.4053,-4.5142,-4.5945,-4.632,-4.6337,-4.6783,-4.6998,-4.6998,-4.6998,-4.6998,-4.6998,-4.6998,-4.6998,-4.6998,-4.6998,-4.6998,-4.6998,-4.6998,-4.6934,-4.6795,0.0,0.0,0.0,0.0,0.0,0.0,0.0,0.0,0.0,0.0,0.0,0.0,0.0,0.0,0.0,0.0,-0.6528,-0.6973,-0.7623,-0.8112,-0.845,-0.8587,-0.8587,-0.8628,-0.8705,-0.876,-0.9425,-1.0729,0.0,0.0,-1.3125,-1.3312,-1.343,0.0,-1.3479,-1.3544,-1.3605,0.0,0.0,-1.3686,-1.3702,-1.3733,-1.3724,-1.3179,-1.2998,-1.2903,-1.2143,-1.1879,-1.1756,-1.0972,-1.0708,-1.0568,-0.975,-0.9504,0.0,0.0,0.0,0.0,0.0,0.0,0.0,0.0,0.0,0.0,0.0,0.0,0.0,0.0,0.0,0.0,0.0,0.0,0.0,0.0,0.0,0.0,0.0,0.0,0.0,0.0,0.0,0.0,0.0,0.0,0.0,0.0,0.0,-4.2683,-4.2882,-4.2842,-4.2822,-4.2783,-4.2645,-4.2544,-4.2503,-4.3167,-4.3786,-4.4339,-4.5124,-4.5606,-4.582,-4.6409,-4.6801,-4.6998,-4.6998,-4.6998,-4.6998,-4.6998,-4.6998,-4.6998,-4.6998,-4.6998,-4.6998,-4.6998,-4.6952,-4.6842,0.0,0.0,0.0,0.0,0.0,0.0,0.0,0.0,0.0,0.0,0.0,0.0,-0.5892,-0.6534,-0.6946,-0.6946,-0.7657,-0.8164,-0.8339,-0.8371,-0.845,-0.8587,-0.8587,0.0,-0.8705,-0.876,-0.9174,-0.997,0.0,0.0,-1.2365,-1.3074,-1.3396,-1.3412,-1.3462,-1.3544,-1.3605,0.0,0.0,0.0,0.0,0.0,-1.3713,-1.3741,-1.3771,0.0,0.0,0.0,-1.2534,-1.1792,-1.154,-1.1387,-1.0603,-1.0346,-1.0206,0.0,0.0,0.0,0.0,0.0,0.0,0.0,0.0,0.0,0.0,0.0,0.0,0.0,0.0,0.0,0.0,0.0,0.0,0.0,0.0,0.0,0.0,0.0,0.0,0.0,0.0,0.0,0.0,0.0,0.0,0.0,0.0,-4.2103,-4.2846,-4.29,-4.288,-4.2783,-4.2783,-4.2685,-4.2503,-4.3167,-4.3536,-4.359,-4.4321,-4.5071,-4.5802,-4.5838,-4.6284,-4.6998,-4.6998,-4.6998,-4.6998,-4.6998,-4.6998,-4.6998,-4.6998,-4.6998,-4.6998,-4.6998,-4.6998,-4.698,0.0,0.0,0.0,0.0,0.0,0.0,0.0,0.0,0.0,0.0,0.0,0.0,0.0,-0.7432,-0.7635,-0.7635,-0.7984,-0.8258,-0.8403,-0.8403,-0.8454,-0.8596,-0.8604,-0.8628,-0.8705,-0.8764,-0.9162,-0.9903,0.0,-1.1504,-1.2314,-1.3057,-1.3396,-1.3412,-1.3462,-1.3545,-1.3609,-1.3606,0.0,0.0,0.0,0.0,0.0,0.0,0.0,0.0,0.0,0.0,0.0,0.0,-1.2727,-1.2178,-1.1405,-1.1177,-1.1224,0.0,0.0,0.0,0.0,0.0,0.0,0.0,0.0,0.0,0.0,0.0,0.0,0.0,0.0,0.0,0.0,0.0,0.0,0.0,0.0,0.0,0.0,0.0,0.0,0.0,0.0,0.0,0.0,0.0,0.0,0.0,0.0,0.0,-4.2122,-4.2611,-4.29,-4.2862,-4.2822,-4.2724,-4.2503,-4.2749,-4.2834,-4.2733,-4.3536,-4.4053,-4.4357,-4.4821,-4.5481,-4.623,-4.623,-4.6516,-4.6998,-4.6998,-4.6998,-4.6998,-4.6998,-4.6998,-4.6998,-4.6998,-4.6998,-4.698,0.0,0.0,0.0,0.0,0.0,0.0,0.0,0.0,0.0,-0.6899,0.0,0.0,0.0,0.0,-0.8606,-0.8422,-0.8493,-0.8496,-0.8419,-0.8403,-0.8454,-0.8587,-0.8592,-0.8628,-0.8705,-0.8769,-0.9038,-0.9526,-1.0336,-1.1135,-1.191,-1.2669,-1.3159,-1.3413,-1.3446,-1.3512,0.0,0.0,0.0,-1.4054,0.0,0.0,-1.5245,0.0,0.0,0.0,0.0,0.0,0.0,0.0,0.0,0.0,0.0,0.0,0.0,0.0,0.0,0.0,0.0,0.0,0.0,0.0,0.0,0.0,0.0,0.0,0.0,0.0,0.0,0.0,0.0,0.0,0.0,0.0,0.0,0.0,0.0,0.0,0.0,0.0,0.0,0.0,0.0,0.0,0.0,0.0,0.0,0.0,-4.165,-4.2212,-4.2611,-4.2882,-4.2842,-4.2706,-4.2526,-4.2503,-4.2445,-4.2287,-4.284,-4.3251,-4.3536,-4.4018,-4.4678,-4.541,-4.5677,-4.6266,-4.6998,-4.6998,-4.6998,-4.6998,-4.6998,-4.6998,-4.6998,-4.6998,-4.6998,-4.6998,0.0,0.0,0.0,0.0,0.0,0.0,0.0,0.0,-0.7542,-0.7556,0.0,0.0,0.0,0.0,0.0,-0.9282,-0.9235,-0.9013,-0.8485,-0.8435,-0.8486,-0.862,-0.8608,-0.8628,-0.8693,-0.8757,-0.8809,-0.8809,-0.9605,-1.0366,-1.1087,-1.1893,-1.2652,-1.3362,-1.3379,-1.3445,-1.3578,0.0,-1.4056,-1.4813,0.0,-1.5315,-1.6043,0.0,0.0,0.0,-1.6308,-1.6308,0.0,0.0,0.0,0.0,0.0,0.0,0.0,0.0,0.0,0.0,0.0,0.0,0.0,0.0,0.0,0.0,0.0,0.0,0.0,0.0,0.0,0.0,0.0,0.0,0.0,0.0,0.0,0.0,0.0,0.0,0.0,0.0,0.0,0.0,0.0,0.0,0.0,0.0,0.0,-4.0057,-4.156,-4.1705,-4.2085,-4.2864,-4.2842,-4.2745,-4.2609,-4.2526,-4.2445,-4.2287,-4.2287,-4.2697,-4.3465,-4.3465,-4.3875,-4.4624,-4.5392,-4.6195,-4.6962,-4.698,-4.6998,-4.6998,-4.6998,-4.6998,-4.6998,-4.6998,-4.6998,-4.6998,0.0,0.0,0.0,0.0,0.0,0.0,-0.8022,-0.8163,-0.8419,0.0,0.0,0.0,-0.9558,-0.9864,-1.0048,-0.9999,-0.9999,-0.9986,-0.9921,-0.9473,-0.9244,-0.9327,-0.8856,-0.8616,-0.8628,-0.8693,-0.8757,-0.8809,-0.9564,-1.0058,-1.0316,-1.1071,-1.1859,-1.2601,-1.26,-1.292,-1.3462,-1.3562,0.0,0.0,-1.5365,-1.6055,0.0,0.0,0.0,0.0,0.0,-1.8761,0.0,0.0,-1.6958,-1.5729,0.0,0.0,0.0,0.0,0.0,0.0,-1.4028,0.0,0.0,0.0,0.0,0.0,0.0,0.0,0.0,0.0,0.0,0.0,0.0,0.0,0.0,0.0,0.0,0.0,0.0,0.0,0.0,0.0,0.0,0.0,0.0,0.0,0.0,0.0,-3.9061,-3.9586,-4.0003,-4.1107,-4.2085,-4.2864,-4.29,-4.2786,-4.2609,-4.257,-4.249,-4.2287,-4.2287,-4.2412,-4.2626,-4.2626,-4.3054,-4.3839,-4.4053,-4.491,-4.6177,-4.6748,-4.6998,-4.6998,-4.6998,-4.6998,-4.6998,-4.6998,-4.6998,-4.6998,0.0,0.0,0.0,0.0,0.0,-0.7937,-0.8663,-0.8834,-0.905,0.0,0.0,0.0,-1.0735,-1.0876,-1.0881,-1.0716,-1.0718,-1.0662,-1.0511,-1.0128,-0.9951,-1.0011,-0.937,-0.9033,-0.9058,-0.8829,-0.8717,-0.8757,-0.9209,-0.963,-0.9957,-1.0434,-1.1222,-1.2249,0.0,0.0,0.0,0.0,0.0,0.0,-1.5672,0.0,0.0,-1.8931,-1.9447,0.0,0.0,0.0,-1.9471,-1.9471,-1.8415,0.0,0.0,0.0,0.0,0.0,0.0,0.0,0.0,0.0,0.0,0.0,0.0,0.0,0.0,-1.9163,0.0,0.0,0.0,0.0,0.0,0.0,0.0,0.0,0.0,0.0,0.0,0.0,0.0,0.0,0.0,0.0,0.0,0.0,0.0,-3.7631,-3.8119,-3.8681,-3.9351,-4.0546,-4.1542,-4.2338,-4.2374,-4.2423,-4.2548,-4.2548,-4.2468,-4.2287,-4.2287,-4.2287,-4.2287,-4.2287,-4.2555,-4.3019,-4.3358,-4.4018,-4.4928,-4.6034,-4.6694,-4.6998,-4.6998,-4.6998,-4.6998,-4.6998,-4.6998,-4.6998,0.0,0.0,0.0,-0.8,-0.8223,-0.8581,-0.9312,-0.9474,-0.9609,0.0,-1.0593,-1.1359,-1.2143,-1.2283,-1.2143,-1.1683,-1.1636,-1.143,-1.0875,-1.0766,-1.0735,-1.072,-1.0088,-0.9756,-0.9798,-0.9146,-0.8808,-0.8808,-0.8791,-0.9126,-0.9785,-0.984,-1.0656,-1.2083,0.0,0.0,0.0,0.0,0.0,-1.579,-1.579,-1.6807,0.0,0.0,-1.9621,0.0,-2.0655,-2.0933,-2.093,-2.0842,-1.9893,0.0,0.0,0.0,0.0,0.0,-1.6351,0.0,0.0,0.0,0.0,0.0,0.0,0.0,-1.8628,-1.8788,-1.902,0.0,0.0,0.0,0.0,0.0,0.0,0.0,0.0,0.0,0.0,0.0,0.0,0.0,0.0,0.0,0.0,-3.5204,-3.6001,-3.6798,-3.6942,-3.7649,-3.917,-3.9931,-4.0691,-4.143,-4.1466,-4.1731,-4.236,-4.2378,-4.2356,-4.2287,-4.2287,-4.2287,-4.2287,-4.2287,-4.2287,-4.2323,-4.3054,-4.3429,-4.3625,-4.4981,-4.607,-4.6873,-4.6962,-4.6998,-4.6998,-4.6998,-4.6998,-4.6998,0.0,0.0,0.0,-0.814,-0.8679,-0.9326,-1.007,-1.0232,-1.0712,-1.1857,-1.2807,-1.3424,-1.3609,-1.3735,-1.3791,-1.3789,-1.3796,-1.3565,-1.3018,-1.2485,-1.1983,-1.151,-1.0848,-1.0489,-1.0505,-0.9842,-0.9505,-0.9505,-0.8986,-0.8824,-0.9009,-0.9021,-0.9844,-1.1323,-1.1338,0.0,0.0,0.0,0.0,-1.5714,-1.5771,0.0,-1.9154,-1.9918,-2.0685,-2.144,-2.2188,-2.2181,-2.1685,0.0,-2.0596,-2.0086,0.0,0.0,0.0,0.0,0.0,0.0,0.0,0.0,0.0,0.0,0.0,0.0,-1.8628,-1.8788,-1.886,0.0,0.0,0.0,0.0,0.0,0.0,0.0,0.0,0.0,0.0,0.0,0.0,0.0,0.0,0.0,0.0,-3.4371,-3.5186,-3.5983,-3.6533,-3.7277,-3.8217,-3.8977,-3.9752,-4.0544,-4.0562,-4.0865,-4.1518,-4.1518,-4.1783,-4.2287,-4.2287,-4.2287,-4.2287,-4.2287,-4.2287,-4.2287,-4.2465,-4.2894,-4.3536,-4.3839,-4.4785,-4.6105,-4.6748,-4.6998,-4.6998,-4.6998,-4.6998,-4.6998,0.0,0.0,-0.8314,-0.903,-0.9491,-1.0002,-1.0749,-1.1211,-1.1759,-1.2482,-1.3425,-1.4004,-1.4069,-1.4142,-1.4239,-1.4382,-1.4405,-1.4319,-1.4123,-1.3823,-1.3359,-1.2726,-1.2094,-1.1596,-1.1254,-1.0568,-1.0025,-0.9689,-0.9356,-0.9052,-0.8757,-0.8781,-0.9601,-1.1047,-1.109,0.0,0.0,0.0,-1.4635,-1.5712,-1.5769,0.0,-1.9338,-2.0119,-2.0949,-2.1843,-2.2615,-2.275,-2.2435,-2.1668,-2.1404,0.0,0.0,-1.9767,-1.9648,0.0,-1.8467,-1.8199,0.0,0.0,0.0,-1.8092,0.0,0.0,0.0,-1.8788,0.0,0.0,0.0,0.0,0.0,0.0,0.0,0.0,0.0,0.0,0.0,0.0,0.0,0.0,0.0,0.0,0.0,-3.2922,-3.3888,-3.5069,-3.575,-3.6492,-3.7302,-3.7718,-3.8438,-3.9588,-3.9606,-3.9908,-4.0599,-4.0992,-4.1386,-4.1698,-4.2091,-4.2287,-4.2287,-4.2287,-4.2287,-4.2287,-4.2287,-4.2519,-4.2929,-4.334,-4.3964,-4.4785,-4.5945,-4.6641,-4.6998,-4.6998,-4.6998,-4.6998,-0.8014,0.0,0.0,-0.9926,-1.027,-1.0676,-1.1416,-1.2072,-1.2614,-1.2972,-1.392,-1.4608,-1.4674,-1.4873,-1.5052,-1.5186,-1.5186,-1.5142,-1.4995,-1.5042,-1.4729,-1.3935,-1.3315,-1.2746,-1.2231,-1.1368,-1.065,-1.0102,-0.9985,-0.957,-0.8891,-0.9106,-0.9842,-1.1006,-1.1213,0.0,0.0,0.0,0.0,-1.5709,0.0,-1.75,-1.9505,-2.0147,-2.1029,-2.2019,-2.2841,-2.3142,-2.3049,-2.2575,0.0,-2.2089,-2.137,-2.1167,0.0,0.0,0.0,0.0,0.0,0.0,0.0,0.0,0.0,-1.9002,0.0,0.0,0.0,0.0,0.0,0.0,0.0,0.0,0.0,0.0,0.0,0.0,0.0,0.0,0.0,0.0,0.0,0.0,0.0,-3.1373,-3.252,-3.3893,-3.4641,-3.5382,-3.6175,-3.6355,-3.7022,-3.8365,-3.8401,-3.8829,-3.97,-4.0342,-4.0806,-4.1109,-4.1752,-4.2144,-4.2287,-4.2287,-4.2287,-4.2287,-4.2287,-4.2287,-4.2341,-4.3001,-4.3358,-4.3618,-4.5195,-4.6195,-4.6783,-4.6926,-4.6998,-4.6998,-0.8205,-0.9052,0.0,0.0,-1.0747,-1.1445,-1.2226,-1.2444,-1.2981,-1.4355,-1.5777,-1.6679,-1.6753,0.0,0.0,0.0,0.0,0.0,-1.6454,0.0,-1.5901,-1.4655,-1.4015,-1.3674,-1.3658,-1.236,-1.1629,-1.1564,-1.0974,-1.0297,-0.9603,-1.0321,-1.0779,0.0,-1.1689,0.0,0.0,0.0,-1.4881,0.0,-1.7118,-1.8728,0.0,-2.0377,-2.1357,-2.2782,-2.3702,-2.3648,-2.3207,0.0,-2.3558,-2.2856,0.0,-2.1967,0.0,0.0,0.0,0.0,0.0,0.0,0.0,0.0,-1.9859,0.0,0.0,0.0,0.0,0.0,0.0,0.0,0.0,0.0,0.0,0.0,0.0,0.0,0.0,0.0,0.0,0.0,0.0,0.0,0.0,0.0,-3.134,-3.2211,-3.2911,-3.3637,-3.4443,-3.5057,-3.5791,-3.6684,-3.6702,-3.7398,-3.8915,-3.9022,-3.9753,-4.1092,-4.1199,-4.1609,-4.2287,-4.2287,-4.2287,-4.2287,-4.2287,-4.2287,-4.2287,-4.2394,-4.2798,-4.3497,-4.5151,-4.5856,-4.6016,-4.673,-4.6998,-4.6998,-0.9321,-0.9744,0.0,0.0,-1.1099,-1.163,-1.2391,-1.3231,-1.4344,-1.5883,-1.6621,-1.7182,0.0,0.0,0.0,0.0,0.0,-1.8383,0.0,0.0,-1.7316,-1.5975,-1.5727,0.0,-1.4492,-1.3528,-1.2815,-1.2375,-1.1711,-1.1008,-1.0347,-1.0689,-1.1099,0.0,-1.194,0.0,-1.3879,0.0,0.0,0.0,0.0,0.0,0.0,-2.0855,-2.2082,-2.3606,-2.3999,-2.427,-2.4489,0.0,-2.4717,0.0,0.0,0.0,0.0,0.0,0.0,0.0,0.0,0.0,0.0,0.0,0.0,0.0,0.0,0.0,-1.9359,0.0,0.0,0.0,0.0,0.0,0.0,0.0,0.0,0.0,0.0,0.0,0.0,0.0,0.0,0.0,0.0,0.0,0.0,0.0,0.0,-3.2094,-3.3377,-3.372,-3.4633,-3.6345,-3.6399,-3.6952,-3.8094,-3.8576,-3.9343,-4.0414,-4.0877,-4.152,-4.2287,-4.2287,-4.2287,-4.2287,-4.2287,-4.2287,-4.2287,-4.2205,-4.2341,-4.2761,-4.4299,-4.5204,-4.5701,-4.6511,-4.6795,-4.6795,-1.0381,0.0,0.0,0.0,0.0,0.0,-1.296,-1.435,-1.5722,0.0,0.0,0.0,-1.8714,-1.9228,0.0,0.0,0.0,-1.9641,0.0,0.0,-1.8749,-1.7417,-1.7013,0.0,0.0,0.0,-1.3796,-1.3102,-1.2604,-1.194,-1.1072,-1.1301,-1.1613,-1.1976,0.0,-1.3039,-1.4255,0.0,0.0,-1.7031,-1.8623,-1.993,-2.1002,-2.1833,-2.2954,-2.4147,-2.4582,-2.5013,-2.5437,-2.5665,-2.5577,0.0,-2.4925,0.0,0.0,0.0,0.0,0.0,-2.2678,0.0,0.0,0.0,0.0,0.0,0.0,0.0,0.0,0.0,0.0,0.0,0.0,0.0,0.0,0.0,0.0,0.0,0.0,0.0,0.0,0.0,0.0,0.0,0.0,0.0,0.0,0.0,0.0,0.0,-3.2152,-3.2438,-3.3437,-3.5364,-3.5846,-3.6453,-3.7255,-3.8058,-3.8861,-3.9629,-4.0396,-4.1199,-4.1966,-4.2198,-4.2287,-4.2287,-4.2287,-4.2287,-4.2246,-4.2145,-4.2061,-4.2197,-4.3642,-4.4569,-4.5187,-4.6236,-4.659,-4.6637,-1.1127,-1.1164,0.0,0.0,0.0,0.0,0.0,0.0,0.0,0.0,0.0,0.0,0.0,0.0,0.0,0.0,0.0,-2.2169,-2.081,0.0,-2.0147,0.0,0.0,-1.6738,0.0,0.0,0.0,-1.3869,-1.384,-1.3111,-1.1792,-1.2549,-1.2568,-1.1943,0.0,-1.3484,-1.4255,-1.5137,-1.6336,-1.7811,-1.936,-2.0968,-2.2515,0.0,-2.3863,-2.4286,-2.5802,0.0,0.0,-2.6314,-2.6051,0.0,0.0,0.0,0.0,0.0,0.0,0.0,0.0,0.0,0.0,-2.2446,0.0,0.0,0.0,0.0,-2.0858,0.0,0.0,0.0,0.0,0.0,-1.8788,-1.8806,-1.8824,0.0,0.0,0.0,0.0,0.0,0.0,0.0,0.0,0.0,0.0,0.0,0.0,0.0,-3.0493,-3.1314,-3.2117,-3.3005,-3.4454,-3.5632,-3.6435,-3.722,-3.8041,-3.8843,-3.9611,-4.036,-4.1163,-4.193,-4.2287,-4.2287,-4.2287,-4.2246,-4.2103,-4.2103,-4.1995,-4.1938,-4.3525,-4.4032,-4.4161,-4.5929,-4.659,-4.6637,0.0,0.0,0.0,0.0,0.0,0.0,0.0,-1.6248,0.0,0.0,0.0,0.0,0.0,0.0,-2.2586,0.0,0.0,-2.269,-2.2201,-2.2169,0.0,0.0,0.0,-1.8874,0.0,0.0,0.0,0.0,0.0,-1.3661,-1.3192,-1.3002,-1.2827,-1.2651,0.0,-1.3745,0.0,0.0,0.0,0.0,0.0,-2.153,-2.2583,0.0,0.0,-2.4927,-2.5999,-2.6609,0.0,-2.7216,-2.7157,-2.6869,-2.6515,-2.6393,-2.6278,-2.5608,-2.5426,0.0,0.0,0.0,-2.4105,-2.3302,0.0,0.0,0.0,0.0,0.0,0.0,0.0,0.0,0.0,0.0,-1.9431,-1.8877,-1.8788,-1.8788,0.0,0.0,0.0,0.0,0.0,0.0,0.0,0.0,0.0,0.0,0.0,0.0,0.0,-2.9744,-3.1011,-3.283,-3.3401,-3.4543,-3.6381,-3.6667,-3.747,-3.8826,-3.9557,-4.0324,-4.1127,-4.193,-4.2287,-4.2287,-4.2205,-4.2145,-4.2103,-4.1952,-4.1866,-4.1938,-4.3399,-4.395,-4.4079,-4.5738,-4.6319,-4.6368,-1.3211,0.0,0.0,0.0,0.0,0.0,0.0,0.0,0.0,0.0,-2.0773,0.0,-2.2886,0.0,-2.3748,0.0,-2.421,-2.4121,-2.3692,-2.366,0.0,-2.1668,-2.1145,0.0,0.0,0.0,0.0,0.0,0.0,-1.4367,-1.3889,-1.3453,-1.3149,-1.2975,0.0,0.0,0.0,0.0,-1.7065,0.0,0.0,-2.2105,0.0,0.0,-2.4511,-2.5236,0.0,-2.7138,-2.7617,-2.7672,-2.7701,-2.7643,-2.73,-2.7197,-2.7093,-2.6383,-2.6203,-2.605,-2.5301,-2.5087,0.0,-2.4462,-2.4123,0.0,-2.3267,0.0,0.0,0.0,0.0,0.0,0.0,0.0,-2.0144,-1.9359,-1.9234,-1.9145,0.0,-1.8788,0.0,0.0,0.0,0.0,0.0,0.0,0.0,0.0,0.0,0.0,0.0,0.0,-2.9922,-3.1974,-3.2581,-3.3883,-3.5953,-3.6256,-3.7059,-3.8397,-3.9414,-4.0182,-4.0717,-4.1787,-4.2287,-4.2228,-4.2145,-4.2061,-4.1977,-4.1866,-4.1956,-4.23,-4.3458,-4.4062,-4.4483,-4.5765,-4.6221,-4.6301,0.0,0.0,0.0,0.0,-1.4826,0.0,0.0,0.0,-2.0036,0.0,-2.2018,-2.3594,-2.4287,-2.5064,-2.5858,-2.6626,-2.6835,0.0,-2.5195,-2.5116,0.0,0.0,-2.1711,-2.097,-2.0909,0.0,0.0,0.0,0.0,0.0,-1.3929,-1.3905,-1.3534,-1.2934,-1.373,0.0,-1.5253,-1.6127,-1.7736,-1.985,-2.1535,-2.2721,-2.3595,-2.4449,-2.4947,-2.5357,-2.6926,-2.7526,-2.7617,-2.7672,-2.7701,-2.773,-2.7859,-2.7929,-2.7872,-2.7165,-2.6988,-2.6871,-2.6086,-2.5847,-2.5829,-2.5818,0.0,0.0,0.0,0.0,-2.3392,0.0,0.0,0.0,0.0,0.0,0.0,-2.0162,-2.0055,-1.977,-1.8966,0.0,0.0,0.0,0.0,0.0,0.0,0.0,0.0,0.0,0.0,0.0,0.0,0.0,-2.8869,-3.0404,-3.1956,-3.3544,-3.5186,-3.5971,-3.6756,-3.7612,-3.9165,-3.9914,-3.9929,-4.1556,-4.2205,-4.2103,-4.2103,-4.1995,-4.178,-4.1833,-4.2203,-4.2886,-4.3658,-4.4448,-4.5238,-4.5958,-4.6253,-4.6381,-1.6117,-1.6291,-1.6448,0.0,-1.6456,-1.6979,0.0,0.0,0.0,0.0,-2.3345,-2.4302,-2.4979,-2.5759,-2.6386,-2.6673,-2.6835,0.0,0.0,0.0,0.0,-2.453,-2.4119,-2.2964,-2.0875,-2.0353,0.0,-1.7577,0.0,0.0,-1.4557,-1.4062,-1.3488,0.0,0.0,0.0,-1.5253,-1.6017,-1.764,-1.985,-2.1535,-2.2693,0.0,0.0,-2.5202,-2.5906,-2.703,-2.7483,-2.7526,-2.76,-2.7659,-2.773,-2.7859,-2.7917,-2.7911,-2.7766,-2.7723,-2.7591,-2.6765,-2.6535,-2.6411,-2.5877,-2.5575,-2.5476,0.0,0.0,0.0,0.0,0.0,0.0,0.0,0.0,0.0,-2.0947,-2.0822,-2.0555,0.0,0.0,0.0,0.0,0.0,0.0,0.0,0.0,0.0,0.0,0.0,0.0,0.0,0.0,0.0,-2.9637,-3.0618,-3.2438,-3.5186,-3.5418,-3.6203,-3.7612,-3.9165,-3.9893,-3.9904,-4.1451,-4.2121,-4.203,-4.1927,-4.1866,-4.1833,-4.2343,-4.2622,-4.2938,-4.4273,-4.5256,-4.5958,-4.6151,-4.6221,-4.6253,-1.7132,0.0,0.0,-1.8401,0.0,0.0,-1.9763,0.0,0.0,-2.3417,-2.4265,0.0,-2.6118,-2.6625,-2.7117,-2.7593,-2.767,0.0,0.0,0.0,0.0,-2.5487,-2.5179,-2.4119,-2.2201,-2.1302,0.0,-1.9146,0.0,0.0,-1.5655,-1.5011,0.0,0.0,0.0,-1.5125,0.0,-1.7091,-1.846,-1.9834,-2.1474,0.0,0.0,-2.4492,-2.5419,-2.6522,-2.7078,-2.7373,-2.7496,-2.7587,-2.763,-2.7701,-2.7795,-2.7842,-2.7906,-2.7946,-2.7986,-2.7908,-2.7437,-2.7313,-2.7207,-2.6819,-2.6446,-2.6198,-2.6232,-2.5966,-2.5593,0.0,0.0,0.0,0.0,0.0,0.0,0.0,0.0,0.0,0.0,0.0,0.0,0.0,0.0,0.0,0.0,0.0,0.0,0.0,0.0,0.0,0.0,0.0,0.0,-2.8749,-2.9852,-3.1613,-3.4086,-3.4798,-3.5741,-3.6968,-3.8851,-3.9736,-3.9784,-4.1345,-4.2012,-4.1902,-4.1841,-4.178,-4.1763,-4.2527,-4.2991,-4.343,-4.4992,-4.5852,-4.6172,-4.6172,-4.6172,-4.6221,0.0,0.0,0.0,0.0,0.0,0.0,0.0,-2.1955,0.0,-2.4254,0.0,-2.6041,-2.7272,-2.7473,-2.7859,-2.8748,0.0,-2.8623,-2.8268,-2.8221,-2.7652,-2.634,-2.5614,-2.4871,-2.4065,-2.209,0.0,0.0,0.0,0.0,-1.6773,-1.616,0.0,0.0,0.0,0.0,0.0,-1.8621,-1.9617,0.0,-2.1389,-2.2962,-2.4399,-2.4537,-2.5581,-2.7007,-2.707,-2.7261,-2.7496,-2.7557,-2.763,-2.7701,-2.7701,-2.7795,-2.7888,-2.7888,-2.7929,-2.7968,-2.7968,-2.7968,-2.7968,-2.7986,-2.7472,-2.6959,-2.6959,-2.6428,-2.5871,-2.5764,-2.5764,-2.5517,0.0,0.0,0.0,0.0,0.0,0.0,0.0,0.0,0.0,0.0,0.0,0.0,0.0,0.0,0.0,0.0,0.0,0.0,0.0,0.0,0.0,-2.7802,-2.942,-3.1048,-3.2692,0.0,-3.5367,-3.6111,-3.8483,-3.9615,-3.9628,-4.122,-4.1902,-4.178,-4.178,-4.1763,-4.1832,-4.2622,-4.3447,-4.4325,-4.5694,-4.6172,-4.6221,-4.6221,-4.6221,-4.627,0.0,0.0,0.0,0.0,0.0,-2.3281,-2.3299,-2.3588,-2.4128,-2.4971,-2.6241,-2.7134,-2.7365,-2.7888,-2.8369,-2.8794,-2.8794,0.0,0.0,0.0,0.0,-2.7762,-2.7083,-2.6119,-2.4863,-2.3291,-2.1948,0.0,0.0,0.0,-1.6686,-1.6053,0.0,0.0,0.0,0.0,-1.7915,-1.9022,0.0,-2.0532,-2.152,-2.2872,-2.4322,-2.4461,-2.5518,-2.6942,-2.7038,-2.7247,-2.7438,-2.7496,-2.7557,-2.763,-2.7672,-2.773,-2.7748,-2.7748,-2.773,-2.776,-2.776,-2.776,-2.7777,-2.7888,-2.7811,-2.7706,-2.7773,-2.7695,-2.7384,-2.6729,-2.6587,-2.6357,-2.5535,0.0,0.0,0.0,0.0,0.0,0.0,0.0,0.0,0.0,0.0,0.0,0.0,0.0,0.0,0.0,0.0,0.0,0.0,0.0,0.0,0.0,-2.9136,0.0,0.0,0.0,-3.5367,-3.6111,-3.8483,-3.9575,-3.9564,-4.1135,-4.1736,-4.1648,-4.1648,-4.199,-4.2658,-4.3395,-4.4536,-4.5835,-4.6116,-4.6172,-4.6221,-4.6301,-4.635,-4.6398,0.0,0.0,0.0,0.0,0.0,0.0,0.0,-2.5697,0.0,-2.635,-2.7288,-2.8057,-2.8411,-2.9058,-2.9543,-2.984,-2.984,-2.9781,-2.969,-2.9674,-2.92,-2.8142,-2.7462,0.0,-2.5535,-2.4128,-2.2912,-2.1884,0.0,0.0,-1.7725,-1.7098,0.0,0.0,0.0,-1.7446,0.0,0.0,0.0,-2.0718,-2.1943,-2.3131,-2.426,-2.4805,-2.5761,-2.6825,-2.6957,-2.7087,-2.7264,-2.739,-2.7496,-2.7557,-2.763,-2.7659,-2.7659,-2.7701,-2.7701,-2.7701,-2.7701,-2.7701,-2.773,-2.7795,-2.7795,-2.7795,-2.7836,-2.7836,-2.773,-2.736,-2.7271,-2.7042,-2.6257,-2.5509,0.0,0.0,0.0,0.0,0.0,0.0,0.0,0.0,0.0,0.0,0.0,0.0,0.0,0.0,0.0,0.0,0.0,0.0,0.0,0.0,0.0,0.0,0.0,0.0,0.0,-3.5398,-3.8148,-3.9429,-3.9458,-4.0989,-4.1648,-4.1604,-4.1604,-4.2061,-4.2903,-4.4044,-4.5203,-4.6172,-4.6172,-4.627,-4.6301,-4.6398,-4.6495,-4.6637,0.0,-2.3985,0.0,0.0,-2.571,0.0,-2.6593,-2.7786,-2.8422,-2.7719,-2.8319,-2.9042,-2.9566,-3.0104,-3.0516,-3.0756,-3.074,-3.061,-3.0179,-3.018,-2.9627,-2.8363,-2.7668,-2.6972,-2.6261,-2.4855,-2.3733,0.0,0.0,0.0,0.0,-1.8292,0.0,0.0,0.0,0.0,0.0,0.0,-2.0659,-2.1151,-2.2365,-2.3453,-2.4413,-2.5195,-2.5983,-2.6708,-2.6842,-2.6975,-2.7087,-2.7264,-2.739,-2.7496,-2.7557,-2.7587,-2.7587,-2.7642,-2.7642,-2.7672,-2.7672,-2.7672,-2.7672,-2.7701,-2.7701,-2.7701,-2.7701,-2.7701,-2.7701,-2.7701,-2.7701,-2.7526,-2.6946,-2.6191,0.0,0.0,0.0,0.0,0.0,0.0,0.0,0.0,0.0,0.0,0.0,0.0,0.0,0.0,0.0,0.0,0.0,0.0,0.0,0.0,0.0,-3.0176,-3.0334,0.0,-3.4776,-3.4969,-3.79,-3.9305,-3.9357,-4.0945,-4.1648,-4.1648,-4.1824,-4.2484,-4.3487,-4.4859,-4.5774,-4.627,-4.627,-4.635,-4.6447,-4.6477,-4.6637,-4.6778,0.0,0.0,0.0,0.0,0.0,0.0,-2.8627,-2.9546,-2.9715,-2.8473,-2.9443,-3.0258,-3.032,-3.0381,-3.0464,-3.0618,-3.0603,-3.0476,-3.005,-3.0003,-2.9706,-2.9028,-2.8363,-2.7683,-2.702,-2.5598,-2.4261,0.0,0.0,0.0,0.0,-1.8961,0.0,0.0,0.0,0.0,0.0,-2.0267,-2.1217,-2.2522,-2.2732,-2.3735,-2.513,-2.533,-2.59,-2.664,-2.6826,-2.6926,-2.6942,-2.707,-2.7247,-2.7407,-2.7496,-2.7496,-2.7496,-2.7526,-2.7526,-2.7526,-2.7569,-2.7617,-2.763,-2.7672,-2.7701,-2.7701,-2.7701,-2.7701,-2.7701,-2.7701,-2.7701,-2.7683,-2.7613,-2.6999,-2.649,0.0,0.0,0.0,0.0,0.0,0.0,0.0,0.0,0.0,0.0,0.0,0.0,0.0,0.0,0.0,0.0,0.0,0.0,-2.5401,0.0,-3.0422,-3.1089,-3.3476,-3.5039,-3.5741,-3.8164,-3.9305,-3.9375,-4.1032,-4.178,-4.1833,-4.2608,-4.3819,-4.5287,-4.61,-4.6472,-4.6542,-4.6542,-4.659,-4.659,-4.6731,-4.6795,-4.6842,0.0,0.0,0.0,0.0,0.0,0.0,0.0,-3.0462,-3.0812,-3.0258,-3.0658,-3.0997,-3.0997,-3.1366,-3.1667,-3.1774,-3.1774,-3.1415,-3.0514,-3.0501,-3.0049,-2.9014,-2.8322,-2.769,-2.7115,-2.6103,-2.4902,0.0,0.0,0.0,0.0,0.0,0.0,0.0,0.0,-1.9817,-2.0183,-2.1163,-2.1972,-2.2655,-2.3637,-2.4412,-2.5094,-2.5696,-2.62,-2.6554,-2.6691,-2.6792,-2.6926,-2.6975,-2.7105,-2.7247,-2.739,-2.7421,-2.7452,-2.7496,-2.7496,-2.7496,-2.7526,-2.7526,-2.7661,-2.8128,-2.8233,-2.8373,-2.8889,-2.9026,-2.9043,-2.9141,-2.9141,-2.9141,-2.9141,-2.8509,-2.7982,0.0,0.0,0.0,0.0,0.0,0.0,0.0,0.0,0.0,0.0,0.0,0.0,0.0,0.0,0.0,0.0,0.0,0.0,-2.6753,0.0,-3.0703,-3.1897,-3.3757,-3.5302,-3.6531,-3.8508,-3.9634,-4.0109,-4.1347,-4.2131,-4.2652,-4.3448,-4.4466,-4.5545,-4.6289,-4.659,-4.659,-4.659,-4.6637,-4.6749,-4.6795,-4.6842,-4.6934,-2.8861,0.0,-2.9633,0.0,-2.9993,-3.0373,-3.0685,-3.1275,-3.1674,-3.1674,-3.1674,-3.1674,-3.1674,-3.2105,-3.2453,-3.2523,-3.2523,-3.2137,-3.1078,-3.0865,-3.0276,-2.9186,-2.8498,0.0,-2.7268,-2.6545,-2.5548,-2.4146,-2.349,0.0,0.0,0.0,0.0,0.0,-2.0607,-2.0911,-2.107,-2.2198,-2.2848,-2.3225,-2.4321,-2.495,-2.5302,-2.6007,-2.6347,-2.645,-2.6572,-2.6691,-2.6826,-2.6893,-2.6975,-2.7087,-2.7264,-2.7296,-2.7327,-2.7421,-2.7452,-2.7452,-2.7483,-2.7639,-2.7935,-2.8488,-2.8784,-2.9097,-2.9719,-2.9874,-2.9892,-2.9992,-2.9992,-3.0024,-3.0056,-2.9583,-2.9215,-2.9263,0.0,0.0,0.0,0.0,0.0,0.0,0.0,-2.5454,-2.4682,0.0,0.0,0.0,0.0,0.0,0.0,0.0,0.0,0.0,0.0,0.0,0.0,-3.4038,-3.5603,-3.74,-3.8836,-3.9917,-4.0694,-4.1864,-4.2835,-4.358,-4.4378,-4.5194,-4.6003,-4.6518,-4.6731,-4.6731,-4.6731,-4.6795,-4.6842,-4.6842,-4.6934,-4.6998,-2.9475,-2.9579,-2.9579,-2.9579,-3.025,-3.1082,-3.1967,-3.2272,-3.2382,-3.2382,-3.2382,-3.2382,-3.2382,-3.2398,-3.2398,-3.2398,-3.2398,-3.216,-3.1604,-3.0975,-3.0359,0.0,0.0,-2.8451,-2.7718,-2.7032,-2.6061,-2.4766,0.0,0.0,-2.2848,0.0,-2.2885,-2.2869,-2.2925,-2.3048,-2.317,-2.324,-2.3835,-2.4677,-2.4694,-2.5206,-2.601,-2.6168,-2.6258,-2.633,-2.6537,-2.6606,-2.664,-2.6826,-2.6893,-2.6926,-2.707,-2.7103,-2.7135,-2.7282,-2.7282,-2.733,-2.7376,-2.7912,-2.8516,-2.8578,-2.9201,-2.9793,-2.981,-2.981,-2.981,-2.981,-2.981,-2.9826,-2.9907,-2.9889,-2.9939,-3.0039,0.0,0.0,0.0,0.0,0.0,0.0,-2.6595,-2.6279,-2.5472,0.0,0.0,0.0,0.0,0.0,0.0,0.0,0.0,-2.7683,-2.9263,0.0,-3.3441,-3.4284,-3.5922,-3.8311,-3.91,-3.9976,-4.0837,-4.2523,-4.3746,-4.4642,-4.5445,-4.6248,-4.698,-4.698,-4.6998,-4.6998,-4.6998,-4.6998,-4.6998,-4.6998,-4.6998,-4.6998,-3.0824,-3.0911,-3.0911,-3.0911,-3.1313,-3.1972,-3.31,-3.2757,-3.2552,-3.3013,-3.2675,-3.2398,-3.2398,-3.2398,-3.2398,0.0,-3.2398,-3.2105,0.0,-3.0834,-3.0207,-2.9692,-2.8993,-2.8342,-2.7718,-2.75,-2.6736,-2.542,0.0,0.0,0.0,-2.288,-2.288,-2.2916,-2.2972,-2.3044,-2.3112,-2.3679,-2.414,-2.456,-2.5082,-2.5501,-2.5828,-2.599,-2.6151,-2.6258,-2.6347,-2.6452,-2.6554,-2.6657,-2.6691,-2.6725,-2.6909,-2.7007,-2.7055,-2.7152,-2.7152,-2.7184,-2.7313,-2.7866,-2.8556,-2.9073,-2.9799,-3.056,-3.1115,-3.1307,-3.1359,-3.1359,-3.1359,-3.1377,-3.1377,-3.0941,-3.0593,-3.0644,-2.9998,0.0,0.0,0.0,0.0,0.0,-2.735,-2.7052,0.0,-2.6226,0.0,0.0,0.0,0.0,0.0,0.0,0.0,0.0,-3.0843,0.0,-3.4302,-3.5601,-3.7242,-3.9141,-3.9976,-4.0878,-4.1866,-4.2917,-4.385,-4.466,-4.5463,-4.6266,-4.6998,-4.6998,-4.6998,-4.6998,-4.6998,-4.6998,-4.6998,-4.6998,-4.6998,-4.6998,-3.1482,-3.1482,-3.1482,-3.1482,-3.1868,-3.2741,-3.4568,-3.4014,-3.3321,-3.3059,-3.2875,-3.2675,-3.2428,-3.2398,0.0,-3.2398,-3.2398,-3.2213,-3.1782,-3.092,-3.0228,-2.9898,-2.9036,-2.834,-2.7984,-2.7721,0.0,-2.6383,-2.5461,-2.4443,-2.3412,-2.3541,-2.3595,-2.3632,-2.3692,-2.3766,-2.3819,-2.4302,-2.4623,-2.4799,-2.5309,-2.5584,-2.568,-2.5828,-2.599,-2.6151,-2.6222,-2.6312,-2.6434,-2.6554,-2.6589,-2.6606,-2.6759,-2.6842,-2.6892,-2.7023,-2.7038,-2.7139,-2.7562,-2.8215,-2.8955,-2.9765,-3.0541,-3.125,-3.1735,-3.1929,-3.1982,-3.1982,-3.1982,-3.2001,-3.2037,-3.1602,-3.1272,-3.1359,-3.0715,-3.0071,-2.9667,0.0,0.0,0.0,0.0,0.0,0.0,-2.7882,-2.7719,0.0,0.0,0.0,0.0,0.0,0.0,-3.0914,-3.1897,0.0,-3.5092,-3.6355,-3.784,-3.9552,-4.0795,-4.1683,-4.2323,-4.3429,-4.4178,-4.4678,-4.5766,-4.6534,-4.6998,-4.6998,-4.6998,-4.6998,-4.6998,-4.6998,-4.6998,-4.6998,-4.6998,-4.6998,-3.175,-3.175,-3.175,0.0,-3.2296,0.0,-3.6107,-3.5753,-3.4583,-3.2906,-3.3059,-3.309,-3.2459,-3.2398,-3.2398,-3.2398,0.0,0.0,0.0,-3.1151,-3.0428,-3.0428,-2.9135,-2.8411,-2.8411,-2.7796,-2.7489,-2.7504,-2.6336,-2.5399,-2.4729,-2.482,-2.486,-2.486,-2.4958,-2.5045,-2.5091,-2.5107,-2.5162,-2.5278,-2.5339,-2.547,-2.56,-2.568,-2.5811,-2.599,-2.6132,-2.6222,-2.6295,-2.6434,-2.652,-2.6572,-2.6589,-2.6657,-2.6809,-2.6959,-2.7009,-2.7246,-2.8081,-2.8853,-2.9661,-3.0471,-3.1248,-3.18,-3.18,-3.18,-3.18,-3.18,-3.18,-3.1819,-3.1875,-3.1894,-3.1948,-3.2073,-3.1446,-3.0959,-3.0907,0.0,0.0,0.0,0.0,0.0,0.0,-3.0007,-3.0106,0.0,0.0,0.0,0.0,0.0,-3.1036,-3.2353,-3.2546,-3.3687,-3.5864,-3.6724,-3.8038,-3.9797,-4.1492,-4.2323,-4.243,-4.3929,-4.4642,-4.4785,-4.632,-4.6998,-4.6998,-4.6998,-4.6998,-4.6998,-4.6998,-4.6998,-4.6998,-4.6998,-4.6998,-4.6998,0.0,0.0,-3.4562,-3.4562,-3.5094,-3.5737,-3.6384,-3.6307,-3.5999,-3.5584,-3.3829,-3.2567,-3.2413,-3.2398,-3.2398,-3.2398,-3.2398,-3.2398,-3.2398,-3.1151,-3.0428,-3.0428,-2.9135,-2.8411,-2.8411,-2.8242,-2.7904,-2.7427,-2.6669,-2.6218,-2.6032,-2.5664,-2.5514,-2.5483,-2.5017,-2.4862,-2.4886,-2.4966,-2.5084,-2.5146,-2.5185,-2.5301,-2.547,-2.56,-2.5696,-2.5811,-2.599,-2.6063,-2.6082,-2.626,-2.6382,-2.6382,-2.6468,-2.6958,-2.7383,-2.7012,-2.7317,-2.7828,-2.8066,-2.9144,-3.0221,-3.0409,-3.1048,-3.1671,-3.18,-3.18,-3.18,-3.18,-3.18,-3.18,-3.1819,-3.1819,-3.1819,-3.1873,-3.1718,-3.1407,-3.0907,-3.0664,0.0,0.0,-2.9793,-2.9826,-2.9826,-2.9892,-2.9957,0.0,0.0,0.0,0.0,-3.2967,-3.3231,-3.2423,-3.4091,-3.5548,-3.6689,-3.8076,-3.9676,-4.1439,-4.1902,-4.2525,-4.3251,-4.4196,-4.4946,-4.557,-4.6569,-4.6998,-4.6998,-4.6998,-4.6998,-4.6998,-4.6998,-4.6998,-4.6998,-4.6998,-4.6998,-4.6998,-3.5504,-3.5504,-3.5504,-3.5504,-3.5812,-3.6052,-3.6052,-3.6304,-3.6492,-3.6492,-3.466,-3.309,-3.2459,-3.2398,-3.2398,-3.2398,-3.2398,-3.2398,-3.2398,-3.1151,-3.0428,-3.0428,-2.9135,-2.8411,-2.8411,-2.8411,-2.8073,-2.7396,-2.7057,-2.6763,-2.6454,-2.6171,-2.6088,-2.6072,-2.5784,-2.5483,-2.5227,-2.5318,-2.521,-2.4966,-2.5068,-2.5185,-2.5301,-2.5432,-2.5546,-2.5696,-2.5828,-2.5901,-2.599,-2.6118,-2.6421,-2.6776,-2.69,-2.7473,-2.8048,-2.7769,-2.8044,-2.854,-2.8934,-2.9668,-3.0401,-3.0796,-3.1247,-3.1559,-3.1651,-3.1688,-3.1709,-3.1709,-3.1746,-3.18,-3.18,-3.18,-3.18,-3.18,-3.18,-3.1662,-3.132,-3.1268,0.0,-3.0768,-3.0734,-3.089,-3.1272,-3.1377,-3.1585,-3.1969,-3.2826,0.0,-3.3441,-3.4565,-3.4828,-3.3986,-3.5513,-3.6724,-3.7496,-3.9083,-4.0556,-4.1902,-4.2012,-4.2505,-4.3433,-4.4181,-4.5009,-4.5838,-4.6641,-4.6998,-4.6998,-4.6998,-4.6998,-4.6998,-4.6998,-4.6998,-4.6998,-4.6998,-4.6998,-4.6998,-3.5504,-3.5504,-3.5504,-3.5504,-3.5504,-3.5504,-3.5504,-3.6004,-3.6367,-3.6367,-3.5077,-3.3706,-3.2521,-3.2398,-3.2342,-3.2342,-3.2342,-3.2342,-3.2398,-3.1098,-3.036,-3.036,-2.9085,-2.8363,-2.8363,-2.8363,-2.8071,-2.7503,-2.7503,-2.7257,-2.6688,-2.6655,-2.6653,-2.6638,-2.665,-2.6364,-2.5819,-2.59,-2.5613,-2.508,-2.5195,-2.5211,-2.525,-2.5294,-2.5432,-2.5578,-2.5642,-2.5819,-2.6008,-2.6102,-2.6706,-2.7446,-2.7504,-2.8077,-2.8736,-2.8736,-2.9026,-2.9414,-2.9997,-3.0255,-3.053,-3.127,-3.1462,-3.1479,-3.1517,-3.1538,-3.1579,-3.1579,-3.1671,-3.1763,-3.1763,-3.18,-3.18,-3.18,-3.18,-3.18,-3.18,0.0,-3.1834,-3.1955,-3.2012,-3.2379,-3.3176,-3.3303,-3.3639,-3.4414,-3.4571,-3.4734,-3.4826,-3.5668,-3.6124,-3.6162,-3.6812,-3.7567,-3.8444,-3.9986,-4.1085,-4.178,-4.1902,-4.2491,-4.349,-4.4165,-4.5009,-4.5971,-4.6649,-4.698,-4.6998,-4.6998,-4.6998,-4.6998,-4.6998,-4.6998,-4.6998,-4.6998,-4.6998,-4.6998,-3.5504,-3.5504,-3.5504,-3.5504,-3.5504,-3.5504,-3.5504,-3.5569,-3.5634,-3.5634,-3.3937,-3.2628,-3.2413,-3.2231,-3.212,-3.212,-3.2079,-3.2135,-3.2398,-3.1029,-3.0241,-3.0241,-2.8819,-2.8054,-2.8054,-2.8054,-2.8057,-2.8082,-2.8082,-2.8084,-2.8088,-2.7503,-2.7273,-2.7257,-2.6762,-2.6481,-2.6373,-2.652,-2.6517,-2.6361,-2.5905,-2.5737,-2.5812,-2.533,-2.5224,-2.5371,-2.5562,-2.5972,-2.6497,-2.6711,-2.7334,-2.8036,-2.8075,-2.8727,-2.9449,-2.9449,-2.9995,-3.0499,-3.0078,-3.0475,-3.1077,-3.1278,-3.1351,-3.1351,-3.1462,-3.1517,-3.1517,-3.1517,-3.1559,-3.1617,-3.1617,-3.1709,-3.18,-3.18,-3.18,-3.18,-3.18,0.0,-3.2024,-3.2662,-3.2731,-3.308,-3.3874,-3.4004,-3.4098,-3.422,-3.4923,-3.5405,-3.5556,-3.6904,-3.7679,-3.7742,-3.7865,-3.8638,-4.0095,-4.099,-4.1569,-4.178,-4.1841,-4.2644,-4.4129,-4.4253,-4.5176,-4.6664,-4.6788,-4.6888,-4.6998,-4.6998,-4.6998,-4.6998,-4.6998,-4.6998,-4.6998,-4.6998,-4.6998,-4.6998,-3.5504,-3.5504,-3.5504,-3.5504,-3.5504,-3.5504,-3.5504,-3.5504,-3.5504,-3.5504,-3.3412,-3.191,-3.191,-3.1853,-3.1796,-3.191,-3.191,-3.1981,-3.2191,-3.0899,-3.0099,-3.0099,-2.8769,-2.802,-2.802,-2.802,-2.8005,-2.8103,-2.8103,-2.8103,-2.8201,-2.7929,-2.7823,-2.7808,-2.7596,-2.7304,-2.701,-2.7101,-2.6929,-2.6557,-2.6361,-2.6365,-2.6461,-2.6198,-2.6195,-2.6333,-2.6511,-2.68,-2.7122,-2.7283,-2.7907,-2.8649,-2.8673,-2.9312,-3.0029,-3.0029,-3.0425,-3.0828,-3.0555,-3.0802,-3.1112,-3.1213,-3.1252,-3.1252,-3.1308,-3.1385,-3.1406,-3.1406,-3.1483,-3.1538,-3.1538,-3.1634,-3.1709,-3.1709,-3.1746,0.0,0.0,-3.2145,-3.2524,-3.2869,-3.3283,-3.3835,-3.4611,-3.4703,-3.4915,-3.5411,-3.618,-3.6696,-3.6812,-3.7941,-3.8828,-3.9291,-3.935,-3.9937,-4.1078,-4.1429,-4.1648,-4.1692,-4.1692,-4.2546,-4.4198,-4.4198,-4.5092,-4.6684,-4.6684,-4.6795,-4.6888,-4.6888,-4.6934,-4.6998,-4.6998,-4.6998,-4.6998,-4.6998,-4.6998,-4.6998,-3.5439,-3.5504,-3.5504,-3.5504,-3.5504,-3.5504,-3.5504,-3.5504,-3.5295,-3.4666,-3.2796,-3.1482,-3.1482,-3.1482,-3.1582,-3.1697,-3.1739,-3.1754,-3.1883,-3.0628,-2.9902,-2.994,-2.8616,-2.7905,-2.7905,-2.7905,-2.7905,-2.7955,-2.7955,-2.7955,-2.802,-2.8103,-2.8137,-2.8152,-2.825,-2.8023,-2.7579,-2.7658,-2.7396,-2.6963,-2.6898,-2.6969,-2.7027,-2.6985,-2.7036,-2.7164,-2.7306,-2.7502,-2.7714,-2.7881,-2.8491,-2.9176,-2.927,-2.9789,-3.0359,-3.0359,-3.0543,-3.0831,-3.0935,-3.0992,-3.0975,-3.1112,-3.1151,-3.1202,-3.1371,-3.145,-3.1579,-3.1749,-3.1896,-3.2008,-3.2008,-3.2051,-3.2111,-3.2111,0.0,0.0,0.0,-3.2779,-3.3193,-3.3404,-3.3973,-3.4645,-3.537,-3.5456,-3.5808,-3.6669,-3.7257,-3.7698,-3.8034,-3.8833,-3.9704,-4.0534,-4.0701,-4.1025,-4.1604,-4.1604,-4.1604,-4.1604,-4.1604,-4.2457,-4.4043,-4.4043,-4.4982,-4.6542,-4.6542,-4.6637,-4.6749,-4.6795,-4.6842,-4.6952,-4.6998,-4.6998,-4.6998,-4.6998,-4.6998,-4.6998,-3.5374,-3.5504,-3.5504,-3.5504,-3.5504,-3.5504,-3.5504,-3.5504,-3.4622,-3.2153,-3.1601,-3.1482,-3.1482,-3.1482,-3.1539,-3.1524,-3.1524,-3.1539,-3.1539,-3.0368,-2.9672,-2.9818,-2.8381,-2.7625,-2.7625,-2.7625,-2.7675,-2.779,-2.779,-2.7905,-2.802,-2.8005,-2.8005,-2.802,-2.802,-2.8073,-2.8158,-2.8158,-2.8192,-2.8196,-2.7643,-2.7427,-2.7411,-2.7058,-2.6895,-2.6938,-2.7121,-2.7651,-2.8268,-2.8469,-2.9076,-2.9772,-2.9892,-3.0054,-3.0189,-3.0189,-3.0333,-3.0501,-3.0831,-3.0912,-3.0912,-3.0912,-3.0992,-3.12,-3.1873,-3.2148,-3.2432,-3.3085,-3.3337,-3.3437,-3.3437,-3.3485,-3.355,-3.355,0.0,0.0,-3.3728,-3.3779,-3.4112,-3.4938,-3.5076,-3.5404,-3.6146,-3.6215,-3.6542,-3.7379,-3.75,-3.7871,-3.8668,-3.9413,-4.0311,-4.1276,-4.1428,-4.1552,-4.1604,-4.1604,-4.1604,-4.1604,-4.1604,-4.2412,-4.3886,-4.3886,-4.4824,-4.6429,-4.6429,-4.6495,-4.6637,-4.6731,-4.6795,-4.6842,-4.6934,-4.6998,-4.6998,-4.6998,-4.6998,-4.6998,-3.475,-3.4817,-3.4817,-3.4817,-3.5228,-3.5504,-3.5504,-3.5504,-3.4547,-3.1825,-3.1482,-3.1482,-3.1482,-3.1482,-3.1482,-3.1482,-3.1482,-3.1482,-3.1482,-3.0313,-2.9259,-2.8471,-2.7895,-2.7625,-2.7625,-2.7625,-2.7625,-2.7675,-2.7675,-2.7675,-2.774,-2.784,-2.7905,-2.7905,-2.7955,-2.8005,-2.8054,-2.8054,-2.8137,-2.8268,-2.8008,-2.8044,-2.8155,-2.8,-2.7999,-2.8091,-2.8225,-2.8505,-2.8833,-2.8952,-2.9351,-2.9754,-2.9814,-2.993,-3.0103,-3.0205,-3.0274,-3.0417,-3.0543,-3.0692,-3.079,-3.0871,-3.1264,-3.1707,-3.2042,-3.2504,-3.2967,-3.3355,-3.3448,-3.3465,-3.3465,-3.3573,-3.3615,-3.3615,0.0,-3.3704,-3.3761,-3.423,-3.4665,-3.5022,-3.5528,-3.5924,-3.6284,-3.6749,-3.7163,-3.7456,-3.8336,-3.9036,-3.9358,-4.0181,-4.0874,-4.1363,-4.1471,-4.1515,-4.1604,-4.1604,-4.1604,-4.1604,-4.1604,-4.2412,-4.3904,-4.3904,-4.4794,-4.627,-4.627,-4.635,-4.6495,-4.6542,-4.659,-4.6684,-4.6842,-4.6888,-4.6888,-4.698,-4.6998,-4.6998,-3.4414,-3.4414,-3.4414,-3.4414,-3.4817,-3.5162,-3.5162,-3.5162,-3.4292,-3.1825,-3.1482,-3.1424,-3.1234,-3.1234,-3.1234,-3.1307,-3.1292,-3.1307,-3.1366,-3.0131,-2.886,-2.7584,-2.7473,-2.7473,-2.7473,-2.7473,-2.7473,-2.7524,-2.7524,-2.7575,-2.7625,-2.7675,-2.774,-2.774,-2.784,-2.7905,-2.7955,-2.7955,-2.8005,-2.8137,-2.8186,-2.8332,-2.8477,-2.8573,-2.8684,-2.8732,-2.8858,-2.8936,-2.9075,-2.9213,-2.9396,-2.9592,-2.9608,-2.977,-2.9946,-3.0103,-3.0189,-3.0323,-3.0613,-3.079,-3.0958,-3.1083,-3.1692,-3.2352,-3.2622,-3.316,-3.3624,-3.398,-3.4074,-3.41,-3.41,-3.4159,-3.4245,-3.4245,-3.427,-3.4295,-3.4337,-3.484,-3.5224,-3.5317,-3.5797,-3.6251,-3.6603,-3.7103,-3.7663,-3.8146,-3.9129,-3.9802,-4.0043,-4.0753,-4.1186,-4.1307,-4.138,-4.1426,-4.1515,-4.156,-4.1604,-4.1604,-4.1604,-4.2412,-4.3904,-4.3904,-4.4746,-4.6172,-4.6172,-4.627,-4.635,-4.6381,-4.6429,-4.6542,-4.6684,-4.6778,-4.6795,-4.6888,-4.6934,-4.6998,-3.4414,-3.4414,-3.4414,-3.4414,-3.4414,-3.4414,-3.4399,-3.4399,-3.3682,-3.1766,-3.1482,-3.1234,-3.0702,-3.0568,-3.0702,-3.0895,-3.0895,-3.0955,-3.1073,-2.9835,-2.8577,-2.7461,-2.7284,-2.7181,-2.7181,-2.7181,-2.7284,-2.7401,-2.7401,-2.7488,-2.7625,-2.7625,-2.7625,-2.7625,-2.7625,-2.7675,-2.779,-2.779,-2.7905,-2.8005,-2.8137,-2.8186,-2.8235,-2.8477,-2.8573,-2.8621,-2.8747,-2.8858,-2.8904,-2.9075,-2.9167,-2.9305,-2.9473,-2.9608,-2.9726,-2.993,-3.0017,-3.0179,-3.1046,-3.1391,-3.1523,-3.1593,-3.2287,-3.3106,-3.3822,-3.4136,-3.4532,-3.5323,-3.5549,-3.5622,-3.5622,-3.5622,-3.5622,-3.5622,-3.5622,-3.5667,-3.5773,-3.5817,-3.5861,-3.5975,-3.5975,-3.637,-3.7195,-3.7298,-3.8006,-3.9595,-3.9698,-4.0043,-4.0836,-4.1047,-4.1093,-4.1093,-4.1307,-4.138,-4.138,-4.1515,-4.1604,-4.1604,-4.1604,-4.2394,-4.3886,-4.3904,-4.4746,-4.6172,-4.6172,-4.6172,-4.6221,-4.635,-4.6381,-4.6381,-4.6542,-4.6684,-4.6795,-4.6795,-4.6888,-4.6998,-3.4346,-3.4414,-3.4414,-3.4414,-3.4414,-3.4109,-3.3224,-3.3093,-3.2547,-3.1041,-3.0881,-3.0821,-3.0642,-3.0568,-3.0702,-3.0895,-3.0895,-3.0558,-2.9761,-2.9207,-2.8414,-2.7151,-2.7181,-2.7181,-2.7181,-2.7181,-2.7233,-2.7284,-2.7284,-2.7284,-2.7321,-2.7321,-2.7386,-2.7437,-2.7437,-2.7539,-2.7675,-2.7675,-2.774,-2.7855,-2.789,-2.7989,-2.8103,-2.8235,-2.8332,-2.8332,-2.8589,-2.8668,-2.87,-2.892,-2.9075,-2.9213,-2.9428,-2.9608,-2.9697,-2.977,-3.0259,-3.0831,-3.1087,-3.1962,-3.2738,-3.2319,-3.2883,-3.3632,-3.3939,-3.4435,-3.4961,-3.5287,-3.5429,-3.552,-3.552,-3.5549,-3.5622,-3.5622,-3.5622,-3.5622,-3.5667,-3.5667,-3.5711,-3.5861,-3.6321,-3.6757,-3.7131,-3.8123,-3.8973,-3.9542,-4.0169,-4.0629,-4.0871,-4.0935,-4.1,-4.1093,-4.114,-4.1261,-4.138,-4.1515,-4.1604,-4.1604,-4.1604,-4.2148,-4.3149,-4.3658,-4.4466,-4.5466,-4.5993,-4.6172,-4.6221,-4.627,-4.627,-4.6253,-4.6398,-4.6542,-4.6684,-4.6795,-4.6888,-4.6998,-3.4074,-3.421,-3.4264,-3.4414,-3.3993,-3.3412,-3.2643,-3.2077,-3.1467,-3.0684,-3.0568,-3.0568,-3.0568,-3.0568,-3.0642,-3.0762,-3.0762,-3.028,-2.9034,-2.889,-2.8265,-2.6957,-2.6989,-2.7026,-2.7026,-2.7026,-2.7078,-2.7144,-2.7144,-2.7144,-2.7181,-2.7181,-2.7233,-2.7335,-2.7335,-2.7386,-2.7539,-2.7539,-2.759,-2.774,-2.779,-2.784,-2.7955,-2.8054,-2.8137,-2.8235,-2.8381,-2.8525,-2.8621,-2.8748,-2.8889,-2.9075,-2.9321,-2.9457,-2.9595,-2.9974,-3.048,-3.1086,-3.1716,-3.2574,-3.3319,-3.3219,-3.3703,-3.4173,-3.433,-3.4725,-3.5105,-3.5198,-3.5354,-3.5446,-3.5492,-3.552,-3.5594,-3.5577,-3.5622,-3.5622,-3.5622,-3.5622,-3.574,-3.6152,-3.6576,-3.7131,-3.7865,-3.8751,-3.9494,-3.9911,-4.0517,-4.084,-4.0888,-4.0888,-4.0935,-4.1047,-4.1047,-4.114,-4.1261,-4.1426,-4.156,-4.1604,-4.1604,-4.2026,-4.2833,-4.3272,-4.4062,-4.5115,-4.5589,-4.5958,-4.6172,-4.6172,-4.6172,-4.6221,-4.6319,-4.6398,-4.6542,-4.6684,-4.6795,-4.6934,-3.3675,-3.3868,-3.4045,-3.4206,-3.3303,-3.2492,-3.2391,-3.1362,-3.064,-3.0582,-3.0582,-3.0582,-3.0582,-3.0582,-3.0582,-3.0582,-3.0582,-3.0031,-2.8768,-2.8681,-2.8115,-2.6837,-2.6779,-2.6779,-2.6779,-2.6779,-2.6846,-2.7003,-2.7003,-2.7041,-2.7181,-2.7181,-2.7181,-2.7181,-2.7181,-2.7233,-2.7401,-2.7401,-2.7437,-2.7575,-2.774,-2.779,-2.779,-2.7905,-2.8054,-2.8186,-2.8186,-2.8381,-2.8573,-2.8573,-2.8748,-2.8951,-2.9198,-2.9353,-2.9573,-3.0427,-3.0746,-3.1178,-3.266,-3.3145,-3.3421,-3.4137,-3.4497,-3.4691,-3.4851,-3.4994,-3.5088,-3.5088,-3.5198,-3.5291,-3.5446,-3.5492,-3.5537,-3.5594,-3.5577,-3.5577,-3.5622,-3.5622,-3.591,-3.6688,-3.684,-3.7496,-3.9016,-3.9268,-3.9688,-4.0597,-4.0697,-4.0745,-4.0888,-4.0871,-4.0888,-4.0888,-4.1047,-4.1111,-4.1093,-4.1261,-4.1426,-4.156,-4.1604,-4.199,-4.271,-4.2851,-4.3658,-4.4992,-4.5133,-4.5589,-4.6172,-4.6172,-4.6172,-4.6172,-4.6172,-4.6253,-4.6429,-4.6542,-4.6684,-4.6842,-3.3605,-3.3675,-3.3573,-3.3278,-3.303,-3.2514,-3.1539,-3.1137,-3.0793,-3.0291,-3.0233,-3.0233,-3.0233,-3.0233,-3.0233,-3.0233,-3.0233,-2.9688,-2.8398,-2.8326,-2.7752,-2.6451,-2.6394,-2.6394,-2.6394,-2.6674,-2.6779,-2.6846,-2.6846,-2.6832,-2.6884,-2.6884,-2.6937,-2.7041,-2.7041,-2.7144,-2.7233,-2.7233,-2.7335,-2.7437,-2.7503,-2.7539,-2.7675,-2.779,-2.784,-2.789,-2.8137,-2.8235,-2.8332,-2.8525,-2.8748,-2.8904,-2.8951,-2.9547,-3.0195,-3.0402,-3.1294,-3.2287,-3.2756,-3.3288,-3.3856,-3.4202,-3.4349,-3.4448,-3.4691,-3.4851,-3.4947,-3.4947,-3.5041,-3.5152,-3.5198,-3.5291,-3.5383,-3.5475,-3.552,-3.552,-3.5577,-3.5622,-3.591,-3.6688,-3.7297,-3.8024,-3.8952,-3.9678,-4.0118,-4.0387,-4.06,-4.0697,-4.0745,-4.084,-4.0888,-4.0888,-4.0935,-4.0982,-4.1093,-4.114,-4.1261,-4.1426,-4.156,-4.1692,-4.1903,-4.3114,-4.3834,-4.4237,-4.5449,-4.6081,-4.6172,-4.6172,-4.6172,-4.6172,-4.6172,-4.6253,-4.6381,-4.6429,-4.659,-4.6842,-3.3297,-3.3142,-3.2984,-3.2848,-3.2293,-3.1732,-3.1217,-3.0859,-3.0483,-3.0168,-3.0111,-3.0111,-3.0111,-3.0111,-3.0111,-3.0111,-3.0111,-2.9568,-2.8283,-2.8197,-2.764,-2.6343,-2.6286,-2.6286,-2.6286,-2.6447,-2.6568,-2.6568,-2.6659,-2.6645,-2.6645,-2.6779,-2.6846,-2.6899,-2.6899,-2.6989,-2.7093,-2.7093,-2.7196,-2.7284,-2.735,-2.7437,-2.7539,-2.7625,-2.774,-2.784,-2.794,-2.8088,-2.8235,-2.8525,-2.8653,-2.8857,-2.9265,-2.9801,-3.0386,-3.1197,-3.1946,-3.2668,-3.3104,-3.3574,-3.3949,-3.405,-3.4201,-3.4349,-3.4546,-3.4707,-3.4787,-3.4787,-3.4899,-3.5041,-3.5105,-3.5152,-3.5245,-3.54,-3.5383,-3.5446,-3.5458,-3.5807,-3.6359,-3.7135,-3.7925,-3.87,-3.9445,-3.9968,-4.0238,-4.0305,-4.0453,-4.0551,-4.0583,-4.0745,-4.0793,-4.0793,-4.0888,-4.0935,-4.0982,-4.1047,-4.114,-4.1261,-4.1426,-4.1708,-4.2093,-4.2963,-4.3781,-4.4518,-4.5343,-4.5888,-4.6172,-4.6172,-4.6172,-4.6172,-4.6172,-4.627,-4.6301,-4.6398,-4.659,-4.6795,-3.2764,-3.2499,-3.2202,-3.2305,-3.1429,-3.0743,-3.0834,-3.0378,-2.9988,-2.9988,-2.9988,-2.9988,-2.9988,-2.9988,-2.9988,-2.9988,-2.9889,-2.9394,-2.8225,-2.804,-2.7413,-2.6275,-2.6233,-2.6233,-2.6233,-2.6233,-2.6233,-2.6286,-2.6418,-2.6457,-2.6457,-2.6659,-2.6727,-2.6765,-2.6765,-2.6832,-2.6951,-2.6951,-2.7041,-2.7181,-2.7299,-2.735,-2.7401,-2.7524,-2.7625,-2.779,-2.779,-2.7989,-2.8235,-2.8477,-2.8651,-2.89,-2.967,-3.0112,-3.0568,-3.2019,-3.2498,-3.2771,-3.3499,-3.3761,-3.3848,-3.3848,-3.405,-3.425,-3.4349,-3.4546,-3.4691,-3.4707,-3.4804,-3.4899,-3.5041,-3.5041,-3.5105,-3.5245,-3.5245,-3.5341,-3.5475,-3.6105,-3.6905,-3.7732,-3.8636,-3.9411,-4.002,-4.007,-4.0138,-4.0238,-4.0305,-4.0337,-4.0485,-4.0583,-4.0697,-4.0697,-4.0793,-4.0888,-4.0888,-4.1121,-4.1237,-4.1237,-4.1574,-4.2044,-4.2597,-4.2969,-4.384,-4.5115,-4.5238,-4.5642,-4.6172,-4.6172,-4.6172,-4.6172,-4.6172,-4.6172,-4.6221,-4.635,-4.6542,-4.6731,-3.1986,-3.1652,-3.1202,-3.0737,-3.0563,-3.0347,-2.9876,-2.9721,-2.9665,-2.9665,-2.9665,-2.9665,-2.9665,-2.9665,-2.9665,-2.9665,-2.9186,-2.8581,-2.7877,-2.7299,-2.668,-2.5976,-2.5948,-2.5948,-2.5948,-2.5948,-2.6056,-2.6286,-2.634,-2.634,-2.634,-2.634,-2.6433,-2.651,-2.651,-2.6645,-2.6832,-2.6832,-2.6884,-2.7055,-2.7055,-2.7196,-2.7401,-2.7401,-2.7488,-2.7625,-2.774,-2.7989,-2.8186,-2.8235,-2.8765,-2.9472,-2.9614,-3.0554,-3.1623,-3.1966,-3.2521,-3.3077,-3.3419,-3.3555,-3.3607,-3.3694,-3.3848,-3.3949,-3.4,-3.425,-3.4546,-3.4707,-3.4691,-3.4756,-3.4899,-3.4947,-3.4994,-3.5105,-3.5152,-3.5368,-3.6178,-3.6346,-3.6915,-3.8288,-3.9244,-3.9885,-4.007,-4.007,-4.0138,-4.0138,-4.0238,-4.0305,-4.0355,-4.0436,-4.0583,-4.0697,-4.0697,-4.0793,-4.0888,-4.1574,-4.1885,-4.1902,-4.2656,-4.2884,-4.2632,-4.3978,-4.4808,-4.5133,-4.5782,-4.6133,-4.6172,-4.6172,-4.6172,-4.6172,-4.6172,-4.6172,-4.6221,-4.635,-4.6429,-4.6495,-3.1254,-3.0825,-3.0446,-3.0183,-2.9979,-2.9799,-2.9519,-2.954,-2.9602,-2.9602,-2.9602,-2.9602,-2.9602,-2.9602,-2.94,-2.9002,-2.8722,-2.8162,-2.7095,-2.6761,-2.6343,-2.573,-2.5702,-2.5702,-2.5702,-2.5743,-2.5839,-2.5948,-2.6111,-2.6179,-2.6179,-2.6286,-2.6326,-2.6379,-2.6379,-2.6486,-2.6645,-2.6645,-2.6712,-2.6899,-2.6951,-2.7055,-2.7196,-2.7233,-2.7386,-2.7539,-2.774,-2.789,-2.805,-2.8564,-2.9035,-2.952,-3.0428,-3.113,-3.1809,-3.2357,-3.2808,-3.3096,-3.3256,-3.3398,-3.3503,-3.3555,-3.371,-3.3797,-3.3899,-3.405,-3.425,-3.4448,-3.4546,-3.4643,-3.4739,-3.4804,-3.4851,-3.4947,-3.4994,-3.526,-3.6056,-3.6602,-3.7502,-3.9024,-3.9528,-3.9833,-4.0003,-3.9986,-4.0037,-4.007,-4.0138,-4.0188,-4.0188,-4.0337,-4.0404,-4.0502,-4.0994,-4.1363,-4.1412,-4.2268,-4.2647,-4.2664,-4.3456,-4.3796,-4.3698,-4.4443,-4.5082,-4.56,-4.5933,-4.6122,-4.6172,-4.6172,-4.6172,-4.6172,-4.6172,-4.6172,-4.6221,-4.627,-4.635,-4.6429]}]]